     2.11           OBSERVATION DATA    G (GPS)             RINEX VERSION / TYPE
teqc 2010Oct21 OPUS Account 20111026 15:46:46UTC            PGM / RUN BY / DATE
P 1522                                                      MARKER NAME
1169                                                        MARKER NUMBER
CSMIDDLETON NGS                                             OBSERVER / AGENCY
0440103897 TRIMBLE 5700 1.04                                REC # / TYPE / VERS
12299603 TRM41249.00 NONE                                   ANT # / TYPE
  -737973.7457 -5496542.8436  3139885.6334                  APPROX POSITION XYZ
        1.9990        0.0000        0.0000                  ANTENNA: DELTA H/E/N
     1     1                                                WAVELENGTH FACT L1/2
     5    L1    L2    C1    P1    P2                        # / TYPES OF OBSERV
    15                                                      LEAP SECONDS
  2011     7    31     0     0   30.0000000     GPS         TIME OF FIRST OBS
                                                            END OF HEADER
 11  7 31  0  0 30.0000000  0  7G09G28G10G17G04G27G02
 -24850695.27157 -19347726.65855  22238635.1254                   22238635.0744
 -76499019.03357 -59596548.61355  22187971.4384                   22187969.8674
 -11104427.29956  -9771558.72054  23223632.3674                   23223634.2344
 -63545757.78857 -49480584.30456  21680773.0394                   21680771.5704
 -51943643.79458 -40463007.63757  20015400.6724                   20015399.3594
 -35737868.34857 -27836303.94855  22538951.2974                   22538951.1134
 -27187743.91658 -21168867.58656  22110475.4064                   22110473.6804
 11  7 31  0  1  0.0000000  0  7G09G28G10G17G04G27G02
 -24939541.29347 -19416957.30645  22221728.3054                   22221728.4264
 -76516225.31847 -59609956.17145  22184697.1024                   22184695.9264
 -11271735.02846  -9901928.22844  23191794.5704                   23191796.3164
 -63588989.38747 -49514271.29246  21672545.9614                   21672544.9534
 -52019474.69048 -40522096.62247  20000970.4064                   20000968.9344
 -35813142.00747 -27894958.77545  22524626.9454                   22524627.2344
 -27335542.45348 -21284035.20246  22082350.1254                   22082348.0514
 11  7 31  0  1 30.0000000  0  8G09G28G10G17G12G04G27G02
 -25027712.70447 -19485662.27345  22204950.1254                   22204949.3594
 -76533025.86447 -59623047.55445  22181500.3204                   22181499.6954
 -11438880.97246 -10032171.69844  23159987.6724                   23159988.9184
 -63632101.81247 -49547865.41246  21664342.2894                   21664340.8594
   -202798.88057   -124813.83053  24764543.6884                   24764547.0824
 -52094713.49147 -40580724.24546  19986652.7344                   19986651.3674
 -35887896.88946 -27953209.39845  22510401.8754                   22510401.4264
 -27482984.22447 -21398924.82746  22054292.3284                   22054290.5554
 11  7 31  0  2  0.0000000  0  8G09G28G10G17G12G04G27G02
 -25115219.58047 -19553849.45045  22188297.9304                   22188298.2464
 -76549430.63847 -59635830.58445  22178378.5554                   22178378.4384
 -11605871.62946 -10162294.17344  23128209.8834                   23128212.0204
 -63675105.48847 -49581374.77246  21656158.9614                   21656157.7154
   -375627.09346   -259485.13643  24731656.3674                   24731658.1764
 -52169370.80947 -40638898.75947  19972446.0474                   19972444.9574
 -35962143.15746 -28011063.66045  22496273.0704                   22496273.7234
 -27630078.10648 -21513543.34646  22026302.0164                   22026299.3714
 11  7 31  0  2 30.0000000  0  8G09G28G10G17G12G04G27G02
 -25202070.89647 -19621525.79745  22171770.0784                   22171770.4494
 -76565449.01547 -59648312.46945  22175330.5784                   22175329.5984
 -11772712.31046 -10292299.74944  23096462.0554                   23096463.2114
 -63718009.13947 -49614806.21246  21647994.7034                   21647993.9264
   -548461.88746   -394161.56543  24698765.9304                   24698767.3094
 -52243456.53448 -40696627.89147  19958347.7274                   19958346.7464
 -36035890.44647 -28068529.13245  22482238.9774                   22482239.5354
 -27776831.67948 -21627896.71746  21998375.2584                   21998373.1024
 11  7 31  0  3  0.0000000  0  8G09G28G10G17G12G04G27G02
 -25288267.57047 -19688692.01345  22155367.8594                   22155368.4024
 -76581081.99947 -59660494.07845  22172355.7344                   22172354.7304
 -11939401.02747 -10422186.91644  23064741.7734                   23064743.2584
 -63760813.68248 -49648160.42046  21639849.0864                   21639847.9884
   -721303.16846   -528843.02143  24665874.4224                   24665875.5164
 -52316972.60048 -40753913.12647  19944358.4144                   19944357.1724
 -36109140.16147 -28125606.88745  22468300.8364                   22468300.9144
 -27923244.76848 -21741984.77446  21970513.7894                   21970511.9344
 11  7 31  0  3 30.0000000  0  8G09G28G10G17G12G04G27G02
 -25373807.23347 -19755346.30845  22139090.6174                   22139090.5554
 -76596327.26247 -59672373.56145  22169454.3914                   22169453.5664
 -12105931.93146 -10551951.17044  23033051.3594                   23033053.6374
 -63803517.05047 -49681435.77646  21631723.1884                   21631721.8054
   -894146.41246   -663526.04043  24632984.6484                   24632984.5864
 -52389916.88148 -40810752.81146  19930477.7584                   19930476.1134
 -36181890.23047 -28182295.29745  22454456.7734                   22454457.3554
 -28069313.73347 -21855804.67046  21942717.5004                   21942715.6454
 11  7 31  0  4  0.0000000  0  8G09G28G10G17G12G04G27G02
 -25458686.44847 -19821485.95445  22122938.2504                   22122938.4924
 -76611181.79847 -59683948.61245  22166628.0634                   22166627.6214
 -12272298.12946 -10681587.01844  23001393.0704                   23001394.9574
 -63846115.43547 -49714629.34646  21623616.5314                   21623615.2234
  -1066986.44046   -798206.43343  24600092.7814                   24600093.4494
 -52462287.27548 -40867145.32847  19916705.8834                   19916704.7704
 -36254137.70647 -28238592.07745  22440708.4694                   22440708.3484
 -28215033.88547 -21969352.77846  21914988.3984                   21914985.8244
 11  7 31  0  4 30.0000000  0  8G09G28G10G17G12G04G27G02
 -25542906.39447 -19887111.86745  22106911.6024                   22106912.3914
 -76625646.88447 -59695220.15645  22163875.5704                   22163874.0704
 -12438496.93046 -10811092.47544  22969766.2274                   22969767.1884
 -63888609.60647 -49747741.69446  21615530.1724                   21615529.8834
  -1239822.31846   -932883.67743  24567205.4534                   24567205.4884
 -52534085.39547 -40923091.89046  19903043.1484                   19903041.9384
 -36325884.15247 -28294498.44645  22427055.0084                   22427055.7624
 -28360405.23347 -22082629.07846  21887324.8524                   21887322.8204
 11  7 31  0  5  0.0000000  0  8G09G28G10G17G12G04G27G02
 -25626464.29747 -19952221.94545  22091011.1484                   22091011.1214
 -76639719.92347 -59706186.23545  22161197.3594                   22161196.8444
 -12604522.33547 -10940462.79544  22938172.8444                   22938173.9104
 -63930997.10147 -49780770.91046  21607464.4534                   21607463.3554
  -1412649.50646  -1067554.06443  24534316.8914                   24534317.9694
 -52605309.43848 -40978591.13646  19889489.4304                   19889488.4064
 -36397127.44247 -28350012.73245  22413498.4224                   22413498.9104
 -28505423.97548 -22195630.63746  21859728.6564                   21859726.6094
 11  7 31  0  5 30.0000000  0  8G09G28G10G17G12G04G27G02
 -25709359.39647 -20016815.54345  22075236.7814                   22075236.8954
 -76653400.16247 -59716846.20845  22158593.9774                   22158592.8914
 -12770370.01447 -11069694.64444  22906612.9534                   22906614.8134
 -63973276.91747 -49813716.23446  21599418.8914                   21599417.3834
  -1585465.23946  -1202215.52443  24501430.7734                   24501430.8204
 -52675959.16848 -41033642.87046  19876045.3204                   19876044.7304
 -36467867.00447 -28405134.50545  22400036.7034                   22400037.4344
 -28650087.86148 -22308355.67446  21832200.2344                   21832197.8244
 11  7 31  0  6  0.0000000  0  8G09G28G10G17G12G04G27G02
 -25791587.26947 -20080889.21745  22059589.0944                   22059589.4144
 -76666683.30647 -59727196.77645  22156066.7894                   22156067.2814
 -12936031.86946 -11198781.69644  22875087.7114                   22875089.0394
 -64015444.27647 -49846573.92046  21591394.7424                   21591394.5704
  -1758263.01646  -1336863.00543  24468548.5474                   24468548.5904
 -52746031.43448 -41088244.63047  19862710.6804                   19862709.7234
 -36538098.94047 -28459860.71145  22386671.7734                   22386672.4304
 -28794391.18448 -22420799.76046  21804739.8444                   21804738.0394
 11  7 31  0  6 30.0000000  0  8G09G28G10G17G12G04G27G02
 -25873145.42147 -20144441.04245  22044068.8204                   22044069.2974
 -76679566.79247 -59737235.90945  22153615.1644                   22153614.3634
 -13101501.33647 -11327718.81444  22843600.6334                   22843602.1294
 -64057496.15747 -49879341.63446  21583392.5394                   21583391.4964
  -1931038.01746  -1471492.73444  24435670.4924                   24435670.6604
 -52815523.70548 -41142394.45847  19849487.0234                   19849485.9384
 -36607820.88547 -28514189.50545  22373404.5004                   22373405.7544
 -28938330.07848 -22532959.86646  21777349.5084                   21777347.2624
 11  7 31  0  7  0.0000000  0  8G09G28G10G17G12G04G27G02
 -25954036.68647 -20207473.22445  22028676.2114                   22028676.2504
 -76692053.75947 -59746966.08845  22151239.1484                   22151239.0664
 -13266777.59847 -11456505.36044  22812149.3594                   22812151.7384
 -64099435.47048 -49912021.61446  21575411.8834                   21575410.5944
  -2103791.44246  -1606105.65044  24402796.1334                   24402797.3014
 -52884440.08748 -41196095.53547  19836372.7194                   19836371.5044
 -36677036.19247 -28568123.54445  22360233.3914                   22360233.9924
 -29081906.07948 -22644837.21046  21750027.5474                   21750025.3364
 11  7 31  0  7 30.0000000  0  8G09G28G10G17G12G04G27G02
 -26034260.89247 -20269985.63345  22013410.0084                   22013410.4844
 -76704143.89547 -59756387.02145  22148938.1884                   22148936.9104
 -13431857.19347 -11585138.73144  22780736.1174                   22780736.7344
 -64141261.76248 -49944613.52346  21567452.5944                   21567450.4614
  -2276521.10546  -1740700.02944  24369925.7814                   24369927.6994
 -52952780.82847 -41249348.05547  19823367.8284                   19823367.2584
 -36745745.24746 -28621663.09345  22347158.8754                   22347159.2814
 -29225117.41948 -22756430.39846  21722775.4614                   21722773.2154
 11  7 31  0  8  0.0000000  0  8G09G28G10G17G12G04G27G02
 -26113816.92947 -20331977.38045  21998271.0474                   21998271.1804
 -76715836.52647 -59765498.23345  22146712.6094                   22146713.0514
 -13596735.19947 -11713614.96244  22749360.3134                   22749362.0824
 -64182973.45248 -49977116.14646  21559515.0314                   21559513.6484
  -2449223.34746  -1875273.06844  24337062.2114                   24337063.8554
 -53020546.06948 -41302152.13547  19810472.6484                   19810471.3324
 -36813947.24447 -28674807.52045  22334180.3444                   22334180.6644
 -29367961.80948 -22867737.64746  21695592.6334                   21695591.0704
 11  7 31  0  8 30.0000000  0  8G09G28G10G17G12G04G27G02
 -26192706.61247 -20393449.87845  21983258.7734                   21983259.3754
 -76727133.20347 -59774300.88545  22144562.5634                   22144563.1644
 -13761409.24947 -11841932.26045  22718023.5084                   22718025.8204
 -64224572.14747 -50009530.70946  21551598.8284                   21551597.9414
  -2621897.56146  -2009824.24943  24304203.5234                   24304204.0514
 -53087737.74948 -41354509.28146  19797686.3984                   19797685.2034
 -36881644.20347 -28727558.38945  22321298.0474                   22321298.5124
 -29510439.63948 -22978759.26846  21668479.7664                   21668477.4884
 11  7 31  0  9  0.0000000  0  8G09G28G10G17G12G04G27G02
 -26270921.48447 -20454396.59245  21968375.3914                   21968375.1724
 -76738025.42947 -59782788.40145  22142491.0944                   22142490.9844
 -13925867.52847 -11970081.48445  22686728.8524                   22686730.0784
 -64266048.52647 -50041849.96546  21543706.1884                   21543704.8404
  -2794533.40546  -2144345.46843  24271351.3284                   24271352.4614
 -53154348.32348 -41406413.61746  19785010.8444                   19785010.0634
 -36948828.12947 -28779909.52945  22308513.4614                   22308514.4734
 -29652541.19548 -23089487.69046  21641439.0474                   21641437.0824
 11  7 31  0  9 30.0000000  0  8G09G28G10G17G12G04G27G02
 -26348457.00547 -20514813.90845  21953621.3364                   21953620.5904
 -76748508.65347 -59790957.19645  22140496.2274                   22140496.3134
 -14090101.39547 -12098055.79444  22655475.4304                   22655476.9694
 -64307397.75447 -50074070.14446  21535838.1174                   21535836.8874
  -2967123.94846  -2278831.44743  24238508.9304                   24238509.8014
 -53220373.72648 -41457861.97147  19772446.2194                   19772445.1724
 -37015494.76747 -28831857.55345  22295826.9694                   22295828.0984
 -29794260.42248 -23199918.18946  21614470.4924                   21614468.2504
 11  7 31  0 10  0.0000000  0  8G09G28G10G17G12G04G27G02
 -26425305.43147 -20574695.85445  21938997.5704                   21938996.6764
 -76758575.24047 -59798801.33645  22138580.3284                   22138579.3054
 -14254099.28147 -12225846.21144  22624267.7734                   22624268.7424
 -64348611.23748 -50106184.54146  21527995.4454                   21527994.7974
  -3139658.96846  -2413274.11943  24205676.7894                   24205677.2854
 -53285807.04648 -41508848.96246  19759995.0164                   19759993.6334
 -37081636.72347 -28883396.74545  22283240.8984                   22283241.2584
 -29935588.03048 -23310043.52246  21587576.6564                   21587574.8364
 11  7 31  0 10 30.0000000  0  8G09G28G10G17G12G04G27G02
 -26501473.83547 -20634047.88345  21924502.6564                   21924502.7074
 -76768232.01947 -59806326.18445  22136742.1724                   22136741.6914
 -14417864.03047 -12353455.02844  22593104.2114                   22593105.3094
 -64389695.48747 -50138198.25446  21520177.0164                   21520176.8714
  -3312142.99646  -2547677.13643  24172852.8914                   24172854.9884
 -53350655.81148 -41559380.45746  19747654.5164                   19747653.2544
 -37147261.24847 -28934532.74645  22270752.7504                   22270753.6454
 -30076529.64448 -23419868.09146  21560756.6094                   21560754.3324
 11  7 31  0 11  0.0000000  0  8G09G28G10G17G12G04G27G02
 -25001543.66547 -19465271.16645  22209929.1094                   22209929.4844
 -75202062.74047 -58585934.55545  22434774.7664                   22434773.3754
 -13005970.55846 -11253278.16544  22861777.6564                   22861780.1804
 -62855233.10347 -48942513.28246  21812175.6484                   21812174.6414
  -1909152.16946  -1454437.28643  24439833.5634                   24439835.1804
 -51839502.74948 -40381858.57946  20035217.5314                   20035216.5594
 -35636950.53746 -27757667.26145  22558155.4454                   22558155.7624
 -28641663.19348 -22301790.26946  21833802.3914                   21833800.0164
 11  7 31  0 11 30.0000000  0  8G09G28G10G17G12G04G27G02
 -25076359.33147 -19523569.12045  22195693.5234                   22195692.9924
 -75210907.37347 -58592826.56145  22433092.0704                   22433091.5234
 -13169265.08247 -11380520.52344  22830705.1644                   22830706.1134
 -62896065.23148 -48974330.51446  21804405.6644                   21804403.8404
  -2081534.82647  -1588761.30343  24407030.8674                   24407031.2304
 -51903192.07048 -40431486.60147  20023098.1644                   20023096.9104
 -35701548.66547 -27808003.45845  22545863.1484                   22545863.2504
 -28781835.55948 -22411015.42646  21807128.3834                   21807126.7464
 11  7 31  0 12  0.0000000  0  8G09G28G10G17G12G04G27G02
 -25150500.36247 -19581341.37745  22181584.8054                   22181585.4064
 -75219347.70747 -58599403.50945  22431485.7344                   22431484.8444
 -13332320.40647 -11507576.47944  22799676.6804                   22799677.4264
 -62936771.77348 -49006049.89446  21796659.1884                   21796657.8244
  -2253864.60847  -1723044.12843  24374237.2114                   24374237.4694
 -51966304.48348 -40480665.08646  20011087.9064                   20011087.1174
 -35765635.71947 -27857941.44045  22533667.4694                   22533668.2814
 -28921622.80548 -22519940.48146  21780527.1094                   21780525.0434
 11  7 31  0 12 30.0000000  0  8G09G28G10G17G12G04G27G02
 -25223966.25247 -19638587.53445  22167603.9774                   22167604.0984
 -75227382.87747 -58605664.74545  22429956.3834                   22429956.7274
 -13495131.68747 -11634442.29745  22768693.6174                   22768696.2584
 -62977351.47647 -49037670.44946  21788936.4694                   21788936.0004
  -2426138.60147  -1857283.48143  24341453.9614                   24341453.4454
 -52028839.95848 -40529394.00946  19999187.8524                   19999186.6604
 -35829211.32248 -27907480.88445  22521569.2114                   22521569.6214
 -29061022.92648 -22628563.88846  21754000.6334                   21753998.5864
 11  7 31  0 13  0.0000000  0  8G09G28G10G17G12G04G27G02
 -25296760.31047 -19695310.19645  22153752.3674                   22153752.7934
 -75235016.02347 -58611612.72445  22428503.8284                   22428503.7934
 -13657698.13247 -11761117.32044  22737758.8054                   22737760.3244
 -63017806.99247 -49069194.24746  21781239.1804                   21781237.1334
  -2598357.22647  -1991479.62244  24308682.0554                   24308682.2114
 -52090801.97648 -40577676.08546  19987396.7814                   19987395.5704
 -35892278.91647 -27956624.47045  22509568.5554                   22509568.8054
 -29200037.45948 -22736886.81946  21727547.5784                   21727544.9414
 11  7 31  0 13 30.0000000  0  8G09G28G10G17G12G04G27G02
 -25368879.56447 -19751507.03145  22140028.3754                   22140028.1414
 -75242244.16447 -58617245.10445  22427128.6414                   22427128.5554
 -13820012.69447 -11887596.04944  22706870.7974                   22706871.6214
 -63058134.41548 -49100618.18846  21773565.0084                   21773564.0704
  -2770515.45647  -2125628.77044  24275920.9384                   24275921.3754
 -52152188.54548 -40625509.75546  19975715.2664                   19975714.3594
 -35954835.93846 -28005370.21545  22497663.8524                   22497664.7704
 -29338662.21248 -22844906.04546  21701167.6254                   21701165.3594
 11  7 31  0 14  0.0000000  0  8G09G28G10G17G12G04G27G02
 -25440323.60947 -19807177.73945  22126433.6804                   22126432.7664
 -75249066.73347 -58622561.47045  22425830.8444                   22425830.6214
 -13982071.03247 -12013875.15644  22676032.8204                   22676033.7854
 -63098332.59347 -49131941.44846  21765914.9144                   21765914.5594
  -2942609.89247  -2259728.16844  24243172.5474                   24243173.3834
 -52212999.80348 -40672895.13046  19964143.5704                   19964142.0824
 -36016882.32047 -28053718.06145  22485856.8674                   22485857.5594
 -29476895.05348 -22952619.87146  21674862.7734                   21674860.7584
 11  7 31  0 14 30.0000000  0  8G09G28G10G17G12G04G27G02
 -25511101.80447 -19862329.58845  22112964.3444                   22112964.4844
 -75255492.92647 -58627568.97445  22424607.3984                   22424607.2774
 -14143878.33247 -12139958.63944  22645241.4384                   22645242.7234
 -63138409.97348 -49163170.57746  21758288.3054                   21758287.7384
  -3114647.12747  -2393783.04045  24210435.2194                   24210435.7384
 -52273245.86748 -40719840.10746  19952678.8914                   19952677.4414
 -36078427.60147 -28101675.47545  22474145.2584                   22474146.0824
 -29614743.34148 -23060034.06246  21648631.4534                   21648628.4884
 11  7 31  0 15  0.0000000  0  8G09G28G10G17G12G04G27G02
 -25581214.07247 -19916962.52645  22099622.1024                   22099622.2384
 -75261522.66947 -58632267.52945  22423460.2424                   22423460.0944
 -14305430.05047 -12265842.98144  22614499.3204                   22614500.5984
 -63178365.66748 -49194304.87146  21750685.2194                   21750684.6294
  -3286624.37247  -2527791.12944  24177708.2974                   24177709.1094
 -52332926.99648 -40766344.87446  19941321.9614                   19941321.3094
 -36139472.03547 -28149242.56945  22462529.0944                   22462529.3444
 -29752205.92148 -23167147.69046  21622472.8674                   21622470.6644
 11  7 31  0 15 30.0000000  0  8G09G28G10G17G12G04G27G02
 -25650657.85047 -19971074.55945  22086408.0394                   22086408.1054
 -75267152.99347 -58636654.85444  22422389.0864                   22422387.7774
 -14466719.28247 -12391522.78644  22583806.8754                   22583807.1884
 -63218195.81847 -49225341.36646  21743106.2504                   21743105.7854
  -3458536.13547  -2661748.23344  24144995.4534                   24144995.3954
 -52392040.90448 -40812407.64747  19930073.3674                   19930071.5004
 -36200012.93647 -28196417.32445  22451008.1174                   22451009.1454
 -29889278.04248 -23273957.05646  21596388.6884                   21596385.8284
 11  7 31  0 16  0.0000000  0  8G09G28G10G17G12G04G27G02
 -25719436.86747 -20024668.60645  22073319.6024                   22073318.6724
 -75272387.40647 -58640733.71045  22421392.6884                   22421392.8164
 -14627745.84147 -12516997.88144  22553164.3594                   22553164.5354
 -63257903.33447 -49256282.29746  21735549.8054                   21735549.0984
  -3630383.02447  -2795654.75644  24112292.7974                   24112293.6564
 -52450592.22348 -40858032.04446  19918930.8984                   19918930.0164
 -36260054.42747 -28243202.93845  22439583.0474                   22439583.2304
 -30025962.17548 -23380464.11446  21570378.5864                   21570376.6294
 11  7 31  0 16 30.0000000  0  8G09G28G10G17G12G04G27G02
 -25787549.73747 -20077743.56145  22060358.0084                   22060358.2344
 -75277224.37947 -58644502.85745  22420472.8594                   22420472.6454
 -14788503.65847 -12642263.59445  22522572.4534                   22522573.7304
 -63297486.06547 -49287125.97846  21728017.5784                   21728016.8364
  -3802161.50747  -2929507.97744  24079604.7194                   24079605.1254
 -52508580.03348 -40903217.33646  19907896.1094                   19907895.1174
 -36319595.14047 -28289598.32245  22428252.9304                   22428253.5204
 -30162255.20448 -23486666.40346  21544443.0784                   21544440.4224
 11  7 31  0 17  0.0000000  0  8G09G28G10G17G12G04G27G02
 -25855000.97947 -20130302.97545  22047522.9774                   22047522.5204
 -75281668.34747 -58647965.76545  22419627.6174                   22419626.9144
 -14948993.06147 -12767320.11345  22492032.6414                   22492033.3554
 -63336947.37247 -49317875.05446  21720508.3204                   21720506.9184
  -3973872.86446  -3063308.91944  24046928.5314                   24046930.0904
 -52566009.31248 -40947967.42446  19896968.0554                   19896966.4264
 -36378639.88147 -28335607.23645  22417016.8284                   22417017.5704
 -30298159.69748 -23592565.95046  21518581.3594                   21518578.9454
 11  7 31  0 17 30.0000000  0  8G09G28G10G17G12G04G27G02
 -25921789.49347 -20182345.97945  22034813.0004                   22034812.9414
 -75285717.79147 -58651121.23844  22418856.8594                   22418856.2424
 -15109208.85847 -12892163.50045  22461544.5314                   22461544.5204
 -63376284.84448 -49348527.62446  21713022.1884                   21713021.0634
  -4145513.12946  -3197054.42144  24014266.6724                   24014267.3914
 -52622879.65848 -40992281.97147  19886145.5234                   19886144.5234
 -36437187.94347 -28381229.13545  22405875.5554                   22405875.7114
 -30433672.83747 -23698160.52246  21492793.9064                   21492791.3524
 11  7 31  0 18  0.0000000  0  8G09G28G10G17G12G04G27G02
 -25987916.70747 -20233873.68945  22022229.7194                   22022229.6024
 -75289373.97147 -58653970.25945  22418160.8754                   22418161.2734
 -15269148.04647 -13016791.32644  22431109.1414                   22431109.1214
 -63415499.28347 -49379084.33246  21705560.0394                   21705559.5354
  -4317080.72846  -3330743.31944  23981618.4224                   23981618.2734
 -52679192.80348 -41036162.33346  19875429.8914                   19875428.2854
 -36495240.87447 -28426465.21145  22394828.4064                   22394829.0664
 -30568794.48148 -23803450.05046  21467080.8674                   21467078.7234
 11  7 31  0 18 30.0000000  0  8G09G28G10G17G12G04G27G02
 -26053389.45447 -20284891.41545  22009770.7034                   22009770.6884
 -75292643.32647 -58656517.91244  22417538.4454                   22417538.4924
 -15428813.16547 -13141205.58945  22400725.7504                   22400726.2974
 -63454595.94248 -49409549.25446  21698120.4614                   21698119.6214
  -4488579.53746  -3464378.59043  23948982.8594                   23948983.7304
 -52734955.92048 -41079614.09746  19864818.4144                   19864816.8714
 -36552805.49047 -28471320.81045  22383874.2734                   22383874.7664
 -30703529.76648 -23908438.51546  21441441.6644                   21441439.7074
 11  7 31  0 19  0.0000000  0  8G09G28G10G17G12G04G27G02
 -26118204.42247 -20335396.59245  21997436.2814                   21997436.9224
 -75295522.29547 -58658761.32644  22416990.8054                   22416990.6884
 -15588195.83847 -13265399.76345  22370396.2274                   22370396.3134
 -63493570.35948 -49439918.94346  21690704.1724                   21690703.3984
  -4660002.78846  -3597954.99143  23916362.2974                   23916361.4264
 -52790166.09948 -41122635.01346  19854312.3524                   19854311.0274
 -36609878.54447 -28515793.37045  22373013.3284                   22373014.6604
 -30837873.62448 -24013121.98146  21415876.5394                   21415874.7854
 11  7 31  0 19 30.0000000  0  8G09G28G10G17G12G04G27G02
 -26182360.20047 -20385388.12445  21985227.8204                   21985228.4414
 -75298009.15347 -58660699.23245  22416517.3134                   22416518.1214
 -15747290.57047 -13389369.57745  22340121.0554                   22340122.3164
 -63532419.72048 -49470191.15046  21683311.8524                   21683309.7304
  -4831346.22746  -3731469.32243  23883756.2894                   23883757.6844
 -52844822.60748 -41165224.48546  19843911.9694                   19843910.6684
 -36666458.76347 -28559881.88245  22362247.1804                   22362247.7584
 -30971822.72848 -24117497.84046  21390386.4844                   21390385.0204
 11  7 31  0 20  0.0000000  0  8G09G28G10G17G12G04G27G02
 -26245859.51247 -20434868.10345  21973144.3914                   21973145.3594
 -75300106.27447 -58662333.40345  22416119.2664                   22416118.9534
 -15906095.58247 -13513113.65645  22309901.9384                   22309901.7194
 -63571145.62848 -49500367.17346  21675942.1414                   21675940.9064
  -5002609.58746  -3864921.10543  23851166.5394                   23851165.0084
 -52898928.55548 -41207384.96246  19833615.3674                   19833614.4734
 -36722549.08347 -28603588.64945  22351573.4304                   22351573.6414
 -31105378.02047 -24221566.83446  21364972.3444                   21364969.9774
 11  7 31  0 20 30.0000000  0  8G09G28G10G17G12G04G27G02
 -26308709.09047 -20483841.82645  21961184.9924                   21961184.9494
 -75301820.26347 -58663669.06144  22415792.3444                   22415793.1644
 -16064613.26147 -13636633.81545  22279736.5234                   22279737.3874
 -63609753.81347 -49530451.48746  21668594.8834                   21668593.6094
  -5173796.24146  -3998313.19843  23818590.5864                   23818590.2194
 -52952491.19148 -41249122.06546  19823422.3984                   19823421.7274
 -36778156.66947 -28646919.29045  22340991.1334                   22340992.2624
 -31238544.51848 -24325332.88246  21339631.2974                   21339628.7894
 11  7 31  0 21  0.0000000  0  8G09G28G10G17G12G04G27G02
 -26370910.10747 -20532310.16345  21949348.3364                   21949348.6374
 -75303151.55847 -58664706.54044  22415539.4144                   22415539.6684
 -16222839.93447 -13759927.19545  22249626.6954                   22249627.6684
 -63648243.28147 -49560443.30046  21661271.0704                   21661269.8524
  -5344904.01447  -4131643.82643  23786029.5784                   23786029.7154
 -53005511.75548 -41290436.78046  19813333.2344                   19813331.8874
 -36833282.21847 -28689874.28345  22330501.7504                   22330502.2154
 -31371321.20748 -24428795.17146  21314364.3364                   21314362.5474
 11  7 31  0 21 30.0000000  0  8G09G28G10G17G12G04G27G02
 -24857040.67747 -19352671.68245  22237428.2344                   22237428.7424
 -73728680.29347 -57437845.90144  22715150.9774                   22715151.8594
 -14805346.04647 -12655386.40945  22519367.2894                   22519367.1804
 -62111192.17847 -48362741.14446  21953761.6484                   21953760.8014
  -3940504.28346  -3037306.24543  24053277.3524                   24053277.7734
 -51482569.35148 -40103728.41146  20103139.4924                   20103138.2774
 -35312504.44747 -27504852.67245  22619896.4844                   22619896.7974
 -29928282.30348 -23304349.21646  21588965.9064                   21588963.6454
 11  7 31  0 22  0.0000000  0  8G09G28G10G17G12G04G27G02
 -24917941.58847 -19400126.93945  22225839.1024                   22225839.0984
 -73729242.66947 -57438284.18845  22715044.5314                   22715044.0394
 -14962974.32947 -12778213.50345  22489371.1414                   22489372.2704
 -62149438.60947 -48392543.55746  21946483.8284                   21946482.8284
  -4111441.93646  -3170504.30743  24020749.1564                   24020749.2234
 -51534504.52448 -40144197.36347  20093256.6954                   20093255.2974
 -35366663.96247 -27547054.94245  22609590.0554                   22609590.8714
 -30060271.70548 -23407198.02846  21563849.2034                   21563846.7544
 11  7 31  0 22 30.0000000  0  8G09G28G10G17G12G04G27G02
 -24978195.59547 -19447078.13445  22214373.2344                   22214373.6564
 -73729422.77647 -57438424.63144  22715009.5944                   22715009.6724
 -15120299.49947 -12900804.45245  22459433.1954                   22459432.8594
 -62187563.92547 -48422251.60546  21939228.7114                   21939227.5594
  -4282292.24747  -3303634.31644  23988237.6804                   23988237.4614
 -51585900.60248 -40184246.24346  20083476.1024                   20083475.2234
 -35420343.29047 -27588883.03445  22599374.5234                   22599375.6174
 -30191867.59148 -23509740.22146  21538807.2344                   21538805.1524
 11  7 31  0 23  0.0000000  0  8G09G28G10G17G12G04G27G02
 -25037805.25647 -19493527.23045  22203029.8054                   22203029.6644
 -73729223.11847 -57438269.11644  22715048.0944                   22715049.0864
 -15277319.42647 -13023157.50545  22429552.9614                   22429554.1524
 -62225569.31647 -48451866.19046  21931996.7664                   21931995.7504
  -4453054.47647  -3436695.69444  23955743.1414                   23955742.4064
 -51636760.23548 -40223877.12846  20073797.9304                   20073797.0944
 -35473545.11247 -27630339.02245  22589251.0784                   22589251.0744
 -30323070.22048 -23611975.97146  21513839.8754                   21513837.7974
 11  7 31  0 23 30.0000000  0  8G09G28G10G17G12G04G27G02
 -25096771.00847 -19539474.57345  22191809.5784                   22191810.0634
 -73728643.61847 -57437817.64444  22715159.0084                   22715158.4804
 -15434029.85747 -13145269.40445  22399732.1884                   22399731.9574
 -62263453.88147 -48481386.63346  21924787.3754                   21924786.3794
  -4623726.32047  -3569686.64144  23923265.2814                   23923264.1954
 -51687084.51648 -40263090.86046  20064221.4224                   20064219.9104
 -35526270.04247 -27671423.40845  22579217.7504                   22579218.4774
 -30453878.60848 -23713904.52246  21488948.1484                   21488945.5394
 11  7 31  0 24  0.0000000  0  8G09G28G10G17G12G04G27G02
 -25155092.73547 -19584920.10545  22180710.2814                   22180711.0704
 -73727683.82947 -57437069.87844  22715341.6334                   22715342.2854
 -15590426.27547 -13267136.62645  22369970.5314                   22369970.8094
 -62301216.25047 -48510811.85646  21917601.2814                   21917600.2774
  -4794304.14447  -3702604.30144  23890804.7504                   23890804.2384
 -51736873.87848 -40301887.76747  20054746.9534                   20054745.6804
 -35578518.20147 -27712136.29745  22569275.7894                   22569276.0434
 -30584290.73148 -23815524.31246  21464131.4224                   21464129.8674
 11  7 31  0 24 30.0000000  0  8G09G28G10G17G12G04G27G02
 -25212772.60547 -19629865.44745  22169734.7424                   22169734.9184
 -73726345.11447 -57436026.80244  22715596.1254                   22715596.4304
 -15746505.78147 -13388756.90745  22340269.5164                   22340270.3484
 -62338856.23347 -48540141.74146  21910438.4224                   21910437.4414
  -4964785.96747  -3835447.17544  23858362.8364                   23858363.0474
 -51786130.42548 -40340269.50346  20045373.7034                   20045372.7274
 -35630291.58847 -27752479.21845  22559422.9924                   22559423.8634
 -30714306.52148 -23916835.25546  21439390.4924                   21439388.0314
 11  7 31  0 25  0.0000000  0  8G09G28G10G17G12G04G27G02
 -25269816.30047 -19674315.10445  22158880.1484                   22158879.9774
 -73724633.06347 -57434692.81444  22715921.4844                   22715921.8244
 -15902269.42347 -13510131.04545  22310629.3594                   22310629.4414
 -62376378.27347 -48569379.70446  21903298.9454                   21903297.3954
  -5135174.27347  -3968217.16944  23825939.1174                   23825939.0044
 -51834860.40748 -40378240.91646  20036100.9454                   20036099.8484
 -35681595.99247 -27792456.73545  22549659.9774                   22549660.3524
 -30843930.02348 -24017840.51546  21414723.8754                   21414721.3094
 11  7 31  0 25 30.0000000  0  8G09G28G10G17G12G04G27G02
 -25326219.76547 -19718265.85545  22148146.4144                   22148146.7194
 -73722542.99347 -57433064.30844  22716319.6884                   22716319.7304
 -16057708.49647 -13631252.29545  22281049.0394                   22281049.1884
 -62413776.91847 -48598521.49446  21896181.8444                   21896181.1804
  -5305461.02547  -4100908.04444  23793534.7814                   23793535.0944
 -51883059.70448 -40415798.82346  20026928.8364                   20026927.9614
 -35732427.17547 -27832065.46945  22539987.2894                   22539987.9144
 -30973155.27348 -24118535.45446  21390132.8444                   21390130.3714
 11  7 31  0 26  0.0000000  0  8G09G28G10G17G12G04G27G02
 -25381988.79247 -19761722.25345  22137533.7274                   22137533.8324
 -73720080.74847 -57431145.76344  22716787.9224                   22716788.4384
 -16212824.24647 -13752121.58445  22251531.7664                   22251532.2814
 -62451056.28447 -48627570.36246  21889087.6094                   21889086.5044
  -5475649.51747  -4233522.34344  23761148.3134                   23761149.1414
 -51930734.93148 -40452948.34546  20017856.4304                   20017854.8244
 -35782791.21447 -27871310.19745  22530403.3134                   22530403.9614
 -31101985.77448 -24218922.80046  21365617.1804                   21365614.7584
 11  7 31  0 26 30.0000000  0  8G09G28G10G17G12G04G27G02
 -25437122.80247 -19804683.82745  22127042.4534                   22127042.2734
 -73717244.68847 -57428935.89244  22717328.4064                   22717328.5824
 -16367610.67547 -13872734.27145  22222076.7504                   22222078.3094
 -62488213.99947 -48656524.44346  21882016.8754                   21882015.8244
  -5645734.94847  -4366056.29844  23728782.3524                   23728782.8794
 -51977885.37248 -40489688.95446  20008883.7894                   20008882.3874
 -35832687.33847 -27910190.31945  22520909.0944                   22520908.8674
 -31230418.99348 -24319000.57446  21341177.2114                   21341174.8914
 11  7 31  0 27  0.0000000  0  8G09G28G10G17G12G04G27G02
 -25491618.06247 -19847147.66945  22116672.2894                   22116672.7934
 -73714030.29047 -57426431.26345  22717939.7814                   22717940.0434
 -16522059.07547 -13993083.58745  22192686.0004                   22192687.2464
 -62525243.97247 -48685378.98946  21874970.2814                   21874969.8714
  -5815709.60447  -4498503.96244  23696437.6884                   23696437.6414
 -52024507.54248 -40526017.91946  20000012.1884                   20000010.4804
 -35882111.77347 -27948702.87945  22511503.6644                   22511504.1564
 -31358449.27448 -24418764.37446  21316813.6334                   21316811.2344
 11  7 31  0 27 30.0000000  0  8G09G28G10G17G12G04G27G02
 -25545481.50647 -19889119.19945  22106422.2584                   22106422.1684
 -73710444.17347 -57423636.96944  22718622.0784                   22718622.9964
 -16676171.98547 -14113171.46945  22163359.8914                   22163360.1294
 -62562151.66447 -48714138.21846  21867946.9774                   21867946.3714
  -5985576.95647  -4630867.97744  23664112.8754                   23664113.1054
 -52070608.62048 -40561940.83646  19991239.1644                   19991238.1294
 -35931071.46747 -27986853.32945  22502187.0004                   22502187.3014
 -31486081.22848 -24518217.78446  21292525.9144                   21292523.6914
 11  7 31  0 28  0.0000000  0  8G09G28G10G17G12G04G27G02
 -25598715.84347 -19930600.52345  22096292.5314                   22096292.0784
 -73706488.47847 -57420554.71444  22719375.4384                   22719374.2704
 -16829947.09747 -14232996.14545  22134096.9774                   22134097.3284
 -62598937.85147 -48742802.79046  21860947.2114                   21860946.5314
  -6155335.74947  -4763147.47744  23631808.6094                   23631808.4304
 -52116191.37348 -40597459.86246  19982565.5864                   19982564.0514
 -35979568.72847 -28024643.42745  22492958.6724                   22492959.0634
 -31613315.52848 -24617361.32346  21268314.1954                   21268312.1174
 11  7 31  0 28 30.0000000  0  8G09G28G10G17G12G04G27G02
 -25651324.47747 -19971594.28245  22086281.0084                   22086281.2424
 -73702166.26547 -57417186.79044  22720198.4614                   22720197.6524
 -16983382.89347 -14352556.40745  22104898.9694                   22104899.2544
 -62635604.52547 -48771374.25046  21853969.7814                   21853968.4574
  -6324985.71047  -4895342.16944  23599525.0234                   23599526.1054
 -52161259.84448 -40632578.14146  19973988.7274                   19973988.0164
 -36027607.33447 -28062076.14345  22483816.5314                   22483816.7504
 -31740153.61648 -24716196.12546  21244177.5084                   21244175.1524
 11  7 31  0 29  0.0000000  0  8G09G28G10G17G12G04G27G02
 -25703306.52247 -20012099.78145  22076389.2194                   22076388.9064
 -73697476.04747 -57413532.15944  22721090.1414                   22721090.9574
 -17136473.12347 -14471847.40245  22075767.5634                   22075766.4774
 -62672148.85447 -48799850.36546  21847015.4534                   21847014.1644
  -6494522.40447  -5027448.55244  23567263.3674                   23567263.0554
 -52205813.14248 -40667294.98546  19965510.9144                   19965509.3874
 -36075186.26047 -28099150.67145  22474762.8204                   22474763.7154
 -31866592.67548 -24814720.01246  21220117.2734                   21220115.0634
 11  7 31  0 29 30.0000000  0  8G09G28G10G17G12G04G27G02
 -25754659.85847 -20052115.39745  22066617.4064                   22066617.7544
 -73692415.20047 -57409588.74644  22722053.6254                   22722053.9144
 -17289211.09247 -14590863.93045  22046702.1334                   22046701.8754
 -62708566.26247 -48828227.57346  21840085.6174                   21840084.2814
  -6663939.85647  -5159462.03244  23535023.8674                   23535024.0314
 -52249849.41848 -40701608.95246  19957130.7424                   19957129.5354
 -36122303.54447 -28135865.47145  22465796.3674                   22465797.1214
 -31992628.80348 -24912929.92446  21196132.9614                   21196130.0004
 11  7 31  0 30  0.0000000  0  8G09G28G10G17G12G04G27G02
 -25805392.84947 -20091647.59245  22056962.6804                   22056963.1374
 -73686991.37347 -57405362.42644  22723085.8284                   22723086.1054
 -17441600.25447 -14709608.63945  22017702.8834                   22017704.0124
 -62744863.72447 -48856511.32045  21833178.1564                   21833177.0204
  -6833242.50647  -5291386.08344  23502806.6564                   23502806.9144
 -52293377.21148 -40735526.71047  19948847.7424                   19948846.5984
 -36168967.35847 -28172226.91245  22456916.6094                   22456916.5084
 -32118267.96748 -25010830.50946  21172224.7664                   21172222.5044
 11  7 31  0 30 30.0000000  0  8G09G28G10G17G12G04G27G02
 -25855500.74847 -20130692.74845  22047428.0004                   22047427.7624
 -73681199.23147 -57400849.17344  22724188.2194                   22724188.6644
 -17593630.89647 -14828073.99545  21988772.5784                   21988773.5124
 -62781034.25547 -48884696.16346  21826295.3984                   21826294.4804
  -7002421.68647  -5423213.91244  23470612.2734                   23470612.2544
 -52336391.92748 -40769044.65746  19940662.4144                   19940661.3594
 -36215172.83647 -28208231.23345  22448124.0164                   22448124.5394
 -32243503.26948 -25108416.40446  21148393.2194                   21148390.1254
 11  7 31  0 31  0.0000000  0  8G09G28G10G17G12G04G27G02
 -25904985.22647 -20169252.05845  22038010.9694                   22038012.0274
 -73675039.72747 -57396049.61644  22725360.4614                   22725360.8244
 -17745299.55647 -14946257.29445  21959910.8054                   21959911.2544
 -62817077.44447 -48912781.79046  21819436.4774                   21819435.6844
  -7171474.56347  -5554943.33044  23438443.7114                   23438442.7774
 -52378895.36148 -40802164.20846  19932574.5474                   19932573.7384
 -36260921.45447 -28243879.56145  22439418.8364                   22439419.1994
 -32368334.07748 -25205687.09646  21124638.4384                   21124636.4384
 11  7 31  0 31 30.0000000  0  8G09G28G10G17G12G04G27G02
 -25953855.85347 -20207333.10145  22028711.3444                   22028711.6524
 -73668521.75447 -57390970.75644  22726600.8594                   22726601.3794
 -17896610.82247 -15064162.09845  21931117.5634                   21931117.8204
 -62853000.85347 -48940774.08046  21812600.4064                   21812600.0004
  -7340407.54847  -5686579.30744  23406295.8674                   23406296.6724
 -52420897.19848 -40834892.90146  19924581.5554                   19924580.0554
 -36306222.81147 -28279179.35745  22430798.5704                   22430798.7194
 -32492767.84948 -25302648.41846  21100959.7424                   21100956.9414
 11  7 31  0 32  0.0000000  0  8G09G28G10G17G12G04G27G02
 -24426685.88847 -19017330.55845  22319321.8204                   22319321.9184
 -72086220.01347 -56158008.44044  23027702.7424                   23027702.6174
 -16472129.47247 -13954176.50745  22202187.2664                   22202187.0314
 -61313376.14947 -47741066.53445  22105581.3204                   22105580.4224
  -5933785.61047  -4590510.19644  23673966.5314                   23673967.3364
 -50886970.99848 -39639625.73446  20216478.3054                   20216476.8094
 -34775650.23447 -27086525.45845  22722056.4064                   22722057.0824
 -31041373.72048 -24171691.89546  21377150.4694                   21377148.3524
 11  7 31  0 32 30.0000000  0  8G09G28G10G17G12G04G27G02
 -24474320.53847 -19054448.48745  22310257.6954                   22310258.4414
 -72078975.57247 -56152363.52144  23029080.7424                   23029081.3204
 -16622702.57547 -14071506.09745  22173534.5784                   22173534.1524
 -61349045.71047 -47768861.02045  22098793.7584                   22098792.0124
  -6102458.08947  -4721943.22544  23641870.5554                   23641870.2624
 -50927961.95548 -39671566.74346  20208677.7584                   20208676.5314
 -34820048.65147 -27121121.69745  22713608.3444                   22713609.3364
 -31164999.50748 -24268023.61246  21353625.5164                   21353622.6024
 11  7 31  0 33  0.0000000  0  8G09G28G10G17G12G04G27G02
 -24521345.40847 -19091091.25745  22301309.3984                   22301308.9454
 -72071374.67247 -56146440.83144  23030527.8284                   23030527.8094
 -16772906.80847 -14188548.25445  22144950.7974                   22144950.3874
 -61384592.96648 -47796560.18946  22092029.5084                   22092028.1294
  -6271002.00447  -4853276.03144  23609796.6724                   23609796.8674
 -50968455.60448 -39703120.23246  20200971.8914                   20200970.5514
 -34864003.28547 -27155372.12445  22705243.4924                   22705244.3714
 -31288225.96448 -24364044.16846  21330176.6484                   21330174.0084
 11  7 31  0 33 30.0000000  0  8G09G28G10G17G12G04G27G02
 -24567760.80047 -19127259.09845  22292476.5634                   22292476.6994
 -72063416.97347 -56140240.07444  23032042.1414                   23032042.8244
 -16922737.47847 -14305299.34145  22116438.6484                   22116439.1604
 -61420016.33048 -47824162.83246  22085288.9694                   22085287.5234
  -6439413.74447  -4984505.87444  23577749.5554                   23577749.0744
 -51008452.40048 -39734286.56646  20193361.1724                   20193359.6994
 -34907514.48047 -27189277.01545  22696963.8594                   22696964.6174
 -31411051.06248 -24459751.98746  21306803.6024                   21306800.9964
 11  7 31  0 34  0.0000000  0  8G09G28G10G17G12G04G27G02
 -24613566.35747 -19162951.73545  22283759.6254                   22283759.9694
 -72055101.98547 -56133760.98944  23033624.8754                   23033625.3284
 -17072189.29047 -14421755.19245  22087998.4224                   22087998.4734
 -61455313.51048 -47851667.15645  22078571.1254                   22078570.4304
  -6607689.04147  -5115629.37544  23545727.5474                   23545726.0314
 -51047952.17248 -39765065.61646  20185844.0864                   20185842.9884
 -34950581.87347 -27222836.08845  22688768.4064                   22688768.9574
 -31533472.32848 -24555145.12146  21283507.3834                   21283505.2934
 11  7 31  0 34 30.0000000  0  8G09G28G10G17G12G04G27G02
 -24658765.90647 -19198172.19745  22275159.0864                   22275159.5704
 -72046432.35947 -56127005.50444  23035275.0704                   23035274.8404
 -17221260.55047 -14537914.51445  22059631.8284                   22059631.4534
 -61490485.32348 -47879073.80146  22071878.8364                   22071877.6844
  -6775827.28647  -5246646.10544  23513731.2344                   23513731.2624
 -51086958.71748 -39795460.32846  20178421.4224                   20178420.3984
 -34993208.91947 -27256052.03645  22680657.3674                   22680657.6524
 -31655491.29548 -24650224.79246  21260287.7814                   21260284.8554
 11  7 31  0 35  0.0000000  0  8G09G28G10G17G12G04G27G02
 -24703360.71547 -19232921.42745  22266672.7734                   22266673.0164
 -72037408.48847 -56119973.98044  23036990.6484                   23036991.9454
 -17369947.31547 -14653774.21945  22031337.1094                   22031337.0824
 -61525531.03148 -47906382.17046  22065209.6334                   22065208.9734
  -6943825.18847  -5377553.48045  23481763.2504                   23481762.0354
 -51125473.18548 -39825471.61546  20171092.4844                   20171091.7934
 -35035396.54747 -27288925.57345  22672628.3674                   22672628.8484
 -31777107.13548 -24744990.33246  21237145.2814                   21237142.7894
 11  7 31  0 35 30.0000000  0  9G09G28G10G17G12G05G04G27G02
 -24747356.99647 -19267204.26045  22258300.5634                   22258300.5864
 -72028036.21547 -56112670.99444  23038774.4844                   23038775.6174
 -17518251.10247 -14769335.50545  22003116.1414                   22003115.1684
 -61560455.18347 -47933595.81945  22058564.5084                   22058562.4344
  -7111685.40647  -5508353.55144  23449819.3524                   23449819.1254
   4392881.38516                  24701388.375
 -51163502.27148 -39855104.67046  20163855.5314                   20163855.0824
 -35077151.18647 -27321461.72345  22664683.2034                   22664683.7894
 -31898324.25748 -24839445.17946  21214078.3914                   21214075.4494
 11  7 31  0 36  0.0000000  0  9G09G28G10G17G12G05G04G27G02
 -24790765.25947 -19301028.89945  22250039.9774                   22250041.0594
 -72018324.95847 -56105103.86544  23040622.9064                   23040624.0434
 -17666176.77947 -14884602.17145  21974966.9774                   21974966.4494
 -61595265.35947 -47960720.66145  22051939.8834                   22051938.0944
  -7279413.64947  -5639050.78445  23417902.2664                   23417902.0474
   4214679.546 6                  24667479.023
 -51201056.06448 -39884367.37946  20156709.5704                   20156709.1374
 -35118482.79347 -27353668.24345  22656817.8834                   22656819.2034
 -32019150.29948 -24933595.28246  21191085.4774                   21191083.0044
 11  7 31  0 36 30.0000000  0  9G09G28G10G17G12G05G04G27G02
 -24833588.71747 -19334397.83045  22241891.9774                   22241891.6334
 -72008277.66547 -56097274.87144  23042534.6254                   23042536.2934
 -17813722.50547 -14999572.76045  21946889.6644                   21946890.0314
 -61629962.32247 -47987757.26745  22045336.7504                   22045336.2704
  -7447008.95347  -5769644.42445  23386010.0554                   23386009.6914
   4036414.05945   3165822.28953  24633555.1724                   24633562.6484
 -51238137.78648 -39913262.22446  20149653.0004                   20149652.2584
 -35159394.57647 -27385547.61545  22649032.7814                   22649033.4494
 -32139586.24148 -25027441.42046  21168167.3524                   21168164.8014
 11  7 31  0 37  0.0000000  0  9G09G28G10G17G12G05G04G27G02
 -24875830.62647 -19367313.62845  22233852.3674                   22233853.1524
 -71997896.52847 -56089185.74344  23044510.9144                   23044511.2114
 -17960886.28147 -15114245.73045  21918885.6484                   21918886.1564
 -61664547.26448 -48014706.58945  22038756.4064                   22038754.2664
  -7614470.33547  -5900133.72344  23354143.2114                   23354142.9694
   3858086.06945   3026865.85243  24599622.0474                   24599627.8674
 -51274750.85448 -39941791.89046  20142686.1564                   20142684.8444
 -35199889.69247 -27417102.30945  22641327.0634                   22641327.8794
 -32259633.20048 -25120984.45246  21145322.8834                   21145320.0784
 11  7 31  0 37 30.0000000  0  9G09G28G10G17G12G05G04G27G02
 -24917486.55247 -19399772.82745  22225925.6724                   22225926.3594
 -71987176.43947 -56080832.46244  23046549.8364                   23046551.1844
 -18107658.54247 -15228613.65145  21890954.7814                   21890955.2854
 -61699013.31048 -48041563.25546  22032197.2504                   22032196.1684
  -7781789.35647  -6030512.07345  23322302.6954                   23322302.4494
   3679704.84745   2887867.84042  24565676.1174                   24565681.1454
 -51310890.94848 -39969952.99946  20135808.7584                   20135807.4454
 -35239963.43247 -27448328.67345  22633701.5234                   22633701.2894
 -32379284.70848 -25214219.34546  21122554.5554                   21122551.4804
 11  7 31  0 38  0.0000000  0  9G09G28G10G17G12G05G04G27G02
 -24958552.89747 -19431772.60845  22218111.2734                   22218112.6334
 -71976112.88446 -56072211.58944  23048655.5394                   23048657.8134
 -18254030.18147 -15342669.38445  21863101.5004                   21863101.5164
 -61733354.25448 -48068322.44545  22025662.4694                   22025661.2544
  -7948957.29947  -6160772.70745  23290492.3754                   23290492.3244
   3501278.67545   2748834.89542  24531721.8284                   24531727.3134
 -51346554.28048 -39997742.61246  20129022.3914                   20129021.4144
 -35279612.10147 -27479223.78545  22626155.9224                   22626156.9494
 -32498534.81248 -25307141.44946  21099861.8594                   21099858.9654
 11  7 31  0 38 30.0000000  0  9G09G28G10G17G12G05G04G27G02
 -24999035.99347 -19463317.89645  22210407.3594                   22210407.9104
 -71964711.45446 -56063327.46144  23050825.0864                   23050826.2704
 -18400002.52247 -15456413.96245  21835323.7664                   21835324.3674
 -61767574.00648 -48094987.21746  22019150.5164                   22019149.9494
  -8115976.52047  -6290917.46845  23258709.2424                   23258709.1724
   3322805.68945   2609765.27342  24497759.5944                   24497764.3754
 -51381747.00848 -40025165.52247  20122325.6644                   20122324.5314
 -35318841.80247 -27509792.43745  22618691.0474                   22618692.5234
 -32617387.52348 -25399753.90246  21077244.9304                   21077241.9384
 11  7 31  0 39  0.0000000  0  9G09G28G10G17G12G05G04G27G02
 -25038930.62947 -19494404.66145  22202816.3134                   22202816.8984
 -71952966.22247 -56054175.36244  23053060.8134                   23053060.7034
 -18545564.59148 -15569838.86345  21807623.9224                   21807624.7704
 -61801664.64248 -48121551.35745  22012663.0944                   22012661.7544
  -8282836.94047  -6420938.46244  23226957.0084                   23226956.1604
   3144296.19346   2470667.34643  24463790.6644                   24463793.7424
 -51416463.77348 -40052217.54046  20115719.0864                   20115717.8594
 -35357646.76146 -27540030.11145  22611306.7584                   22611308.4534
 -32735834.92448 -25492050.51346  21054705.0634                   21054702.1524
 11  7 31  0 39 30.0000000  0  9G09G28G10G17G12G05G04G27G02
 -25078240.74547 -19525035.97345  22195335.0554                   22195335.9454
 -71940880.31347 -56044757.82044  23055360.4614                   23055361.1954
 -18690715.27047 -15682943.21045  21780003.1414                   21780003.2734
 -61835627.85747 -48148016.19645  22006200.4304                   22006198.9734
  -8449538.37047  -6550835.63244  23195234.0164                   23195233.6914
   2965751.07346   2331541.66443  24429813.7504                   24429818.1564
 -51450708.60048 -40078901.82446  20109202.3444                   20109200.7934
 -35396030.94447 -27569939.91945  22604003.0944                   22604003.8404
 -32853878.88248 -25584032.77146  21032241.8984                   21032239.4224
 11  7 31  0 40  0.0000000  0  9G09G28G10G17G12G05G04G27G02
 -25116968.36947 -19555213.37845  22187966.0944                   22187967.2114
 -71928454.91047 -56035075.75944  23057724.8674                   23057724.8164
 -18835451.16947 -15795724.35245  21752459.9384                   21752460.7504
 -61869463.25447 -48174381.46645  21999761.6484                   21999761.0864
  -8616078.25347  -6680606.87445  23163543.0394                   23163542.0084
   2787172.87546   2192390.14943  24395829.9694                   24395836.9344
 -51484483.59448 -40105220.00346  20102775.2734                   20102774.3524
 -35433996.23847 -27599523.31945  22596778.1644                   22596778.9304
 -32971519.26548 -25675700.55246  21009855.8984                   21009853.0314
 11  7 31  0 40 30.0000000  0  9G09G28G10G17G12G05G04G27G02
 -25155120.08447 -19584942.05945  22180706.1024                   22180707.0474
 -71915695.77147 -56025133.63744  23060153.6414                   23060154.3204
 -18979773.60947 -15908183.31245  21724996.8054                   21724997.2424
 -61903174.70247 -48200650.14645  21993346.7344                   21993345.7424
  -8782458.68247  -6810253.88544  23131881.3834                   23131880.7734
   2608559.92145   2053211.52843  24361841.8834                   24361847.4414
 -51517795.19748 -40131177.10246  20096436.2114                   20096435.2234
 -35471548.81747 -27628785.09745  22589632.1884                   22589633.7504
 -33088760.04548 -25767056.95446  20987545.3204                   20987542.6884
 11  7 31  0 41  0.0000000  0  9G09G28G10G17G12G05G04G27G02
 -25192694.75147 -19614221.08345  22173555.7194                   22173556.3834
 -71902600.78747 -56014929.81344  23062645.3674                   23062645.7584
 -19123675.90247 -16020314.87645  21697613.2584                   21697613.0784
 -61936758.18747 -48226819.09345  21986956.3594                   21986955.1524
  -8948673.59847  -6939771.94345  23100252.1564                   23100251.3554
   2429918.14245   1914010.51242  24327846.6484                   24327853.1804
 -51550641.96548 -40156771.99046  20090185.7114                   20090183.8754
 -35508686.94047 -27657723.90745  22582564.3984                   22582565.5234
 -33205597.59448 -25858099.14946  20965312.1484                   20965308.9104
 11  7 31  0 41 30.0000000  0  9G09G28G10G17G12G05G04G27G02
 -25229692.96447 -19643050.89745  22166515.2504                   22166515.9264
 -71889169.74247 -56004464.15144  23065201.5634                   23065201.9104
 -19267153.59847 -16132115.60845  21670310.2034                   21670309.8914
 -61970211.72748 -48252886.80246  21980590.5944                   21980589.4494
  -9114719.32947  -7069158.15544  23068654.6484                   23068653.5164
   2251251.80245   1774790.23842  24293848.0474                   24293852.1134
 -51583024.28148 -40182004.96546  20084023.6414                   20084022.7114
 -35545411.27547 -27686340.32745  22575576.8674                   22575577.9344
 -33322030.43448 -25948825.99346  20943155.3524                   20943152.9694
 11  7 31  0 42  0.0000000  0  9G09G28G10G17G12G05G04G27G02
 -25266113.02947 -19671430.23445  22159584.7584                   22159585.6094
 -71875400.30647 -55993734.75644  23067821.7584                   23067822.2894
 -19410199.52247 -16243579.87845  21643090.0164                   21643088.9494
 -62003531.17047 -48278850.03746  21974249.6024                   21974249.0824
  -9280589.43747  -7198407.52944  23037090.6484                   23037089.6024
   2072567.63346   1635556.13543  24259845.3914                   24259849.3164
 -51614940.53548 -40206874.77446  20077950.1804                   20077948.9414
 -35581719.78947 -27714632.70045  22568667.7424                   22568668.1994
 -33438054.66048 -26039234.43246  20921076.8524                   20921074.3524
 11  7 31  0 42 30.0000000  0  9G09G28G10G17G12G05G04G27G02
 -23726538.89547 -18471762.13745  22452555.8594                   22452557.0004
 -70285876.57147 -54755144.91144  23370297.1484                   23370297.7734
 -17977388.52648 -15127103.69445  21915744.3204                   21915743.9224
 -60461297.36047 -47077109.42146  22267726.8204                   22267725.5514
  -7870858.33247  -6099915.72544  23305353.0314                   23305353.1374
   3469291.63546   2723912.80843  24525633.3444                   24525637.1174
 -50070974.54248 -39003784.38346  20371757.0394                   20371756.0514
 -34042196.09047 -26515003.86244  22861629.5554                   22861630.1094
 -31978249.00148 -24901723.48646  21198868.5084                   21198865.5234
 11  7 31  0 43  0.0000000  0  9G09G28G10G17G12G05G04G27G02
 -23761811.51447 -18499247.37645  22445843.8834                   22445844.1604
 -70271435.69447 -54743892.36744  23373045.4694                   23373046.8834
 -18119563.15548 -15237889.03545  21888690.0394                   21888688.8874
 -60494349.07047 -47102864.02345  22261437.2974                   22261435.7464
  -8036371.46947  -6228886.95345  23273857.2974                   23273856.8874
   3290578.18146   2584655.88343  24491624.7504                   24491629.2734
 -50101966.77448 -39027934.17646  20365859.6094                   20365858.5824
 -34077680.98647 -26542654.47444  22854876.0004                   22854877.5554
 -32093457.33348 -24991496.17646  21176945.0164                   21176942.2154
 11  7 31  0 43 30.0000000  0  9G09G28G10G17G12G05G04G27G02
 -23796514.84347 -18526288.99545  22439240.3984                   22439240.9694
 -70256662.62146 -54732380.93344  23375857.2504                   23375858.5864
 -18261298.47548 -15348332.06545  21861718.9454                   21861716.8794
 -60527267.24247 -47128514.56545  22255173.0784                   22255172.3634
  -8201703.65247  -6357717.17745  23242395.8984                   23242395.2974
   3111853.10846   2445389.79243  24457614.3754                   24457618.9804
 -50132501.11248 -39051727.16246  20360049.1804                   20360047.7664
 -34112758.06847 -26569987.30245  22848201.7974                   22848202.6644
 -32208258.44348 -25080951.54646  21155099.1094                   21155096.1254
 11  7 31  0 44  0.0000000  0  9G09G28G10G17G12G05G04G27G02
 -23830646.66547 -18552885.28845  22432745.1644                   22432745.7624
 -70241553.94646 -54720608.04344  23378732.1334                   23378733.4494
 -18402587.11147 -15458427.04145  21834831.3134                   21834831.0044
 -60560046.91947 -47154057.19145  22248935.3914                   22248934.2464
  -8366848.31247  -6486401.29445  23210969.5234                   23210968.6174
   2933123.46246   2306120.19043  24423603.2194                   24423607.5004
 -50162575.29648 -39075161.59246  20354326.3674                   20354324.8014
 -34147424.99147 -26597000.51944  22841604.3914                   22841605.8404
 -32322647.84348 -25170086.11246  21133331.7584                   21133328.0354
 11  7 31  0 44 30.0000000  0  9G09G28G10G17G12G05G04G27G02
 -23864217.71747 -18579044.61545  22426356.7734                   22426357.3834
 -70226119.92546 -54708581.60244  23381668.8594                   23381669.9184
 -18543433.67847 -15568177.53445  21808029.5314                   21808029.3444
 -60592695.48447 -47179497.65145  22242722.6094                   22242721.7894
  -8531810.69147  -6614943.35445  23179578.1174                   23179577.9344
   2754383.88346   2166842.90244  24389589.7974                   24389595.0274
 -50192199.69748 -39098245.52946  20348688.2664                   20348687.6294
 -34181691.99747 -26623702.11245  22835083.9774                   22835084.6524
 -32436633.64448 -25258906.18246  21111640.6884                   21111637.7384
 11  7 31  0 45  0.0000000  0  9G09G28G10G17G12G05G04G27G02
 -23897224.74247 -18604764.44045  22420075.7734                   22420076.5864
 -70210355.89746 -54696298.07244  23384669.2194                   23384669.7934
 -18683829.96347 -15677577.15845  21781313.0634                   21781311.9614
 -60625207.74947 -47204831.92145  22236535.6564                   22236534.6954
  -8696582.94747  -6743337.29245  23148223.3204                   23148222.8164
   2575642.64746   2027564.28544  24355576.2664                   24355580.3404
 -50221370.91848 -39120976.36346  20343138.0704                   20343136.5864
 -34215555.59246 -26650089.37645  22828640.1564                   22828640.5634
 -32550210.55348 -25347407.64646  21090027.8134                   21090024.6914
 11  7 31  0 45 30.0000000  0  9G09G28G10G17G12G05G04G27G02
 -23929673.07347 -18630048.92645  22413901.7894                   22413902.0594
 -70194266.26246 -54683760.74444  23387730.5004                   23387731.9384
 -18823775.92648 -15786625.88545  21754681.7974                   21754681.3134
 -60657585.61947 -47230061.44245  22230374.6644                   22230373.5944
  -8861165.70347  -6871583.55845  23116904.1174                   23116903.6884
   2396899.32446   1888284.11344  24321562.2034                   24321566.6764
 -50250094.02348 -39143357.99746  20337671.6954                   20337670.4104
 -34249020.55446 -26676166.03145  22822271.4534                   22822272.9064
 -32663381.29048 -25435592.58546  21068491.8134                   21068488.7074
 11  7 31  0 46  0.0000000  0  9G09G28G10G17G12G05G04G27G02
 -23961561.08947 -18654896.77445  22407833.5004                   22407833.6994
 -70177848.54746 -54670967.79543  23390854.8524                   23390856.4774
 -18963264.47447 -15895318.17445  21728137.6724                   21728137.2384
 -60689824.93748 -47255182.99745  22224239.7664                   22224238.2544
  -9025552.49547  -6999677.09445  23085622.0864                   23085621.3874
   2218160.90646   1749007.73343  24287548.1804                   24287553.0274
 -50278367.21048 -39165389.05446  20332291.6414                   20332290.2894
 -34282085.15047 -26701930.71245  22815980.4844                   22815980.3794
 -32776141.73948 -25523457.84446  21047034.5084                   21047031.2774
 11  7 31  0 46 30.0000000  0  9G09G28G10G17G12G05G04G27G02
 -23992898.47047 -18679315.56345  22401869.9064                   22401871.0514
 -70161111.64546 -54657926.17943  23394041.0394                   23394040.7544
 -19102299.82347 -16003657.33245  21701680.1954                   21701680.2544
 -60721932.35548 -47280201.77945  22218130.0784                   22218129.2194
  -9189747.86847  -7127621.50545  23054377.1564                   23054376.2974
   2039422.84446   1609731.65043  24253536.2274                   24253540.2734
 -50306199.85248 -39187076.82546  20326995.3674                   20326994.0864
 -34314758.74347 -26727390.69145  22809762.2034                   22809762.7664
 -32888499.14648 -25611009.03646  21025653.4614                   21025650.4064
 11  7 31  0 47  0.0000000  0  9G09G28G10G17G12G05G04G27G02
 -24023685.84747 -18703305.79345  22396011.0234                   22396012.1844
 -70144054.81946 -54644635.19943  23397286.0944                   23397285.6294
 -19240876.73147 -16111639.26845  21675310.0944                   21675309.6954
 -60753905.68947 -47305116.10445  22212045.2504                   22212044.7384
  -9353747.71947  -7255413.56745  23023169.1254                   23023167.2624
   1860689.82646   1470459.39543  24219524.1954                   24219528.4064
 -50333592.19348 -39208421.52246  20321782.7814                   20321781.5124
 -34347041.43147 -26752546.10045  22803618.8134                   22803619.8674
 -33000451.47448 -25698244.60746  21004349.7424                   21004346.4534
 11  7 31  0 47 30.0000000  0  9G09G28G10G17G12G05G04G27G02
 -24053926.56847 -18726870.04645  22390256.3364                   22390257.4184
 -70126680.98746 -54631097.18443  23400592.3524                   23400592.0084
 -19378993.53847 -16219262.69645  21649026.7274                   21649027.0204
 -60785745.07347 -47329926.06245  22205987.0234                   22205985.7894
  -9517550.41747  -7383051.97445  22991997.9454                   22991996.4654
   1681963.63346   1331192.63043  24185512.3284                   24185516.2854
 -50360547.41548 -39229425.60046  20316653.2814                   20316651.9574
 -34378936.37547 -26777399.34945  22797550.1564                   22797551.3754
 -33111999.97348 -25785165.47946  20983122.3674                   20983119.2774
 11  7 31  0 48  0.0000000  0  9G09G28G10G17G12G05G04G27G02
 -24083621.54147 -18750009.03345  22384606.2504                   22384606.5314
 -70108989.91246 -54617312.06344  23403958.8594                   23403960.0904
 -19516645.25947 -16326523.71445  21622832.4304                   21622832.2034
 -60817448.14048 -47354629.76445  22199954.3204                   22199953.1724
  -9681151.75047  -7510533.45845  22960865.4694                   22960864.6644
   1503248.84846   1191934.64943  24151504.6094                   24151507.6524
 -50387065.91348 -39250089.37446  20311607.0704                   20311606.2464
 -34410443.98147 -26801950.78945  22791554.5314                   22791554.8054
 -33223142.67548 -25871770.16146  20961972.6564                   20961969.8134
 11  7 31  0 48 30.0000000  0  9G09G28G10G17G12G05G04G27G02
 -24112773.09247 -18772724.58045  22379058.9224                   22379059.3244
 -70090982.80047 -54603280.64844  23407386.0394                   23407386.6604
 -19653828.69948 -16433419.81345  21596727.6484                   21596726.4804
 -60849014.89548 -47379227.26845  22193947.6174                   22193945.4574
  -9844549.35247  -7637856.22845  22929771.7664                   22929771.0124
   1324548.32446   1052687.77443  24117499.4454                   24117501.8794
 -50413149.86448 -39270414.54646  20306643.3204                   20306642.0124
 -34441566.09647 -26826201.87245  22785632.0944                   22785633.2624
 -33333879.79348 -25958058.79646  20940900.4534                   20940897.3134
 11  7 31  0 49  0.0000000  0  9G09G28G10G17G12G05G04G27G02
 -24141384.78847 -18795019.45945  22373614.2584                   22373614.8874
 -70072662.17447 -54589004.95244  23410871.6484                   23410872.1214
 -19790542.08947 -16539949.67645  21570711.6564                   21570711.7774
 -60880445.78848 -47403718.86245  22187966.0474                   22187964.7504
 -10007741.49447  -7765018.85545  22898717.1884                   22898716.8284
   1145863.28046    913452.96143  24083496.2034                   24083499.2464
 -50438802.57648 -39290403.67446  20301761.4924                   20301760.2424
 -34472306.22147 -26850155.30745  22779782.2814                   22779783.6024
 -33444212.38148 -26044032.21346  20919904.4224                   20919901.8594
 11  7 31  0 49 30.0000000  0  9G09G28G10G17G12G05G04G27G02
 -24169456.77947 -18816893.76545  22368272.3984                   22368271.8914
 -70054027.51746 -54574484.50043  23414417.8594                   23414418.7504
 -19926780.30047 -16646109.24545  21544786.6884                   21544786.3714
 -60911737.76047 -47428102.21945  22182011.5314                   22182009.8204
 -10170723.48547  -7892017.74445  22867702.6174                   22867702.1054
    967199.19146    774234.46043  24049497.2974                   24049501.6564
 -50464023.71248 -39310056.52346  20296962.4774                   20296961.8324
 -34502664.10846 -26873810.85445  22774005.2114                   22774005.7114
 -33554138.15748 -26129688.63346  20898986.4694                   20898983.3754
 11  7 31  0 50  0.0000000  0  9G09G28G10G17G12G05G04G27G02
 -24196992.67447 -18838350.37045  22363032.5784                   22363033.2814
 -70035080.99946 -54559721.11043  23418023.4534                   23418024.8164
 -20062541.05047 -16751896.76945  21518951.8444                   21518950.8524
 -60942891.21147 -47452377.64345  22176082.9384                   22176081.9534
 -10333493.65947  -8018851.57745  22836728.9614                   22836727.6414
    788558.25246    635033.99444  24015503.2734                   24015507.0434
 -50488816.73348 -39329375.77146  20292244.3524                   20292243.7504
 -34532642.59347 -26897170.76445  22768301.0704                   22768301.6454
 -33663658.20648 -26215028.89846  20878145.6254                   20878142.1914
 11  7 31  0 50 30.0000000  0  9G09G28G10G17G12G05G04G27G02
 -24223993.01147 -18859389.62745  22357894.7424                   22357895.9224
 -70015822.33546 -54544714.46844  23421688.7274                   23421690.3244
 -20197819.20947 -16857308.25545  21493209.6414                   21493209.0744
 -60973903.95547 -47476543.44145  22170181.4694                   22170180.9344
 -10496047.52147  -8145516.86245  22805795.6254                   22805794.6174
    609945.24246    495855.30144  23981513.7894                   23981517.5434
 -50513181.57948 -39348361.38846  20287607.9144                   20287607.0784
 -34562242.31447 -26920235.55345  22762668.2814                   22762669.1844
 -33772770.58248 -26300051.48846  20857382.0944                   20857379.0634
 11  7 31  0 51  0.0000000  0  9G09G28G10G17G12G05G04G27G02
 -24250460.72747 -18880013.84645  22352857.6174                   22352858.2304
 -69996253.39546 -54529466.08343  23425411.7344                   23425413.6484
 -20332612.40447 -16962341.85045  21467558.5944                   21467557.8554
 -61004775.60447 -47500599.27845  22164306.9064                   22164306.0864
 -10658383.21047  -8272012.13145  22774904.2814                   22774903.4844
    431362.31646    356700.04244  23947530.5234                   23947534.8054
 -50537121.06048 -39367015.53546  20283052.4144                   20283051.3284
 -34591465.65747 -26943007.07445  22757107.3054                   22757108.4694
 -33881475.39748 -26384756.51546  20836695.8054                   20836692.7774
 11  7 31  0 51 30.0000000  0  9G09G28G10G17G12G05G04G27G02
 -24276399.98347 -18900226.30045  22347921.5474                   22347922.7704
 -69976377.46946 -54513978.46643  23429193.8364                   23429195.7664
 -20466919.27847 -17066996.48545  21442001.5004                   21442000.5314
 -61035507.04147 -47524545.88345  22158458.9694                   22158457.7034
 -10820499.33647  -8398336.32845  22744054.3204                   22744053.5394
    252810.76346    217569.28344  23913552.7114                   23913556.1684
 -50560638.52548 -39385340.84246  20278577.2344                   20278575.8014
 -34620316.35547 -26965488.23644  22751616.6804                   22751618.1764
 -33989774.61748 -26469145.48946  20816087.7814                   20816084.5634
 11  7 31  0 52  0.0000000  0  9G09G28G10G17G12G05G04G27G02
 -24301813.71847 -18920029.25345  22343086.2274                   22343087.3014
 -69956196.39346 -54498253.05543  23433035.0084                   23433035.2114
 -20600737.44647 -17171270.32745  21416536.2974                   21416534.7774
 -61066098.38848 -47548383.29445  22152637.4534                   22152636.4494
 -10982393.78247  -8524487.78845  22713247.2664                   22713246.2504
     74292.97846     78464.75944  23879581.9924                   23879585.1454
 -50583736.93848 -39403339.62046  20274181.7034                   20274180.7344
 -34648796.76647 -26987680.82644  22746197.4774                   22746199.1174
 -34097668.43548 -26553218.55346  20795555.9064                   20795552.8594
 11  7 31  0 52 30.0000000  0  9G09G28G10G17G12G05G04G27G02
 -24326702.98247 -18939423.53945  22338349.4224                   22338350.1484
 -69935709.53846 -54482289.36043  23436933.5394                   23436934.4104
 -20734061.76547 -17275159.34345  21391165.8754                   21391165.3834
 -61096546.89747 -47572109.43445  22146842.9064                   22146841.8484
 -11144062.01947  -8650462.97645  22682482.7504                   22682481.2114
   -104186.06146    -60609.51444  23845617.8054                   23845621.3164
 -50606416.21148 -39421011.80246  20269866.2504                   20269864.8594
 -34676907.28547 -27009585.21445  22740848.7584                   22740849.1764
 -34205155.28548 -26636974.49946  20775102.1334                   20775099.0784
 11  7 31  0 53  0.0000000  0  9G09G28G10G17G12G05G04G27G02
 -24351067.44847 -18958408.89945  22333712.9144                   22333714.3524
 -69914916.34946 -54466087.01643  23440890.4534                   23440890.7814
 -20866886.59047 -17378659.14045  21365890.0704                   21365890.0084
 -61126849.39547 -47595721.78045  22141075.7424                   22141075.3874
 -11305499.14647  -8776258.06545  22651761.6254                   22651760.7034
   -282620.85046   -199649.33844  23811662.5234                   23811666.4414
 -50628676.33348 -39438357.35046  20265630.1644                   20265628.7074
 -34704647.62547 -27031201.11545  22735569.8284                   22735570.9924
 -34312232.74348 -26720411.45446  20754725.5314                   20754722.5274
 11  7 31  0 53 30.0000000  0  9G09G28G10G17G12G05G04G27G02
 -22799492.89447 -17749389.80445  22628968.1564                   22628968.3714
 -68318403.00346 -53222050.80243  23744697.2274                   23744698.5274
 -19423788.86048 -16254167.34146  21640502.8674                   21640502.0434
 -59581588.47447 -46391622.39645  22435130.3984                   22435129.5474
  -9891280.66347  -7674269.62645  22920878.9384                   22920878.0354
   1114413.58946    888949.16644  24077508.9694                   24077512.6374
 -49075102.33848 -38227780.22746  20561265.0474                   20561263.9064
 -33156602.88747 -25824932.57344  23030153.1334                   23030153.6604
 -32843480.81248 -25575929.39446  21034220.1094                   21034216.7234
 11  7 31  0 54  0.0000000  0  9G09G28G10G17G12G05G04G27G02
 -22822824.51247 -17767570.33745  22624528.3754                   22624528.8914
 -68297010.25646 -53205381.25943  23748768.6334                   23748769.4734
 -19555615.22147 -16356889.11345  21615416.2194                   21615415.8164
 -59611606.36748 -46415012.97545  22429417.9924                   22429417.3554
 -10052255.82547  -7799704.73545  22890246.2194                   22890245.5514
    936067.57546    749978.51944  24043570.8134                   24043574.7234
 -49096538.80548 -38244483.99246  20557186.1804                   20557185.2344
 -33183617.91147 -25845983.30245  23025012.4844                   23025013.6954
 -32949747.66748 -25658734.70046  21013997.8204                   21013994.8094
 11  7 31  0 54 30.0000000  0  9G09G28G10G17G12G05G04G27G02
 -22845644.12646 -17785351.89045  22620185.8834                   22620186.6174
 -68275320.62046 -53188480.31243  23752895.4144                   23752896.2734
 -19686938.40247 -16459218.81145  21590426.9614                   21590425.9344
 -59641481.03848 -46438291.95146  22423733.3524                   22423732.4454
 -10212996.76347  -7924957.39045  22859658.6564                   22859657.8634
    757769.56447    611045.27644  24009642.5474                   24009645.5354
 -49117567.23948 -38260869.80546  20553184.6564                   20553183.2624
 -33210274.00247 -25866754.39244  23019939.9614                   23019941.3754
 -33055610.18448 -25741224.94246  20993852.7424                   20993849.7194
 11  7 31  0 55  0.0000000  0  9G09G28G10G17G12G05G04G27G02
 -22867953.46547 -17802735.86245  22615941.0084                   22615941.4734
 -68253334.70846 -53171348.57243  23757079.3204                   23757080.8954
 -19817754.77747 -16561153.61345  21565532.3594                   21565532.3984
 -59671211.58248 -46461458.62845  22418075.5394                   22418075.0704
 -10373499.95547  -8050024.74745  22829115.9614                   22829115.1994
    579523.51447    472152.45444  23975723.3674                   23975725.9184
 -49138189.04848 -38276938.76446  20549260.3134                   20549259.3014
 -33236572.63347 -25887246.91044  23014935.8364                   23014936.4024
 -33161067.71448 -25823399.60346  20973785.2274                   20973782.0864
 11  7 31  0 55 30.0000000  0  9G09G28G10G17G12G05G04G27G02
 -22889755.79647 -17819724.72645  22611791.4924                   22611792.8594
 -68231054.65646 -53153987.61243  23761319.8364                   23761320.0354
 -19948061.80547 -16662691.49945  21540736.2894                   21540735.6844
 -59700797.91747 -46484512.94145  22412445.2894                   22412444.5474
 -10533763.19547  -8174905.14745  22798618.6564                   22798617.7304
    401331.71047    333301.92644  23941814.2194                   23941816.2934
 -49158406.95348 -38292692.99146  20545413.1484                   20545412.0434
 -33262516.54047 -25907463.02744  23009998.5474                   23010000.3444
 -33266120.71748 -25905259.04846  20953794.1724                   20953791.0394
 11  7 31  0 56  0.0000000  0  9G09G28G10G17G12G05G04G27G02
 -22911048.81347 -17836316.73545  22607739.9924                   22607740.9534
 -68208477.06046 -53136394.80443  23765616.0634                   23765616.3754
 -20077851.49847 -16763826.27745  21516038.1414                   21516037.0394
 -59730234.16947 -46507450.29745  22406843.6024                   22406842.8594
 -10693778.80347  -8299592.58545  22768168.3524                   22768167.2774
    223202.46147    194500.09344  23907917.1024                   23907919.3714
 -49178217.99648 -38308130.18046  20541643.1884                   20541642.5474
 -33288102.86947 -25927400.49945  23005129.8594                   23005130.7934
 -33370764.24048 -25986799.42846  20933880.8674                   20933878.0004
 11  7 31  0 56 30.0000000  0  9G09G28G10G17G12G05G04G27G02
 -22931841.95647 -17852519.24645  22603783.1254                   22603784.0554
 -68185610.11346 -53118576.54743  23769968.2274                   23769969.5904
 -20207127.90748 -16864561.09445  21491437.9384                   21491437.0594
 -59759526.20847 -46530275.26745  22401269.8834                   22401268.3524
 -10853550.63847  -8424090.08045  22737764.8984                   22737764.0594
     45131.77747     55743.95244  23874031.2194                   23874033.6954
 -49197631.04048 -38323257.26046  20537948.7974                   20537948.7194
 -33313340.67847 -25947066.39644  23000326.7734                   23000328.0204
 -33475005.15448 -26068026.07946  20914044.4694                   20914041.2504
 11  7 31  0 57  0.0000000  0  9G09G28G10G17G12G05G04G27G02
 -22952139.53947 -17868335.60344  22599920.4614                   22599921.2814
 -68162456.70046 -53100535.05343  23774372.7734                   23774375.3134
 -20335889.53247 -16964894.75745  21466934.6954                   21466934.5594
 -59788674.70147 -46552988.40045  22395723.2734                   22395722.3444
 -11013077.74547  -8548396.86845  22707407.5634                   22707407.0554
   -132878.72747    -82965.30544  23840156.5704                   23840158.6454
 -49216649.69148 -38338077.01346  20534330.4924                   20534328.4614
 -33338233.34947 -25966463.39645  22995590.5084                   22995591.1724
 -33578844.97848 -26148940.20146  20894284.2814                   20894281.4264
 11  7 31  0 57 30.0000000  0  9G09G28G10G17G12G05G04G27G02
 -22971943.56547 -17883767.38045  22596152.2584                   22596153.5474
 -68139018.23546 -53082271.47443  23778833.2664                   23778835.8094
 -20464132.76947 -17064824.51245  21442531.6024                   21442530.7584
 -59817679.26947 -46575589.38645  22390203.9534                   22390202.3714
 -11172356.91247  -8672510.45545  22677098.0704                   22677096.6564
   -310825.26247   -221624.72544  23806294.2424                   23806296.7624
 -49235275.67748 -38352590.79046  20530785.4924                   20530784.6454
 -33362782.82547 -25985592.92844  22990918.5084                   22990920.3364
 -33682283.50348 -26229541.62846  20874600.9694                   20874597.6684
 11  7 31  0 58  0.0000000  0  9G09G28G10G17G12G05G04G27G02
 -22991250.31846 -17898811.65345  22592478.0864                   22592478.0474
 -68115290.03646 -53063782.09943  23783349.1564                   23783350.8754
 -20591848.87147 -17164343.50846  21418228.1954                   21418226.8444
 -59846532.02947 -46598072.07645  22384713.9454                   22384712.4104
 -11331379.00747  -8796423.71745  22646837.0394                   22646836.4224
   -488699.07347   -360227.43744  23772445.2114                   23772449.0354
 -49253504.70248 -38366795.24846  20527316.6884                   20527315.5164
 -33386984.97547 -26004451.80244  22986313.3134                   22986314.1764
 -33785314.49948 -26309825.48146  20854994.7424                   20854991.1454
 11  7 31  0 58 30.0000000  0  9G09G28G10G17G12G05G04G27G02
 -23010070.73447 -17913476.95145  22588896.4454                   22588897.8204
 -68091281.88346 -53045074.55243  23787918.3284                   23787919.0634
 -20719043.07047 -17263455.78345  21394022.9304                   21394021.8674
 -59875241.19147 -46620442.89345  22379250.1024                   22379249.3204
 -11490149.53347  -8920140.96045  22616624.0554                   22616623.5784
   -666505.04846   -498777.29344  23738610.4614                   23738613.7424
 -49271347.21848 -38380698.52046  20523921.0394                   20523920.0044
 -33410850.30747 -26023048.25844  22981772.3834                   22981772.8554
 -33887946.01848 -26389798.07246  20835464.5704                   20835461.5274
 11  7 31  0 59  0.0000000  0  9G09G28G10G17G12G05G04G27G02
 -23028405.46847 -17927763.84545  22585407.9304                   22585408.8094
 -68066992.85746 -53026148.16943  23792539.8524                   23792541.5084
 -20845710.08647 -17362157.32545  21369919.2504                   21369918.2934
 -59903803.60147 -46642699.35945  22373814.6804                   22373814.6604
 -11648663.69447  -9043658.44245  22586459.9304                   22586458.9104
   -844238.05747   -637270.28044  23704789.3284                   23704792.0594
 -49288803.19948 -38394300.61346  20520599.2814                   20520599.0594
 -33434378.77447 -26041382.21944  22977294.5864                   22977295.6844
 -33990176.39248 -26469458.07646  20816010.6254                   20816007.7544
 11  7 31  0 59 30.0000000  0  9G09G28G10G17G12G05G04G27G02
 -23046253.04847 -17941671.09845  22582011.7974                   22582013.1604
 -68042420.28246 -53007000.81043  23797216.1254                   23797216.4964
 -20971843.12748 -17460442.74845  21345916.7664                   21345916.0044
 -59932214.26047 -46664837.54645  22368408.1724                   22368407.9534
 -11806913.85747  -9166970.20545  22556345.1644                   22556344.4344
  -1021890.58647   -775700.57544  23670982.6954                   23670985.3324
 -49305870.35648 -38407599.71546  20517352.2274                   20517350.9574
 -33457568.38447 -26059452.11744  22972881.6564                   22972882.4694
 -34092001.36348 -26548802.18546  20796634.2974                   20796630.9144
 11  7 31  1  0  0.0000000  0  9G09G28G10G17G12G05G04G27G02
 -23063617.13047 -17955201.62745  22578707.4774                   22578708.6214
 -68017567.15646 -52987634.85143  23801945.4534                   23801946.3984
 -21097440.30848 -17558310.64345  21322016.2814                   21322015.8634
 -59960473.20047 -46686857.51045  22363031.5314                   22363029.6914
 -11964899.20647  -9290075.60845  22526282.4144                   22526281.0864
  -1199460.58747   -914066.58444  23637191.6804                   23637194.6094
 -49322552.04948 -38420598.45246  20514177.4064                   20514176.5944
 -33480422.36247 -26077260.48544  22968533.0474                   22968534.4694
 -34193422.17748 -26627831.36846  20777334.6564                   20777331.3134
 11  7 31  1  0 30.0000000  0  9G09G28G10G17G12G05G04G27G02
 -23080502.17747 -17968358.83345  22575494.2584                   22575495.2304
 -67992436.73746 -52968052.80143  23806727.6804                   23806729.1024
 -21222501.08347 -17655760.52546  21298218.0864                   21298216.7624
 -59988581.62147 -46708760.17945  22357682.0634                   22357681.2274
 -12122618.57147  -9412973.75245  22496269.1254                   22496268.2814
  -1376946.71547  -1052367.21444  23603418.1414                   23603419.8524
 -49338852.01648 -38433299.74446  20511075.5864                   20511074.9344
 -33502944.96247 -26094810.66644  22964247.3984                   22964248.1024
 -34294440.70948 -26706547.07546  20758110.7814                   20758108.1094
 11  7 31  1  1  0.0000000  0  9G09G28G10G17G12G05G04G27G02
 -23096912.32046 -17981146.03944  22572372.0944                   22572372.7894
 -67967031.82846 -52948256.89843  23811561.7974                   23811563.8134
 -21347023.51248 -17752790.96145  21274521.9774                   21274521.7074
 -60016540.48648 -46730546.32045  22352362.0474                   22352361.5864
 -12280070.26747  -9535663.31445  22466306.7664                   22466306.2624
  -1554347.31947  -1190601.24144  23569659.5004                   23569660.9184
 -49354773.73948 -38445706.27946  20508046.0314                   20508044.7154
 -33525139.61847 -26112105.27144  22960023.4144                   22960024.4184
 -34395058.64448 -26784950.63146  20738964.2034                   20738960.7154
 11  7 31  1  1 30.0000000  0  9G09G28G10G17G12G05G04G27G02
 -23112854.20746 -17993568.36644  22569337.9924                   22569338.7274
 -67941358.33646 -52928251.66743  23816447.3914                   23816449.8834
 -21471008.89448 -17849402.91846  21250928.6024                   21250927.6914
 -60044352.76047 -46752218.24445  22347069.6644                   22347068.2194
 -12437255.33447  -9658145.13145  22436395.4614                   22436394.6024
  -1731663.22347  -1328769.23444  23535917.1334                   23535919.4144
 -49370323.29948 -38457822.82646  20505086.8134                   20505086.3484
 -33547012.30947 -26129149.03444  22955861.5554                   22955863.1524
 -34495279.82248 -26863045.02846  20719892.7504                   20719889.6334
 11  7 31  1  2  0.0000000  0  9G09G28G10G17G12G05G04G27G02
 -23128330.30546 -18005627.70944  22566393.1174                   22566393.6054
 -67915417.12546 -52908037.94643  23821384.5554                   23821386.4494
 -21594453.98848 -17945593.82645  21227438.1954                   21227436.1914
 -60072017.28747 -46773775.02745  22341804.8594                   22341803.7384
 -12594170.91647  -9780416.93345  22406535.2504                   22406533.9654
  -1908891.00447  -1466868.57944  23502191.5554                   23502192.6604
 -49385502.33548 -38469650.65746  20502198.6024                   20502197.9414
 -33568565.05147 -26145943.44544  22951760.2664                   22951761.6764
 -34595104.17548 -26940830.21946  20700896.5704                   20700893.3984
 11  7 31  1  2 30.0000000  0  9G09G28G10G17G12G05G04G27G02
 -23143338.75246 -18017322.65345  22563536.9924                   22563538.5824
 -67889205.33246 -52887613.25843  23826373.0944                   23826373.3754
 -21717351.04448 -18041357.73045  21204051.5084                   21204050.0554
 -60099528.45547 -46795212.32445  22336569.3444                   22336568.7114
 -12750809.13547  -9902472.63245  22376728.1254                   22376727.1644
  -2086022.75247  -1604893.10044  23468483.5084                   23468485.6564
 -49400308.30648 -38481187.79046  20499381.3834                   20499379.9414
 -33589795.42647 -26162486.69444  22947720.2424                   22947721.5514
 -34694527.20848 -27018302.68646  20681977.1564                   20681973.4104
 11  7 31  1  3  0.0000000  0  9G09G28G10G17G12G05G04G27G02
 -23157885.04046 -18028657.50644  22560768.9144                   22560769.9144
 -67862727.12646 -52866980.99943  23831411.9144                   23831412.6294
 -21839700.81148 -18136695.15846  21180768.5944                   21180767.6644
 -60126888.43947 -46816531.80945  22331363.6724                   22331362.7934
 -12907170.53347 -10024312.62345  22346974.1334                   22346972.5864
  -2263058.02347  -1742842.44144  23434795.2664                   23434796.5554
 -49414746.34448 -38492438.21846  20496633.6884                   20496632.1804
 -33610708.58547 -26178782.74944  22943740.4694                   22943741.9534
 -34793551.76548 -27095464.65046  20663133.3054                   20663129.9144
 11  7 31  1  3 30.0000000  0  9G09G28G10G17G12G05G04G27G02
 -23171972.14046 -18039634.48945  22558088.2894                   22558090.0554
 -67835984.28246 -52846142.55644  23836500.8204                   23836503.1374
 -21961500.19148 -18231603.73446  21157590.9924                   21157589.8014
 -60154096.51847 -46837732.91645  22326186.1804                   22326185.0594
 -13063252.03647 -10145934.50345  22317272.0164                   22317271.1644
  -2439993.80947  -1880714.27644  23401124.6484                   23401127.6454
 -49428818.23547 -38503403.32546  20493955.6884                   20493955.2624
 -33631306.67547 -26194833.31344  22939821.2114                   22939822.8244
 -34892178.05448 -27172316.28346  20644365.5314                   20644361.8524
 11  7 31  1  4  0.0000000  0  9G09G28G10G17G12G05G04G27G02
 -23185605.79246 -18050258.19745  22555494.1564                   22555494.6294
 -67808981.33746 -52825101.43443  23841639.1254                   23841641.4734
 -22082749.13248 -18326083.36746  21134518.0554                   21134517.9384
 -60181154.42547 -46858816.98045  22321037.0634                   22321035.6764
 -13219053.23147 -10267337.96245  22287624.0164                   22287623.2774
  -2616829.89847  -2018508.40444  23367473.3054                   23367476.0824
 -49442528.91448 -38514086.97746  20491347.1254                   20491345.8834
 -33651594.69247 -26210642.22944  22935960.7344                   22935963.1374
 -34990408.99948 -27248859.85046  20625672.6254                   20625669.3014
 11  7 31  1  4 30.0000000  0  9G09G28G10G17G12G05G04G27G02
 -21623367.35646 -16832929.61745  22852778.4534                   22852779.3364
 -66206299.87546 -51576258.84043  24146618.8204                   24146620.5984
 -20628020.53948 -17192528.58346  21411343.3834                   21411343.3094
 -58632639.92547 -45652182.32445  22615709.2424                   22615708.1764
 -11799145.85547  -9160916.56245  22557823.1334                   22557822.0944
  -1218136.57047   -928617.26644  23633635.4304                   23633638.3164
 -47880459.39148 -37296889.93046  20788598.3284                   20788597.4304
 -32096153.56047 -24998610.24844  23231950.8364                   23231953.2304
 -33512821.14748 -26097492.66746  20906848.0314                   20906845.4024
 11  7 31  1  5  0.0000000  0  9G09G28G10G17G12G05G04G27G02
 -21636099.00346 -16842850.45045  22850355.1954                   22850355.9694
 -66178778.24846 -51554813.63343  24151856.3204                   24151857.9924
 -20748158.18048 -17286142.27646  21388482.2664                   21388481.7974
 -58659392.79547 -45673028.70645  22610618.2734                   22610617.2974
 -11954375.93747  -9281875.01345  22528284.3054                   22528283.2854
  -1394760.76247  -1066246.29044  23600025.3914                   23600027.1134
 -47893451.05647 -37307013.29646  20786126.5084                   20786125.3524
 -32115825.31647 -25013938.96444  23228207.2504                   23228209.8244
 -33610259.76748 -26173418.84046  20888305.9694                   20888302.6884
 11  7 31  1  5 30.0000000  0  9G09G28G10G17G12G05G04G27G02
 -21648381.77146 -16852421.47244  22848018.6724                   22848019.2704
 -66150997.87046 -51533166.69243  24157142.4384                   24157144.4224
 -20867733.84948 -17379318.09745  21365727.7974                   21365726.5514
 -58685989.63647 -45693753.53645  22605557.4304                   22605556.9264
 -12109313.85947  -9402605.79045  22498800.4774                   22498799.4884
  -1571271.89647  -1203787.22944  23566436.2894                   23566437.2424
 -47906084.28147 -37316857.38746  20783722.6024                   20783721.7584
 -32135190.17247 -25029028.55544  23224522.8834                   23224524.9184
 -33707300.09348 -26249034.66346  20869839.8834                   20869836.5164
 11  7 31  1  6  0.0000000  0  9G09G28G10G17G12G05G04G27G02
 -21660221.82147 -16861647.56345  22845765.8754                   22845765.6054
 -66122963.54846 -51511321.84842  24162477.2274                   24162478.7664
 -20986748.82148 -17472056.99945  21343079.5004                   21343078.9104
 -58712433.32447 -45714359.01545  22600525.9304                   22600524.1764
 -12263960.39347  -9523109.53245  22469372.0314                   22469370.9734
  -1747670.26347  -1341240.27344  23532868.4454                   23532870.9414
 -47918364.57048 -37326426.44046  20781385.4844                   20781384.2624
 -32154254.00647 -25043883.57844  23220895.1254                   23220896.7974
 -33803945.80648 -26324342.98246  20851448.8594                   20851445.6764
 11  7 31  1  6 30.0000000  0  9G09G28G10G17G12G05G04G27G02
 -21671623.06547 -16870531.69045  22843595.9144                   22843596.8244
 -66094677.86646 -51489281.21542  24167859.4304                   24167862.4064
 -21105200.75348 -17564357.15346  21320539.8444                   21320537.5204
 -58738723.55947 -45734844.93145  22595522.7344                   22595521.7894
 -12418313.30347  -9643384.46345  22439999.6724                   22439998.3954
  -1923953.68247  -1478603.80645  23499322.8364                   23499325.0004
 -47930294.77548 -37335722.70346  20779115.0554                   20779114.4494
 -32173019.90647 -25058506.45744  23217323.3594                   23217326.2504
 -33900198.15248 -26399344.78946  20833132.7114                   20833129.4144
 11  7 31  1  7  0.0000000  0  9G09G28G10G17G12G05G04G27G02
 -21682587.21147 -16879075.20444  22841509.0944                   22841510.6094
 -66066141.51246 -51467045.19942  24173290.1024                   24173292.7344
 -21223086.22747 -17656215.94046  21298106.6724                   21298105.4534
 -58764858.34647 -45755209.72645  22590549.6254                   22590548.6954
 -12572368.93647  -9763427.76945  22410683.7114                   22410682.6954
  -2100117.94247  -1615874.45144  23465800.6334                   23465801.8984
 -47941875.95548 -37344747.00546  20776911.3914                   20776910.7624
 -32191489.13147 -25072898.14744  23213809.6254                   23213812.2854
 -33996056.46748 -26474039.56346  20814891.1024                   20814887.9574
 11  7 31  1  7 30.0000000  0  9G09G28G10G17G12G05G04G27G02
 -21693117.75447 -16887280.90545  22839506.0004                   22839506.8364
 -66037356.78246 -51444615.60542  24178768.7814                   24178770.5594
 -21340403.48247 -17747631.93046  21275781.3594                   21275780.3634
 -58790837.94147 -45775453.58145  22585605.8524                   22585604.5514
 -12726124.96647  -9883237.61045  22381424.7584                   22381423.3794
  -2276160.20747  -1753050.03344  23432300.4304                   23432302.0944
 -47953110.70548 -37353501.34746  20774773.4534                   20774772.3954
 -32209664.37847 -25087060.75444  23210351.3204                   23210353.1764
 -34091521.25848 -26548427.70146  20796725.1174                   20796721.6134
 11  7 31  1  8  0.0000000  0  9G09G28G10G17G12G05G04G27G02
 -21703216.56447 -16895150.17645  22837584.0394                   22837585.3834
 -66008324.17746 -51421992.92642  24184292.9774                   24184295.8204
 -21457148.90148 -17838602.36846  21253565.9064                   21253564.9414
 -58816660.54747 -45795575.09645  22580692.2504                   22580691.3244
 -12879577.64347 -10002811.05645  22352223.5314                   22352222.3954
  -2452076.38747  -1890127.38544  23398824.0394                   23398825.6884
 -47964000.14348 -37361986.62846  20772701.1484                   20772700.6604
 -32227547.11047 -25100995.47244  23206948.4534                   23206950.1954
 -34186591.89248 -26622508.69746  20778633.7424                   20778630.1954
 11  7 31  1  8 30.0000000  0  9G09G28G10G17G12G05G04G27G02
 -21712888.87246 -16902687.11044  22835743.3284                   22835744.2934
 -65979047.86446 -51399180.32442  24189865.2114                   24189867.1294
 -21573322.33848 -17929127.06846  21231458.1564                   21231457.4844
 -58842327.44147 -45815575.23445  22575807.5234                   22575806.1374
 -13032726.45747 -10122147.74945  22323080.5004                   22323079.4024
  -2627865.56147  -2027105.75544  23365371.8674                   23365374.7304
 -47974549.15048 -37370206.64246  20770693.8524                   20770692.5474
 -32245142.04847 -25114705.88844  23203599.7274                   23203602.3204
 -34281271.21248 -26696284.77246  20760616.8284                   20760613.9614
 11  7 31  1  9  0.0000000  0  9G09G28G10G17G12G05G04G27G02
 -21722136.23846 -16909892.87444  22833983.8984                   22833984.5004
 -65949528.41246 -51376178.28942  24195483.0234                   24195484.7814
 -21688919.99848 -18019203.14446  21209461.1094                   21209460.1844
 -58867836.55247 -45835452.47145  22570953.4304                   22570952.0784
 -13185567.30847 -10241244.47745  22293996.1724                   22293994.5704
  -2803523.77547  -2163982.11244  23331945.1484                   23331947.5864
 -47984757.87148 -37378161.50046  20768751.6644                   20768750.0004
 -32262450.24447 -25128192.89644  23200306.2034                   23200307.9264
 -34375558.25448 -26769755.17046  20742674.5944                   20742671.3874
 11  7 31  1  9 30.0000000  0  9G09G28G10G17G12G05G04G27G02
 -21730964.60347 -16916772.18144  22832304.1024                   22832304.8874
 -65919770.26045 -51352990.28142  24201145.8204                   24201146.7074
 -21803942.11248 -18108830.72146  21187572.7034                   21187572.1764
 -58893190.22847 -45855208.59445  22566128.4844                   22566127.5664
 -13338100.09447 -10360101.12245  22264969.2894                   22264968.5744
  -2979050.41047  -2300755.93044  23298543.4614                   23298545.4344
 -47994631.77848 -37385855.45346  20766872.5164                   20766871.2544
 -32279477.02247 -25141460.61144  23197066.6644                   23197068.6564
 -34469455.91248 -26842922.15746  20724806.5554                   20724802.7114
 11  7 31  1 10  0.0000000  0  9G09G28G10G17G12G05G04G27G02
 -21739375.54347 -16923326.23944  22830702.8594                   22830704.9844
 -65889773.60545 -51329616.35542  24206852.8984                   24206854.5274
 -21918384.82648 -18198006.82546  21165795.5784                   21165794.3204
 -58918386.08647 -45874841.73645  22561333.6804                   22561333.1884
 -13490320.47047 -10478714.36646  22236002.9144                   22236001.8204
  -3154440.80747  -2437423.56644  23265167.7194                   23265169.6844
 -48004171.17248 -37393288.76046  20765056.8054                   20765056.7344
 -32296223.14147 -25154509.64044  23193879.7424                   23193881.9694
 -34562963.33648 -26915785.05746  20707012.5394                   20707009.2584
 11  7 31  1 10 30.0000000  0  9G09G28G10G17G12G05G04G27G02
 -21747374.33847 -16929559.11545  22829181.4534                   22829182.8134
 -65859542.49945 -51306059.81242  24212605.7894                   24212608.7664
 -22032247.95848 -18286731.31346  21144127.9614                   21144127.1374
 -58943425.36247 -45894352.87045  22556568.9844                   22556568.1334
 -13642227.98147 -10597083.81346  22207096.0474                   22207094.6414
  -3329693.76747  -2573984.14844  23231819.0474                   23231819.8324
 -48013380.63048 -37400464.95746  20763304.3524                   20763302.8324
 -32312693.31647 -25167343.61044  23190745.7734                   23190747.2934
 -34656082.96748 -26988345.79046  20689292.6024                   20689288.9264
 11  7 31  1 11  0.0000000  0  9G09G28G10G17G12G05G04G27G02
 -21754964.03047 -16935473.24745  22827737.0164                   22827737.7384
 -65829078.91745 -51282322.07442  24218403.1804                   24218406.7814
 -22145529.34548 -18375002.48846  21122570.6724                   21122570.4924
 -58968307.71647 -45913741.74545  22551834.4694                   22551833.6094
 -13793820.00447 -10715207.43545  22178249.1484                   22178248.1454
  -3504806.75747  -2710435.63945  23198495.0864                   23198496.8874
 -48022262.61148 -37407385.99446  20761614.3054                   20761613.4454
 -32328890.06547 -25179964.59144  23187663.7974                   23187666.1254
 -34748815.62848 -27060604.99046  20671646.0004                   20671642.9144
 11  7 31  1 11 30.0000000  0  9G09G28G10G17G12G05G04G27G02
 -21762148.31447 -16941071.45944  22826369.9924                   22826371.2504
 -65798385.59545 -51258405.36342  24224243.5164                   24224248.3874
 -22258227.50048 -18462819.20646  21101125.3204                   21101124.4494
 -58993033.04947 -45933008.26345  22547128.4144                   22547127.8714
 -13945094.82147 -10833083.87146  22149462.2194                   22149461.2424
  -3679777.00247  -2846775.91845  23165200.1024                   23165200.0124
 -48030819.52648 -37414053.74546  20759985.8444                   20759985.4024
 -32344816.49947 -25192374.91144  23184633.5394                   23184635.1564
 -34841162.28148 -27132563.40146  20654073.1024                   20654069.6414
 11  7 31  1 12  0.0000000  0  9G09G28G10G17G12G05G04G27G02
 -21768929.48747 -16946355.56144  22825079.4304                   22825080.8164
 -65767463.24215                  24230131.766
 -22370339.25448 -18550178.96246  21079791.3754                   21079790.3524
 -59017599.82747 -45952151.20545  22542454.0864                   22542453.5394
 -14096048.57547 -10950710.13745  22120736.9454                   22120735.1214
  -3854600.76247  -2983002.05345  23131931.6954                   23131931.9024
 -48039052.96148 -37420469.42246  20758418.9614                   20758418.1804
 -32360474.33247 -25204575.93644  23181653.5784                   23181656.2304
 -34933122.48748 -27204220.66546  20636573.7734                   20636569.8134
 11  7 31  1 12 30.0000000  0  8G09G10G17G12G05G04G27G02
 -21775312.32346 -16951329.26744  22823864.8984                   22823866.5234
 -22481863.89448 -18637081.24846  21058568.6954                   21058568.1844
 -59042008.95047 -45971171.33245  22537809.7034                   22537808.5274
 -14246680.06647 -11068085.28345  22092072.2664                   22092071.5044
  -4029276.60247  -3119112.95945  23098692.1094                   23098692.2624
 -48046966.80848 -37426636.05946  20756913.7504                   20756912.4454
 -32375867.81347 -25216570.95644  23178724.4224                   23178726.5274
 -35024698.44948 -27275578.55446  20619147.0004                   20619143.5164
 11  7 31  1 13  0.0000000  0  8G09G10G17G12G05G04G27G02
 -21781301.39546 -16955996.15644  22822725.2424                   22822726.4694
 -22592801.12148 -18723525.81446  21037457.9224                   21037457.1134
 -59066261.44047 -45990069.37445  22533193.8134                   22533193.5784
 -14396988.06347 -11185208.35345  22063469.8674                   22063467.4304
  -4203802.98647  -3255107.39745  23065480.7814                   23065481.4924
 -48054564.74448 -37432556.53946  20755467.5554                   20755466.1954
 -32391000.81147 -25228363.00044  23175845.1174                   23175846.2034
 -35115892.30448 -27346638.66346  20601793.5864                   20601790.3054
 11  7 31  1 13 30.0000000  0  8G09G10G17G12G05G04G27G02
 -21786899.17947 -16960358.14345  22821659.9064                   22821661.4734
 -22703147.75348 -18809510.16646  21016459.9454                   21016459.0164
 -59090355.82947 -46008844.20845  22528609.0784                   22528608.7154
 -14546969.56847 -11302077.03446  22034929.2974                   22034927.6644
  -4378175.79447  -3390982.17445  23032298.0004                   23032299.2974
 -48061848.37048 -37438232.09046  20754081.7584                   20754080.8674
 -32405875.25647 -25239953.57644  23173013.9614                   23173015.9064
 -35206704.07248 -27417401.05846  20584512.7584                   20584509.5394
 11  7 31  1 14  0.0000000  0  8G09G10G17G12G05G04G27G02
 -21792098.17547 -16964409.40645  22820671.2114                   22820673.0124
 -22812891.04248 -18895024.37346  20995576.0704                   20995575.0124
 -59114280.43147 -46027486.78845  22524056.3674                   22524055.8444
 -14696611.16947 -11418680.83545  22006453.3594                   22006451.4774
  -4552381.50547  -3526726.71244  22999148.0004                   22999149.3554
 -48068809.38648 -37443656.28946  20752756.5784                   20752755.8554
 -32420483.12647 -25251336.44444  23170234.8524                   23170236.1954
 -35297123.30948 -27487857.59146  20567306.7194                   20567303.1374
 11  7 31  1 14 30.0000000  0  8G09G10G17G12G05G04G27G02
 -21796900.45047 -16968151.52944  22819756.9614                   22819758.9534
 -22922028.15148 -18980066.24346  20974808.0944                   20974807.0744
 -59138034.28047 -46045996.28645  22519535.9064                   22519535.7424
 -14845909.05347 -11535016.81846  21978042.7424                   21978041.2584
  -4726416.42747  -3662338.16245  22966029.5784                   22966031.2854
 -48075448.61048 -37448829.72146  20751493.8054                   20751492.8444
 -32434825.83647 -25262512.71844  23167505.8444                   23167507.3204
 -35387149.44648 -27558007.80946  20550174.8834                   20550171.6484
 11  7 31  1 15  0.0000000  0  8G09G10G17G12G05G04G27G02
 -21801309.89047 -16971587.54944  22818918.0474                   22818919.5664
 -23030557.20348 -19064634.31446  20954155.4614                   20954154.3754
 -59161616.93147 -46064372.42945  22515048.4384                   22515048.1914
 -14994860.98547 -11651083.22545  21949698.1954                   21949697.0354
  -4900277.66247  -3797814.29245  22932945.2034                   22932945.6524
 -48081769.18648 -37453754.86246  20750290.5394                   20750290.1804
 -32448906.62946 -25273484.88844  23164825.8364                   23164828.4224
 -35476783.92448 -27627852.83246  20533118.2034                   20533114.5704
 11  7 31  1 15 30.0000000  0  8G09G10G17G12G05G04G27G02
 -20229916.72746 -15747125.44345  23117943.9774                   23117945.3914
 -21563060.07548 -17921130.01746  21233411.1024                   21233409.8244
 -57609614.04647 -44855019.53545  22810384.6884                   22810383.8984
 -13568046.05947 -10539279.34946  22221211.9224                   22221210.5124
  -3498543.50847  -2705553.75545  23199685.9774                   23199687.7774
 -46512360.08948 -36230838.69646  21048939.0394                   21048938.1294
 -30887314.52446 -24056659.99244  23461987.4304                   23461989.7734
 -33990611.79348 -26469796.59746  20815927.4844                   20815923.6214
 11  7 31  1 16  0.0000000  0  8G09G10G17G12G05G04G27G02
 -20233565.27847 -15749968.57845  23117250.3364                   23117251.6094
 -21670382.61048 -18004757.92946  21212988.1954                   21212987.1374
 -57632867.44947 -44873139.08845  22805959.7974                   22805959.5514
 -13716312.97447 -10654811.97546  22192997.4694                   22192996.5044
  -3672063.46247  -2840763.95845  23166666.2034                   23166667.6094
 -46518064.89148 -36235284.00746  21047853.5554                   21047853.4774
 -30900894.09847 -24067241.60344  23459403.1334                   23459405.5704
 -34079479.86048 -26539044.41746  20799016.5634                   20799012.6454
 11  7 31  1 16 30.0000000  0  8G09G10G17G12G05G04G27G02
 -20236840.50947 -15752520.79244  23116626.8914                   23116629.3524
 -21777101.28348 -18087915.30846  21192680.3834                   21192679.2274
 -57655957.33047 -44891131.21745  22801566.4534                   22801565.4264
 -13864236.12047 -10770076.73145  22164849.1724                   22164847.8484
  -3845410.52947  -2975839.45145  23133679.0394                   23133680.0784
 -46523467.41948 -36239493.78646  21046825.6414                   21046824.6414
 -30914229.38447 -24077632.83744  23456865.4694                   23456868.5204
 -34167967.80148 -26607996.02946  20782177.7034                   20782173.7584
 11  7 31  1 17  0.0000000  0  8G09G10G17G12G05G04G27G02
 -20239749.62747 -15754787.73244  23116073.4614                   23116074.3364
 -21883218.09248 -18170603.69346  21172487.3754                   21172486.1334
 -57678887.31147 -44908998.76045  22797202.1804                   22797202.4804
 -14011816.41147 -10885074.32946  22136765.1254                   22136763.8754
  -4018585.65347  -3110780.92045  23100725.3364                   23100726.4304
 -46528574.07048 -36243473.00946  21045854.2584                   21045853.3594
 -30927326.97847 -24087838.87544  23454373.6024                   23454375.4454
 -34256080.41748 -26676655.18446  20765410.2734                   20765407.1334
 11  7 31  1 17 30.0000000  0  8G09G10G17G12G05G04G27G02
 -20242293.94347 -15756770.44344  23115589.0554                   23115590.9734
 -21988728.78848 -18252819.78746  21152409.1094                   21152407.6174
 -57701654.75447 -44926739.64145  22792869.9304                   22792869.5004
 -14159049.56847 -10999801.44046  22108747.5944                   22108746.3594
  -4191583.74947  -3245584.50345  23067804.4614                   23067805.5944
 -46533384.93548 -36247221.77146  21044938.7194                   21044938.2384
 -30940187.37947 -24097860.09744  23451926.1644                   23451928.6804
 -34343816.38348 -26745020.84746  20748714.4144                   20748711.3054
 11  7 31  1 18  0.0000000  0  8G09G10G17G12G05G04G27G02
 -20244478.39947 -15758472.72344  23115173.2584                   23115175.3834
 -22093633.78948 -18334563.90146  21132446.2274                   21132444.4694
 -57724261.02347 -44944354.95445  22788568.3054                   22788567.9844
 -14305934.90547 -11114257.50746  22080796.2114                   22080795.0394
  -4364403.92247  -3380249.45845  23034918.0084                   23034918.7704
 -46537904.44048 -36250743.47946  21044078.7504                   21044077.4384
 -30952815.32546 -24107700.16744  23449523.4304                   23449525.3634
 -34431178.31748 -26813095.05646  20732090.0704                   20732086.9264
 11  7 31  1 18 30.0000000  0  8G09G10G17G12G05G04G27G02
 -20246307.47847 -15759898.08944  23114825.7194                   23114827.3834
 -22197932.47847 -18415835.57546  21112598.4614                   21112597.4264
 -57746706.32047 -44961844.82245  22784296.8984                   22784296.5124
 -14452470.61247 -11228441.12946  22052911.3204                   22052910.1884
  -4537044.25347  -3514774.25945  23002065.5864                   23002066.3674
 -46542135.94048 -36254040.76546  21043273.2344                   21043272.6564
 -30965214.75346 -24117362.13144  23447163.7664                   23447165.8714
 -34518168.00948 -26880879.22146  20715536.3364                   20715532.6414
 11  7 31  1 19  0.0000000  0  8G09G10G17G12G05G04G27G02
 -20247784.90347 -15761049.42544  23114545.2664                   23114546.4734
 -22301623.25548 -18496633.53346  21092866.7584                   21092866.3594
 -57768990.97147 -44979209.54145  22780057.0474                   22780055.5664
 -14598654.43747 -11342350.58446  22025094.1174                   22025092.1094
  -4709501.90147  -3649156.71845  22969247.8054                   22969249.2424
 -46546081.96548 -36257115.62046  21042522.3914                   21042521.8554
 -30977388.39546 -24126848.22544  23444847.9064                   23444849.5354
 -34604786.64948 -26948374.22146  20699053.3594                   20699049.8834
 11  7 31  1 19 30.0000000  0  8G09G10G17G12G05G04G27G02
 -20248915.42947 -15761930.47344  23114329.7974                   23114331.2344
 -22404705.60548 -18576957.41046  21073250.9384                   21073249.8364
 -57791115.47047 -44996449.41945  22775846.5554                   22775845.9614
 -14744485.48747 -11455985.13646  21997342.6644                   21997341.3244
  -4881775.32947  -3783395.59245  22936465.0164                   22936465.6994
 -46549746.07248 -36259970.81246  21041824.9534                   21041824.5744
 -30989340.36546 -24136161.52444  23442572.2034                   23442575.6334
 -34691036.09848 -27015581.57346  20682640.8674                   20682637.3794
 11  7 31  1 20  0.0000000  0  8G09G10G17G12G05G04G27G02
 -20249698.85447 -15762541.06444  23114180.2344                   23114182.0354
 -22507174.64248 -18656803.38946  21053752.0704                   21053750.5744
 -57813075.80247 -45013561.39345  22771667.6644                   22771667.1134
 -14889957.79248 -11569340.13446  21969660.2344                   21969658.7814
  -5053857.89747  -3917485.75545  22903718.3834                   22903719.6254
 -46553127.28748 -36262605.54346  21041181.6414                   21041181.3714
 -31001069.80646 -24145301.49944  23440341.2734                   23440343.2464
 -34776913.84548 -27082499.27946  20666299.0864                   20666295.6024
 11  7 31  1 20 30.0000000  0  8G09G10G17G12G05G04G27G02
 -20250144.55247 -15762888.48444  23114096.2894                   23114098.0664
 -22609034.52447 -18736174.68546  21034368.4304                   21034367.2584
 -57834877.42647 -45030549.66245  22767518.8364                   22767517.4184
 -15035074.65448 -11682418.18346  21942045.5864                   21942043.8954
  -5225752.85247  -4051429.76245  22871008.3364                   22871009.0744
 -46556233.62648 -36265026.09346  21040590.6024                   21040589.2664
 -31012585.64346 -24154274.98944  23438149.7424                   23438152.4024
 -34862426.75948 -27149132.69946  20650026.4844                   20650022.5434
 11  7 31  1 21  0.0000000  0  8G09G10G17G12G05G04G27G02
 -20250255.18647 -15762974.79544  23114074.3284                   23114076.8984
 -22710282.68048 -18815069.32446  21015101.5004                   21015101.2854
 -57856519.27947 -45047413.46945  22763400.5634                   22763400.1884
 -15179832.77647 -11795216.68146  21914498.7974                   21914497.7194
  -5397456.37747  -4185224.57845  22838333.9614                   22838335.2854
 -46559066.98848 -36267233.92446  21040051.3984                   21040050.2664
 -31023889.72146 -24163083.46044  23435998.7034                   23436001.8754
 -34947574.68048 -27215481.71946  20633823.3754                   20633819.4804
 11  7 31  1 21 30.0000000  0  8G09G10G17G12G05G04G27G02
 -20250035.05647 -15762803.42344  23114116.9224                   23114118.1374
 -22810918.57847 -18893486.88446  20995951.4384                   20995950.3444
 -57878001.38047 -45064152.78945  22759313.0084                   22759311.4494
 -15324230.44248 -11907734.30746  21887020.9844                   21887019.5704
  -5568966.59747  -4318868.77945  22805696.5474                   22805698.0004
 -46561630.60348 -36269231.57046  21039563.4384                   21039562.9264
 -31034985.72746 -24171729.87344  23433887.0084                   23433890.3204
 -35032359.52148 -27281547.80846  20617689.1804                   20617685.6024
 11  7 31  1 22  0.0000000  0  8G09G10G17G12G05G04G27G02
 -20249484.46347 -15762374.48844  23114221.6484                   23114223.0984
 -22910937.45048 -18971423.62546  20976918.0084                   20976916.5664
 -57899319.82847 -45080764.59745  22755256.7344                   22755255.9414
 -15468261.83148 -12019966.53046  21859612.7344                   21859611.3404
  -5740277.42547  -4452357.60045  22773096.8674                   22773097.9734
 -46563923.07348 -36271017.94246  21039127.6334                   21039126.9574
 -31045873.35246 -24180213.82344  23431814.9774                   23431819.5164
 -35116778.74148 -27347329.00546  20601624.6484                   20601621.0944
 11  7 31  1 22 30.0000000  0  8G09G10G17G12G05G04G27G02
 -20248612.37847 -15761695.08944  23114387.5394                   23114389.8324
 -23010343.16248 -19048882.59646  20958001.5944                   20958001.0274
 -57920480.09247 -45097253.13145  22751229.1884                   22751228.5044
 -15611930.15847 -12131915.84346  21832272.8364                   21832271.9144
  -5911391.24147  -4585692.93245  22740535.0004                   22740535.3444
 -46565952.91848 -36272599.66646  21038741.3984                   21038740.1844
 -31056560.78746 -24188541.82344  23429782.0864                   23429785.0784
 -35200838.86348 -27412830.38446  20585628.5704                   20585624.9694
 11  7 31  1 23  0.0000000  0  8G09G10G17G12G05G04G27G02
 -20247419.83147 -15760765.95044  23114614.9694                   23114616.4694
 -23109131.95648 -19125860.84346  20939202.9144                   20939201.9774
 -57941479.03247 -45113615.95145  22747234.1094                   22747232.9774
 -15755230.19148 -12243578.19346  21805004.5084                   21805002.7194
  -6082302.89547  -4718870.73745  22708012.1414                   22708012.1604
 -46567719.72948 -36273976.41246  21038405.3524                   21038404.3164
 -31067048.51246 -24196714.25444  23427786.5864                   23427788.4654
 -35284538.28648 -27478050.70046  20569701.0784                   20569697.4344
 11  7 31  1 23 30.0000000  0  8G09G10G17G12G05G04G27G02
 -20245910.13247 -15759589.69844  23114902.8444                   23114903.8204
 -23207302.23648 -19202357.14146  20920521.5004                   20920520.5864
 -57962316.27447 -45129852.80645  22743268.4534                   22743267.6764
 -15898160.29047 -12354952.25746  21777805.8834                   21777804.0594
  -6253009.37647  -4851888.66145  22675526.8834                   22675528.0234
 -46569225.77448 -36275149.98746  21038118.5554                   21038117.6094
 -31077339.50946 -24204733.27344  23425827.3594                   23425830.8954
 -35367878.15148 -27542990.82646  20553841.8524                   20553838.0704
 11  7 31  1 24  0.0000000  0  8G09G10G17G12G05G04G27G02
 -20244087.81047 -15758169.82744  23115249.5394                   23115251.4024
 -23304853.95648 -19278371.44746  20901958.6804                   20901957.2734
 -57982992.67047 -45145964.30745  22739333.4304                   22739332.7464
 -16040718.47447 -12466036.53646  21750677.7734                   21750676.0984
  -6423508.64847  -4984745.11045  22643082.4304                   22643082.3284
 -46570474.71548 -36276123.21846  21037881.2034                   21037880.4304
 -31087437.44046 -24212601.91744  23423906.2894                   23423908.9734
 -35450860.06048 -27607652.05247  20538051.1024                   20538047.3634
 11  7 31  1 24 30.0000000  0  8G09G10G17G12G05G04G27G02
 -20241953.79647 -15756507.06344  23115655.8834                   23115657.2584
 -23401783.05148 -19353900.58146  20883513.6174                   20883512.1094
 -58003504.81747 -45161947.82145  22735430.2814                   22735428.8594
 -16182899.73947 -12576827.09246  21723621.3834                   21723619.4844
  -6593795.54447  -5117436.08245  22610677.2274                   22610678.5004
 -46571466.27348 -36276895.87646  21037691.8674                   21037690.9774
 -31097342.58146 -24220320.36044  23422021.8284                   23422025.0084
 -35533482.80748 -27672033.39846  20522328.5634                   20522324.2664
 11  7 31  1 25  0.0000000  0  8G09G10G17G12G05G04G27G02
 -20239517.54547 -15754608.81044  23116118.9064                   23116120.6724
 -23498094.09748 -19428948.12646  20865185.5704                   20865184.6054
 -58023858.44847 -45177807.79245  22731557.1024                   22731556.6054
 -16324707.81547 -12687326.86546  21696635.8594                   21696635.2464
  -6763873.24347  -5249964.04945  22578313.1024                   22578313.4844
 -46572208.66548 -36277474.38246  21037551.0164                   21037550.1954
 -31107063.87646 -24227895.52244  23420171.8914                   23420175.4024
 -35615753.25448 -27736140.22047  20506673.1334                   20506669.5664
 11  7 31  1 25 30.0000000  0  8G09G10G17G12G05G04G27G02
 -20236772.71847 -15752470.09744  23116641.2894                   23116644.0004
 -23593775.50848 -19503505.04246  20846978.3284                   20846977.1174
 -58044043.09647 -45193536.09844  22727715.8444                   22727714.8554
 -16466130.23847 -12797526.14546  21669724.5554                   21669722.5234
  -6933728.62947  -5382318.77845  22545990.1094                   22545990.9414
 -46572694.43348 -36277852.93046  21037458.4224                   21037458.0314
 -31116594.07046 -24235321.78444  23418359.0554                   23418362.3954
 -35697662.16148 -27799965.32846  20491086.3444                   20491082.6684
 11  7 31  1 26  0.0000000  0  8G09G10G17G12G05G04G27G02
 -20233731.63447 -15750100.53444  23117220.3834                   23117222.5634
 -23688834.93148 -19577577.30346  20828889.2274                   20828887.9144
 -58064066.75947 -45209138.98945  22723905.6644                   22723904.4884
 -16607173.09147 -12907429.64846  21642884.6334                   21642883.5514
  -7103367.65147  -5514504.91645  22513708.4694                   22513709.3164
 -46572934.75148 -36278040.21546  21037412.6094                   21037411.9734
 -31125944.64846 -24242608.06044  23416579.6644                   23416582.5664
 -35779219.40548 -27863516.41946  20475566.1174                   20475562.6054
 11  7 31  1 26 30.0000000  0  8G09G10G17G12G05G04G27G02
 -18654979.40147 -14519904.08744  23417646.6724                   23417648.2034
 -22207849.67648 -18423562.79846  21110711.6954                   21110710.0474
 -56508510.15947 -43997017.02045  23019918.5704                   23019918.1134
 -15172411.24447 -11789433.38946  21915910.6254                   21915909.1844
  -5697363.27947  -4418916.99045  22781262.5084                   22781262.6994
 -44997513.23148 -35050439.06346  21337205.9844                   21337204.9534
 -29559699.83146 -23022157.70243  23714626.1174                   23714628.6334
 -34285004.72048 -26699193.27346  20759905.6884                   20759902.0084
 11  7 31  1 27  0.0000000  0  8G09G10G17G12G05G04G27G02
 -18651357.98747 -14517082.35044  23418336.2974                   23418337.8444
 -22301663.77248 -18496664.66146  21092858.6564                   21092857.8444
 -56528213.13347 -44012370.01745  23016169.0784                   23016168.1564
 -15312690.53647 -11898741.90946  21889216.6174                   21889215.4414
  -5866563.09647  -4550760.90745  22749064.8444                   22749064.7974
 -44997271.38048 -35050250.61846  21337251.4844                   21337250.6024
 -29568702.14346 -23029172.59743  23712912.6954                   23712915.3554
 -34365863.67148 -26762200.24346  20744519.0864                   20744515.4454
 11  7 31  1 27 30.0000000  0  8G09G10G17G12G05G04G27G02
 -18647453.65547 -14514040.07644  23419079.2114                   23419081.0474
 -22394855.00248 -18569281.17246  21075125.4454                   21075123.6174
 -56547756.97147 -44027599.03145  23012450.3984                   23012449.6094
 -15452586.00147 -12007751.36046  21862594.9144                   21862594.1094
  -6035540.84547  -4682431.78045  22716909.5164                   22716909.6294
 -44996793.77148 -35049878.47846  21337342.8754                   21337341.7424
 -29577536.57646 -23036056.68043  23711231.4304                   23711235.1174
 -34446376.92348 -26824937.82147  20729197.7814                   20729194.2774
 11  7 31  1 28  0.0000000  0  8G09G10G17G12G05G04G27G02
 -18643266.34647 -14510777.37144  23419875.5234                   23419877.8634
 -22487418.70748 -18641408.71946  21057511.0634                   21057509.6604
 -56567137.51047 -44042700.80745  23008762.6884                   23008761.1914
 -15592091.69747 -12116457.07946  21836048.2504                   21836047.0744
  -6204290.09047  -4813924.57745  22684797.4534                   22684797.3244
 -44996079.27648 -35049321.74246  21337478.4064                   21337477.9304
 -29586202.35346 -23042809.39743  23709583.1564                   23709585.7234
 -34526541.68348 -26887403.86347  20713943.1884                   20713939.2894
 11  7 31  1 28 30.0000000  0  9G09G25G10G17G12G05G04G27G02
 -18638802.93547 -14507299.47244  23420725.3984                   23420727.3984
  12319369.32157   9610473.73053  24731416.6804                   24731418.0944
 -22579356.94548 -18713048.88146  21040015.8754                   21040014.3554
 -56586357.61647 -44057677.52345  23005104.5084                   23005103.9884
 -15731208.74847 -12224859.96746  21809575.7194                   21809573.6024
  -6372811.38647  -4945239.79545  22652729.5474                   22652728.1644
 -44995133.46448 -35048584.77246  21337658.0234                   21337657.9144
 -29594705.68246 -23049435.48144  23707964.3914                   23707967.2384
 -34606362.44148 -26949601.84346  20698753.8984                   20698750.1604
 11  7 31  1 29  0.0000000  0  9G09G25G10G17G12G05G04G27G02
 -18634075.04647 -14503615.55644  23421625.6884                   23421627.7584
  12146232.97246   9475562.25843  24698469.2584                   24698471.4534
 -22670676.80848 -18784207.19246  21022637.9534                   21022636.5164
 -56605425.08647 -44072535.34745  23001476.5084                   23001475.8484
 -15869942.94448 -12332964.52146  21783175.2814                   21783173.7424
  -6541109.75147  -5076381.26845  22620702.7424                   22620702.7304
 -44993966.76348 -35047675.68646  21337880.4534                   21337879.5314
 -29603057.25746 -23055943.32643  23706375.7114                   23706378.3794
 -34685848.42648 -27011538.96047  20683627.8364                   20683624.1844
 11  7 31  1 29 30.0000000  0  9G09G25G10G17G12G05G04G27G02
 -18629088.66547 -14499730.16144  23422574.6414                   23422575.9654
  11973214.78446   9340742.96243  24665544.6564                   24665547.8594
 -22761380.01448 -18854884.98346  21005377.7344                   21005376.8714
 -56624342.26147 -44087276.04145  22997876.6414                   22997876.2584
 -16008294.25847 -12440770.73946  21756847.5164                   21756845.9804
  -6709185.11347  -5207348.96545  22588718.9224                   22588719.1374
 -44992584.41648 -35046598.54446  21338144.0234                   21338142.7154
 -29611262.72446 -23062337.30044  23704815.0864                   23704818.3524
 -34765002.88347 -27073217.76046  20668565.2114                   20668561.5274
 11  7 31  1 30  0.0000000  0  9G09G25G10G17G12G05G04G27G02
 -18623844.61647 -14495643.99444  23423571.9844                   23423573.9064
  11800319.95046   9206019.77943  24632644.8754                   24632647.3794
 -22851462.49647 -18925079.09746  20988235.7664                   20988234.4964
 -56643105.81646 -44101897.05545  22994305.8134                   22994305.6954
 -16146257.68647 -12548274.70246  21730594.4454                   21730592.4304
  -6877031.79547  -5338138.49545  22556778.0004                   22556779.0274
 -44990985.70647 -35045352.80846  21338447.8834                   21338447.2274
 -29619322.24247 -23068617.61344  23703280.7114                   23703284.4104
 -34843824.39948 -27134637.10947  20653565.9614                   20653561.9574
 11  7 31  1 30 30.0000000  0  9G09G25G10G17G12G05G04G27G02
 -18618348.39847 -14491361.30344  23424617.6724                   23424619.9734
  11627548.86246   9071393.00443  24599767.8284                   24599769.3524
 -22940925.19248 -18994790.27946  20971211.7424                   20971210.2194
 -56661716.92546 -44116399.27944  22990764.5474                   22990764.3134
 -16283832.82447 -12655476.09646  21704414.4844                   21704412.8164
  -7044648.94547  -5468749.16845  22524882.2734                   22524882.0434
 -44989174.69448 -35043941.66346  21338792.4224                   21338792.0314
 -29627240.92447 -23074788.09344  23701774.1724                   23701776.3714
 -34922315.90848 -27195799.31546  20638629.5164                   20638625.9224
 11  7 31  1 31  0.0000000  0  9G09G25G10G17G12G05G04G27G02
 -18612596.03947 -14486879.03944  23425713.3914                   23425714.7304
  11454911.66646   8936870.52943  24566915.1334                   24566918.5744
 -23029759.28948 -19064011.62346  20954307.1414                   20954305.3244
 -56680167.70246 -44130776.53844  22987253.0864                   22987252.3984
 -16421009.60047 -12762367.08646  21678310.4694                   21678308.3754
  -7212025.65647  -5599172.48045  22493031.4144                   22493031.8794
 -44987146.13248 -35042360.98146  21339178.5234                   21339178.1724
 -29635013.67546 -23080844.93244  23700294.9614                   23700298.2894
 -35000470.72848 -27256699.16246  20623757.1094                   20623753.5314
 11  7 31  1 31 30.0000000  0  9G09G25G10G17G12G05G04G27G02
 -18606587.10547 -14482196.85544  23426855.7344                   23426858.4774
  11282414.20246   8802457.10243  24534089.8754                   24534093.6174
 -23117960.31148 -19132739.66646  20937522.9144                   20937521.8284
 -56698454.19246 -44145025.78944  22983773.3834                   22983773.3714
 -16557781.89147 -12868942.88146  21652283.8524                   21652282.0474
  -7379155.96347  -5729403.79845  22461227.1414                   22461227.1414
 -44984898.83448 -35040609.84846  21339605.8364                   21339604.9694
 -29642639.83146 -23086787.52344  23698844.3984                   23698847.7624
 -35078286.35748 -27317334.70447  20608949.4534                   20608946.0314
 11  7 31  1 32  0.0000000  0  9G09G25G10G17G12G05G04G27G02
 -18600331.91347 -14477322.80644  23428047.5554                   23428048.9964
  11110052.35346   8668149.23944  24501290.5944                   24501294.3674
 -23205533.76148 -19200978.68646  20920858.3284                   20920856.3674
 -56716582.63747 -44159151.89045  22980324.4144                   22980323.9654
 -16694154.27947 -12975207.07146  21626333.2344                   21626331.1134
  -7546043.43947  -5859445.88345  22429470.3754                   22429469.1724
 -44982441.59748 -35038695.13246  21340073.3284                   21340072.9264
 -29650128.85046 -23092623.23843  23697418.8204                   23697421.6294
 -35155770.46448 -27377711.91247  20594204.7034                   20594201.2384
 11  7 31  1 32 30.0000000  0  9G09G25G10G17G12G05G04G27G02
 -18593830.86147 -14472257.14744  23429283.6414                   23429286.1374
  10937831.70346   8533951.42244  24468518.0004                   24468522.1564
 -23292475.52448 -19268725.49246  20904313.8284                   20904312.4344
 -56734549.37947 -44173151.99445  22976905.0554                   22976904.1094
 -16830120.96547 -13081155.14346  21600459.6024                   21600457.6214
  -7712682.04547  -5989294.06845  22397759.6644                   22397759.7304
 -44979773.44148 -35036616.09046  21340581.6414                   21340581.0664
 -29657480.55847 -23098351.99944  23696020.0084                   23696022.7734
 -35232920.97847 -27437829.19047  20579523.0004                   20579519.6604
 11  7 31  1 33  0.0000000  0  9G09G25G10G17G12G05G04G27G02
 -18587090.96746 -14467005.38944  23430565.6564                   23430568.6414
  10765751.10547   8399862.75744  24435772.5474                   24435776.1414
 -23378788.39248 -19335982.25846  20887888.9774                   20887887.8164
 -56752357.38447 -44187028.39645  22973516.4064                   22973516.5944
 -16965683.14347 -13186787.98546  21574662.6024                   21574660.7154
  -7879072.35447  -6118948.78145  22366096.5004                   22366096.0314
 -44976900.24848 -35034377.26146  21341128.0234                   21341127.0594
 -29664701.17946 -23103978.61844  23694645.8834                   23694650.1334
 -35309742.29748 -27497689.95447  20564904.6414                   20564900.8794
 11  7 31  1 33 30.0000000  0  9G09G25G10G17G12G05G04G27G02
 -18580113.41547 -14461568.49044  23431894.4384                   23431896.5124
  10593815.22646   8265886.87044  24403053.5084                   24403058.4304
 -23464469.22148 -19402746.53546  20871584.3524                   20871582.8554
 -56770003.67846 -44200778.80545  22970158.5634                   22970157.2384
 -17100836.17847 -13292102.02746  21548943.9064                   21548942.4384
  -8045209.35947  -6248406.09545  22334481.5634                   22334480.8834
 -44973822.03147 -35031978.64445  21341713.6254                   21341712.8954
 -29671791.32746 -23109503.53943  23693297.0634                   23693299.6174
 -35386233.16648 -27557293.20847  20550349.0004                   20550345.6804
 11  7 31  1 34  0.0000000  0  9G09G25G10G17G12G05G04G27G02
 -18572899.26147 -14455947.14044  23433267.4694                   23433269.5354
  10422029.01846   8132027.60944  24370364.2974                   24370367.7464
 -23549514.69648 -19469015.68746  20855400.6884                   20855399.3714
 -56787485.63047 -44214401.11045  22966831.5554                   22966830.6684
 -17235575.57047 -13397093.74246  21523303.1884                   21523302.3404
  -8211087.58447  -6377661.77345  22302915.4534                   22302915.6454
 -44970538.28148 -35029419.89045  21342339.0084                   21342337.8714
 -29678751.38446 -23114927.09043  23691972.7734                   23691976.5704
 -35462392.52548 -27616638.15446  20535856.4224                   20535853.0204
 11  7 31  1 34 30.0000000  0  9G09G25G10G17G12G05G04G27G02
 -18565455.48347 -14450146.91144  23434683.9534                   23434686.8324
  10250391.39446   7998284.13044  24337701.8204                   24337706.5004
 -23633927.42348 -19534791.81846  20839337.3834                   20839336.2734
 -56804805.92847 -44227897.49545  22963535.6804                   22963535.6804
 -17369902.14947 -13501763.79546  21497742.3444                   21497740.3874
  -8376707.44447  -6506716.11545  22271398.7734                   22271399.6094
 -44967054.90648 -35026705.58546  21343002.2504                   21343001.0904
 -29685587.59446 -23120254.16143  23690671.7734                   23690675.4264
 -35538224.68148 -27675728.13746  20521425.9304                   20521422.3134
 11  7 31  1 35  0.0000000  0  9G09G25G10G17G12G05G04G27G02
 -18557785.33946 -14444170.31344  23436143.9774                   23436146.8954
  10078905.30846   7864658.75144  24305069.4144                   24305072.7074
 -23717706.03048 -19600073.82346  20823394.5704                   20823393.8244
 -56821964.51947 -44241267.85745  22960271.1884                   22960270.5434
 -17503813.19647 -13606110.05646  21472259.8984                   21472258.2304
  -8542065.85947  -6635566.73845  22239932.3054                   22239932.4264
 -44963373.72948 -35023837.13446  21343702.0164                   21343701.8674
 -29692302.36446 -23125486.57543  23689394.6954                   23689397.1484
 -35613730.57248 -27734563.87546  20507057.7734                   20507053.7734
 11  7 31  1 35 30.0000000  0  9G09G25G10G17G12G05G04G27G02
 -18549891.22847 -14438019.15544  23437646.0704                   23437647.8324
   9907574.31946   7731154.18744  24272466.3204                   24272469.2894
 -23800848.63948 -19664860.25846  20807573.2344                   20807571.4304
 -56838959.15847 -44254510.44745  22957036.4454                   22957036.5474
 -17637305.06747 -13710129.66446  21446857.1564                   21446855.4884
  -8707158.66147  -6764210.41745  22208516.2034                   22208515.6174
 -44959495.78448 -35020815.38345  21344440.2034                   21344438.8244
 -29698897.44347 -23130625.70144  23688139.5314                   23688142.4024
 -35688909.96447 -27793145.20246  20492751.7814                   20492748.3204
 11  7 31  1 36  0.0000000  0  9G09G25G10G17G12G05G04G27G02
 -18541775.33346 -14431695.20144  23439190.6484                   23439193.0354
   9736401.72246   7597773.12844  24239892.2974                   24239896.4614
 -23883353.51348 -19729149.73946  20791873.4064                   20791871.9144
 -56855788.82347 -44267624.51345  22953834.4224                   22953833.7274
 -17770374.84047 -13813820.39046  21421534.7734                   21421533.6884
  -8871982.22047  -6892644.26745  22177151.3054                   22177151.1564
 -44955422.27748 -35017641.24546  21345215.4924                   21345215.3284
 -29705374.96547 -23135673.26543  23686906.7814                   23686910.8284
 -35763762.76448 -27851472.05846  20478507.8364                   20478504.0704
 11  7 31  1 36 30.0000000  0  9G09G25G10G17G12G05G04G27G02
 -18533446.12247 -14425205.01344  23440775.8674                   23440778.4224
   9565385.37946   7464513.73743  24207349.7894                   24207352.9344
 -23965224.52048 -19792945.30446  20776293.7974                   20776292.1954
 -56872457.54947 -44280613.12445  22950662.2504                   22950661.4844
 -17903024.67247 -13917183.87646  21396292.0554                   21396290.3364
  -9036538.29047  -7020869.69245  22145837.9614                   22145837.6054
 -44951160.29048 -35014320.22046  21346026.7194                   21346025.8754
 -29711742.40647 -23140635.05644  23685695.3984                   23685698.0514
 -35838294.74248 -27909548.90747  20464324.4064                   20464320.8134
 11  7 31  1 37  0.0000000  0  9G09G25G10G17G12G05G04G27G02
 -18524902.65446 -14418547.87044  23442401.1484                   23442403.0204
   9394531.99546   7331381.39643  24174836.9384                   24174839.6374
 -24046456.78148 -19856243.16446  20760835.1414                   20760834.5944
 -56888960.27747 -44293472.41244  22947521.1484                   22947521.0634
 -18035248.07247 -14020215.06146  21371131.1174                   21371129.7504
  -9200819.91347  -7148881.26245  22114575.4924                   22114575.2934
 -44946707.66648 -35010850.65345  21346873.5234                   21346873.3834
 -29717998.38847 -23145509.96144  23684504.7814                   23684507.8324
 -35912502.99148 -27967373.51247  20450202.7974                   20450199.2074
 11  7 31  1 37 30.0000000  0  9G09G25G10G17G12G05G04G27G02
 -18516149.64347 -14411727.46944  23444068.3364                   23444069.4224
   9223843.08846   7198377.15043  24142355.9064                   24142358.5594
 -24127050.58448 -19919043.49346  20745498.5314                   20745497.8914
 -56905298.01247 -44306203.14645  22944412.5704                   22944412.6804
 -18167043.83548 -14122913.03146  21346051.2034                   21346049.5124
  -9364825.22347  -7276677.51245  22083366.2274                   22083365.7504
 -44942067.36148 -35007234.84345  21347756.9224                   21347755.8364
 -29724146.45847 -23150300.78143  23683334.8364                   23683338.2894
 -35986389.71748 -28024947.56946  20436142.7344                   20436139.3554
 11  7 31  1 38  0.0000000  0  9G09G25G10G17G12G05G04G27G02
 -16931769.60346 -13177145.77644  23745564.7584                   23745567.2854
  10628748.00746   8293108.42643  24409700.1414                   24409703.1884
 -22631581.57848 -18753742.94646  21030077.2894                   21030075.8794
 -55346048.61047 -43091203.62245  23241127.9144                   23241127.4924
 -16722984.00648 -12997671.57446  21620846.5084                   21620844.8984
  -7953124.47547  -6176650.88446  22352004.0864                   22352004.1994
 -43361820.67448 -33775873.79745  21648467.7584                   21648466.7424
 -28154768.15947 -21927408.76043  23981978.8834                   23981981.9384
 -34484531.98748 -26854668.80946  20721937.0314                   20721933.5274
 11  7 31  1 38 30.0000000  0  9G09G25G10G17G12G05G04G27G02
 -16922604.91147 -13170004.58644  23747308.8524                   23747311.7624
  10458398.57546   8160368.70243  24377283.6024                   24377286.1024
 -22710893.65648 -18815544.54346  21014984.9144                   21014983.5394
 -55362051.81847 -43103673.70645  23238083.0944                   23238082.7974
 -16853914.29548 -13099695.14446  21595931.8134                   21595930.0044
  -8116565.29747  -6304007.27246  22320902.2974                   22320901.6414
 -43356808.62448 -33771968.31745  21649421.8444                   21649421.2814
 -28160706.07646 -21932035.84343  23980847.7424                   23980851.0784
 -34557775.66648 -26911741.79746  20707999.1484                   20707995.7464
 11  7 31  1 39  0.0000000  0  9G09G25G10G17G12G05G04G27G02
 -16913242.97446 -13162709.66344  23749090.3444                   23749092.6524
  10288219.08147   8027761.41343  24344900.4454                   24344903.1604
 -22789567.31448 -18876848.67646  21000014.0164                   21000012.1764
 -55377890.29247 -43116015.38245  23235069.2194                   23235068.2424
 -16984411.80647 -13201381.49646  21571098.9304                   21571096.8364
  -8279722.83547  -6431142.94245  22289853.8914                   22289853.8674
 -43351617.54048 -33767923.35045  21650409.7194                   21650408.9144
 -28166546.77346 -21936587.22643  23979736.2114                   23979740.0864
 -34630702.43648 -26968567.83546  20694121.6174                   20694118.1684
 11  7 31  1 39 30.0000000  0  9G09G25G10G17G12G05G04G27G02
 -16903687.73947 -13155264.13944  23750908.8674                   23750911.5944
  10118211.37347   7895287.94644  24312548.4924                   24312552.1844
 -22867602.92948 -18937655.62446  20985163.7584                   20985162.5704
 -55393564.89047 -43128229.35245  23232086.5784                   23232085.7034
 -17114474.96747 -13302729.37646  21546348.4144                   21546347.0634
  -8442595.21947  -6558056.40146  22258861.0784                   22258860.8794
 -43346250.10148 -33763740.94145  21651431.1024                   21651429.9574
 -28172293.71546 -21941065.59243  23978642.7344                   23978646.7344
 -34703314.59348 -27025148.72247  20680303.9774                   20680300.9104
 11  7 31  1 40  0.0000000  0  9G09G25G10G17G12G05G04G27G02
 -16893939.55447 -13147668.27444  23752764.0004                   23752765.7504
   9948381.45347   7762953.03244  24280229.9924                   24280234.8244
 -22944996.43948 -18997962.23446  20970436.2584                   20970435.2304
 -55409071.43847 -43140312.37544  23229134.3054                   23229134.5044
 -17244097.98548 -13403734.29546  21521681.8054                   21521680.1914
  -8605176.05947  -6684742.69946  22227921.9534                   22227922.5124
 -43340705.04548 -33759420.12245  21652486.0634                   21652484.9804
 -28177946.29646 -21945470.32243  23977567.6024                   23977571.3754
 -34775609.83348 -27081482.67047  20666546.8134                   20666543.1254
 11  7 31  1 40 30.0000000  0  9G09G25G10G17G12G05G04G27G02
 -16884004.56646 -13139926.85944  23754653.9774                   23754657.4104
   9778729.00847   7630756.40344  24247946.2504                   24247950.1844
 -23021750.03948 -19057770.23346  20955830.6414                   20955829.4024
 -55424412.07047 -43152266.15644  23226216.2664                   23226215.8524
 -17373281.68848 -13504396.88846  21497098.6884                   21497097.5124
  -8767465.37947  -6811201.80946  22197039.4774                   22197039.9774
 -43334987.11448 -33754964.62545  21653574.5004                   21653573.9304
 -28183510.19546 -21949806.02443  23976508.6254                   23976512.4534
 -34847592.02048 -27137572.66346  20652848.7814                   20652845.3554
 11  7 31  1 41  0.0000000  0  9G09G25G10G17G12G05G04G27G02
 -16873887.06347 -13132043.19944  23756580.4534                   23756583.4884
   9609255.87647   7498699.46344  24215696.4224                   24215699.7384
 -23097863.94348 -19117079.75446  20941346.5864                   20941344.6764
 -55439587.35447 -43164091.08045  23223328.6564                   23223329.0664
 -17502024.57847 -13604715.99746  21472599.9694                   21472598.6334
  -8929460.86747  -6937431.96646  22166213.1564                   22166213.2344
 -43329099.53648 -33750376.89745  21654694.1414                   21654693.8484
 -28188988.90746 -21954075.30943  23975466.6254                   23975470.3524
 -34919262.69848 -27193419.93146  20639210.4694                   20639206.7464
 11  7 31  1 41 30.0000000  0  9G09G25G10G17G12G05G04G27G02
 -16863592.74147 -13124021.78544  23758538.8834                   23758541.1414
   9439962.54147   7366782.68544  24183481.9304                   24183484.7854
 -23173339.90248 -19175892.17246  20926983.7734                   20926983.0354
 -55454598.59247 -43175788.15644  23220472.2034                   23220470.8714
 -17630326.46447 -13704691.45646  21448184.8444                   21448182.9804
  -9091161.90447  -7063432.68346  22135442.3674                   22135441.5394
 -43323046.18348 -33745660.02945  21655846.1954                   21655845.2974
 -28194387.35246 -21958282.15243  23974439.6644                   23974443.5234
 -34990625.34448 -27249027.17546  20625630.4224                   20625626.6844
 11  7 31  1 42  0.0000000  0  9G09G25G10G17G12G05G04G27G02
 -16853124.71446 -13115865.01444  23760531.0084                   23760533.8014
   9270851.81446   7235008.15944  24151300.8444                   24151304.4264
 -23248176.94648 -19234206.73146  20912743.2344                   20912741.3954
 -55469445.12147 -43187356.94844  23217646.6254                   23217646.7734
 -17758184.44648 -13804321.02146  21423854.0234                   21423852.8674
  -9252565.33247  -7189201.49946  22104727.8054                   22104727.9184
 -43316828.93848 -33740815.41745  21657029.5554                   21657028.8364
 -28199708.06046 -21962428.33043  23973426.8284                   23973430.6024
 -35061680.94647 -27304395.14446  20612109.0474                   20612105.2504
 11  7 31  1 42 30.0000000  0  9G09G25G10G17G12G05G04G27G02
 -16842484.71047 -13107574.23944  23762556.0234                   23762558.5314
   9101927.86747   7103379.18444  24119155.8524                   24119158.2154
 -23322373.45348 -19292022.17646  20898623.7974                   20898622.6134
 -55484124.71047 -43198795.60944  23214853.3754                   23214852.6024
 -17885594.84448 -13903601.80846  21399608.5474                   21399606.8554
  -9413666.69447  -7314734.95845  22074071.2664                   22074071.1214
 -43310448.14348 -33735843.39846  21658244.0004                   21658243.1334
 -28204952.03346 -21966514.73543  23972429.5864                   23972433.2464
 -35132428.69948 -27359523.25746  20598646.1954                   20598642.2854
 11  7 31  1 43  0.0000000  0  9G09G25G10G17G12G05G04G27G02
 -16831675.05247 -13099151.23744  23764613.7734                   23764616.2894
   8933194.44346   6971898.66144  24087045.9614                   24087049.7424
 -23395927.84948 -19349337.28746  20884626.9844                   20884625.6054
 -55498636.45546 -43210103.54744  23212091.8054                   23212091.0864
 -18012554.52948 -14002531.41146  21375449.2504                   21375447.6604
  -9574461.86147  -7440029.80746  22043472.8914                   22043472.8364
 -43303905.01148 -33730744.88845  21659488.5634                   21659489.2544
 -28210121.05846 -21970542.80543  23971446.0084                   23971450.2774
 -35202868.46848 -27414411.36946  20585242.1414                   20585238.0514
 11  7 31  1 43 30.0000000  0  9G09G25G10G17G12G05G04G27G02
 -16820704.36747 -13090602.77444  23766701.1334                   23766703.6414
   8764648.82946   6840564.52944  24054973.1484                   24054975.9694
 -23468844.75648 -19406155.64146  20870751.0394                   20870749.4534
 -55512984.82046 -43221284.13244  23209361.0944                   23209360.0984
 -18139066.29548 -14101111.97546  21351375.0314                   21351373.1994
  -9734953.61247  -7565088.22746  22012932.6414                   22012932.0394
 -43297206.50948 -33725525.29445  21660764.1484                   21660762.3914
 -28215223.07446 -21974518.57843  23970474.8754                   23970479.5084
 -35273006.97248 -27469064.73246  20571895.2344                   20571891.2274
 11  7 31  1 44  0.0000000  0  9G09G25G10G17G12G05G04G27G02
 -16809574.14946 -13081930.00344  23768817.9224                   23768822.1994
   8596295.69047   6709380.38044  24022936.9304                   24022939.6844
 -23541121.74348 -19462475.36546  20856997.4534                   20856996.4924
 -55527167.25547 -43232335.42744  23206662.8444                   23206663.0124
 -18265125.87948 -14199340.20046  21327386.6254                   21327384.8054
  -9895136.73547  -7689906.15646  21982450.4614                   21982450.1134
 -43290352.69148 -33720184.66445  21662067.8284                   21662067.5634
 -28220258.98346 -21978442.77743  23969516.9694                   23969519.7154
 -35342843.02747 -27523482.41646  20558605.7974                   20558602.4024
 11  7 31  1 44 30.0000000  0  9G09G25G10G17G12G05G04G27G02
 -16798288.80946 -13073136.41044  23770967.0164                   23770969.8484
   8428136.58146   6578347.43343  23990936.5084                   23990939.5434
 -23612759.66548 -19518297.11746  20843365.0554                   20843363.4884
 -55541184.37447 -43243257.89144  23203995.8594                   23203995.0554
 -18390732.21148 -14297215.23546  21303484.1564                   21303483.4494
 -10055009.59347  -7814482.31646  21952027.2814                   21952026.6604
 -43283346.66548 -33714725.46245  21663401.3674                   21663400.8134
 -28225232.49446 -21982318.43643  23968570.4694                   23968574.9534
 -35412378.85148 -27577666.15646  20545373.6024                   20545369.8134
 11  7 31  1 45  0.0000000  0  9G09G25G10G17G12G05G04G27G02
 -16786850.03446 -13064223.22944  23773143.2504                   23773146.6254
   8260175.75946   6447468.95743  23958974.9694                   23958977.5904
 -23683756.91048 -19573619.64646  20829854.8054                   20829853.5864
 -55555033.99747 -43254049.83344  23201360.3984                   23201359.7584
 -18515881.32348 -14394734.00646  21279669.6644                   21279667.7504
 -10214567.53547  -7938813.12046  21921665.2504                   21921664.1684
 -43276188.73448 -33709147.87845  21664762.8134                   21664762.2934
 -28230144.67546 -21986146.28843  23967636.2664                   23967640.9024
 -35481613.82448 -27631615.45947  20532198.1804                   20532194.4774
 11  7 31  1 45 30.0000000  0  9G09G25G10G17G12G05G04G27G02
 -16775261.42946 -13055193.26644  23775348.1884                   23775351.7234
   8092415.71147   6316746.96843  23927051.7584                   23927053.6564
 -23754112.76947 -19628442.39546  20816466.5704                   20816465.3284
 -55568715.52947 -43264710.82344  23198756.6024                   23198756.0784
 -18640571.10548 -14491894.84346  21255941.5634                   21255939.9964
 -10373807.40947  -8062896.04646  21891362.6954                   21891362.0824
 -43268880.95648 -33703453.53445  21666153.7584                   21666153.7544
 -28234998.46246 -21989928.67443  23966711.7664                   23966716.7624
 -35550549.18248 -27685331.30746  20519080.5784                   20519076.9344
 11  7 31  1 46  0.0000000  0  9G09G25G10G17G12G05G04G27G02
 -16763527.43347 -13046050.06544  23777581.4454                   23777584.5784
   7924858.00347   6186182.60444  23895166.2664                   23895168.6484
 -23823828.41247 -19682766.26546  20803200.0704                   20803199.0234
 -55582230.07747 -43275241.68544  23196184.9064                   23196183.9694
 -18764800.45048 -14588696.90246  21232301.1414                   21232299.7504
 -10532728.24047  -8186730.38546  21861120.6804                   21861120.1524
 -43261426.47548 -33697644.85845  21667572.3054                   21667571.1524
 -28239797.55046 -21993668.35243  23965799.6254                   23965803.3754
 -35619187.38548 -27738815.61147  20506019.2504                   20506015.6484
 11  7 31  1 46 30.0000000  0  9G09G25G10G17G12G05G04G27G02
 -16751647.40246 -13036793.02344  23779842.3444                   23779845.2074
   7757509.31647   6055781.14844  23863321.0004                   23863323.9224
 -23892899.53148 -19736587.92146  20790056.1564                   20790055.4224
 -55595572.50646 -43285638.45344  23193645.7734                   23193645.1604
 -18888563.05948 -14685135.27446  21208750.1564                   21208748.2504
 -10691322.77547  -8310310.45946  21830941.4694                   21830940.3714
 -43253823.08648 -33691720.15945  21669019.3284                   21669019.0824
 -28244540.86246 -21997364.66343  23964897.1254                   23964900.9064
 -35687525.26447 -27792065.89846  20493014.7894                   20493010.9574
 11  7 31  1 47  0.0000000  0  9G09G25G10G17G12G05G04G27G02
 -16739630.83146 -13027429.66444  23782128.8284                   23782133.3094
   7590366.17847   5925539.83644  23831514.1024                   23831517.0554
 -23961331.76247 -19789911.75046  20777034.1644                   20777032.9494
 -55608749.11347 -43295905.98044  23191138.2504                   23191136.8134
 -19011862.96848 -14781213.10346  21185287.1724                   21185285.1094
 -10849594.25147  -8433638.81446  21800822.9384                   21800822.1414
 -43246078.93348 -33685685.79245  21670492.7584                   21670492.6564
 -28249237.31246 -22001024.43643  23964004.0634                   23964007.7504
 -35755570.13848 -27845087.86646  20480066.1724                   20480062.3244
 11  7 31  1 47 30.0000000  0  9G09G25G10G17G12G05G04G27G02
 -16727483.11947 -13017964.08444  23784441.2424                   23784445.1564
   7423428.96747   5795458.95244  23799747.6334                   23799749.8954
 -24029127.40347 -19842739.51646  20764133.0234                   20764131.6024
 -55621761.48947 -43306045.58044  23188662.8444                   23188662.4344
 -19134700.36348 -14876930.54146  21161911.6804                   21161910.0124
 -11007542.12747  -8556714.99646  21770766.0314                   21770766.4384
 -43238198.18648 -33679544.96645  21671993.0394                   21671992.1954
 -28253891.57446 -22004651.25143  23963117.8284                   23963121.7624
 -35823325.27148 -27897884.05547  20467172.7734                   20467169.1454
 11  7 31  1 48  0.0000000  0  9G09G25G10G17G12G05G04G27G02
 -16715201.47447 -13008394.09244  23786778.5314                   23786780.6294
   7256706.71047   5665545.61144  23768021.7894                   23768024.1604
 -24096280.02947 -19895066.22946  20751354.0164                   20751352.9964
 -55634602.37447 -43316051.53244  23186219.1024                   23186217.8714
 -19257066.43548 -14972280.70346  21138625.9534                   21138624.8324
 -11165157.30247  -8679531.95346  21740773.4924                   21740772.1374
 -43230176.40947 -33673294.25745  21673519.0314                   21673519.0124
 -28258500.07246 -22008242.46643  23962241.7894                   23962246.4654
 -35890785.27448 -27950450.28347  20454335.7974                   20454331.9144
 11  7 31  1 48 30.0000000  0  9G09G25G10G17G12G05G04G27G02
 -16702791.01847 -12998723.72143  23789139.8054                   23789142.7194
   7090200.34247   5535800.46644  23736336.7734                   23736338.9304
 -24162791.19948 -19946893.12846  20738697.3364                   20738697.0394
 -55647273.63847 -43325925.25544  23183807.7194                   23183807.3874
 -19378960.67248 -15067263.19246  21115430.7114                   21115428.5474
 -11322438.41447  -8802088.59046  21710844.4694                   21710843.3874
 -43222017.13448 -33666936.41345  21675072.2344                   21675070.3444
 -28263067.26346 -22011801.50443  23961371.1644                   23961376.4694
 -35957952.91048 -28002788.69147  20441554.0784                   20441550.2934
 11  7 31  1 49  0.0000000  0  9G09G25G10G17G12G05G04G27G02
 -16690256.84147 -12988957.00944  23791525.8134                   23791528.7544
   6923910.93347   5406224.38144  23704691.5004                   23704695.3164
 -24228662.54048 -19998221.43746  20726162.8674                   20726161.5314
 -55659776.09946 -43335667.45644  23181428.3984                   23181427.7854
 -19500382.78748 -15161877.81346  21092324.4694                   21092322.5784
 -11479384.43247  -8924384.11746  21680977.6564                   21680976.8204
 -43213723.95547 -33660474.22645  21676649.7034                   21676648.9574
 -28267597.50546 -22015331.72143  23960510.3754                   23960514.6994
 -36024830.96648 -28054901.45347  20428827.5394                   20428823.9304
 11  7 31  1 49 30.0000000  0  9G09G25G10G17G12G05G04G27G02
 -15102184.80647 -11751498.38444  24093725.9224                   24093728.2664
   8333264.40347   6504421.97944  23972882.9614                   23972886.3874
 -22718473.82447 -18821451.01746  21013542.0864                   21013540.8134
 -54096691.11747 -42117679.23944  23478873.1954                   23478872.5474
 -18045909.18848 -14028521.74746  21369101.8674                   21369100.0984
 -10060569.33847  -7818813.84946  21950968.8674                   21950968.4534
 -41629881.24647 -32426311.10245  21978045.8054                   21978045.3554
 -26696675.65846 -20791236.96743  24259446.9384                   24259451.7154
 -34516000.56948 -26879189.44346  20715948.8594                   20715944.9144
 11  7 31  1 50  0.0000000  0  9G09G25G10G17G12G05G04G27G02
 -15089417.55247 -11741550.06544  24096155.8054                   24096158.0594
   8167412.11347   6375186.51544  23941322.2734                   23941325.0204
 -22783069.81447 -18871785.56246  21001250.1024                   21001248.4964
 -54108859.22847 -42127160.92444  23476558.5634                   23476557.2774
 -18166385.52348 -14122399.39046  21346176.0084                   21346174.3874
 -10216841.21947  -7940584.07346  21921231.9384                   21921231.0594
 -41621330.50948 -32419648.21745  21979671.9924                   21979671.4654
 -26701144.96746 -20794719.74244  24258597.4614                   24258601.0204
 -34582307.65248 -26930857.30246  20703330.4454                   20703326.5394
 11  7 31  1 50 30.0000000  0  9G09G25G10G17G12G05G04G27G02
 -15076539.58947 -11731515.48644  24098606.4144                   24098609.3484
   8001781.67247   6246123.91044  23909803.5864                   23909806.2464
 -22847028.75048 -18921623.69146  20989079.1564                   20989077.5394
 -54120860.35647 -42136512.45544  23474274.8134                   23474274.3404
 -18286386.29548 -14215906.47746  21323340.7274                   21323338.8484
 -10372772.51247  -8062088.90046  21891558.8284                   21891558.6844
 -41612654.46148 -32412887.69245  21981324.1254                   21981323.1804
 -26705588.80646 -20798182.57544  24257751.7114                   24257755.6764
 -34648331.69048 -26982304.60047  20690766.5084                   20690762.8054
 11  7 31  1 51  0.0000000  0  9G09G25G10G17G12G05G04G27G02
 -15063553.27446 -11721396.47743  24101076.7034                   24101080.1454
   7836376.59747   6117236.90744  23878328.3054                   23878332.1174
 -22910349.95748 -18970964.89746  20977029.0634                   20977028.1604
 -54132693.31747 -42145732.99744  23472022.6334                   23472021.9344
 -18405908.77448 -14309040.87046  21300596.3284                   21300595.0124
 -10528359.59047  -8183325.53446  21861951.5164                   21861950.8014
 -41603854.43748 -32406030.54645  21982997.9534                   21982996.7934
 -26710008.56846 -20801626.63543  24256909.9384                   24256914.8754
 -34714073.06648 -27033531.63946  20678256.4144                   20678252.9024
 11  7 31  1 51 30.0000000  0  9G09G25G10G17G12G05G04G27G02
 -15050464.08846 -11711197.31544  24103567.6334                   24103572.4264
   7671197.48047   5988525.98344  23846896.2734                   23846898.4064
 -22973035.42148 -19019810.71446  20965100.4534                   20965099.3404
 -54144359.44347 -42154823.50944  23469802.4844                   23469802.3014
 -18524952.89948 -14401802.51446  21277942.8444                   21277941.5124
 -10683602.00247  -8304293.57046  21832409.4454                   21832409.0944
 -41594934.12548 -32399079.68745  21984695.5314                   21984695.1374
 -26714409.23746 -20805055.90043  24256072.2894                   24256077.8754
 -34779534.61548 -27084540.64146  20665799.7194                   20665795.4844
 11  7 31  1 52  0.0000000  0  9G09G25G10G17G12G05G04G27G02
 -15037275.24946 -11700920.41644  24106077.0864                   24106081.4534
   7506247.14347   5859993.31844  23815506.4614                   23815508.5944
 -23035085.29348 -19068161.26546  20953293.4614                   20953291.4574
 -54155858.54947 -42163783.87844  23467614.4304                   23467614.4774
 -18643516.54048 -14494189.75246  21255380.7974                   21255378.8554
 -10838496.51748  -8424990.52446  21802934.3444                   21802933.4694
 -41585895.27947 -32392036.46745  21986415.1724                   21986415.0434
 -26718793.35046 -20808472.24143  24255238.0084                   24255243.4224
 -34844717.66548 -27135332.61846  20653395.6334                   20653391.2934
 11  7 31  1 52 30.0000000  0  9G09G25G10G17G12G05G04G27G02
 -15023987.76546 -11690566.75143  24108606.8364                   24108609.7584
   7341530.45747   5731642.73544  23784161.5784                   23784164.2114
 -23096497.64748 -19116015.03546  20941606.5084                   20941605.3164
 -54167187.71447 -42172611.85345  23465459.8054                   23465458.8554
 -18761595.32448 -14586199.18746  21232911.3594                   21232909.0594
 -10993038.25648  -8545412.59946  21773525.9304                   21773525.3594
 -41576737.51248 -32384900.58045  21988158.4614                   21988158.1254
 -26723161.39746 -20811876.02443  24254407.7894                   24254411.6134
 -34909620.81648 -27185906.51046  20641045.0944                   20641040.9844
 11  7 31  1 53  0.0000000  0  9G09G25G10G17G12G05G04G27G02
 -15010605.64146 -11680139.24743  24111153.3984                   24111156.1844
   7177049.59547   5603475.91944  23752862.1174                   23752863.8054
 -23157272.92248 -19163372.42046  20930041.4924                   20930039.9224
 -54178347.11647 -42181307.52644  23463334.7424                   23463334.4924
 -18879187.67348 -14677829.58846  21210534.0164                   21210532.4534
 -11147224.95647  -8665558.03046  21744185.1484                   21744184.3014
 -41567463.14948 -32377673.82545  21989923.2664                   21989922.8364
 -26727516.67246 -20815269.93443  24253579.1174                   24253583.8484
 -34974245.89048 -27236263.71047  20628747.1094                   20628743.6374
 11  7 31  1 53 30.0000000  0  9G09G25G10G17G12G05G04G27G02
 -14997133.25846 -11669641.50243  24113716.7584                   24113721.5434
   7012806.23647   5475494.15744  23721607.4064                   23721609.4304
 -23217412.36948 -19210234.31446  20918597.1024                   20918595.4884
 -54189337.23947 -42189871.31444  23461244.4614                   23461243.3714
 -18996292.80048 -14769080.32946  21188249.6024                   21188248.0474
 -11301054.99448  -8785425.51946  21714912.1724                   21714911.5704
 -41558075.02247 -32370358.45845  21991709.6884                   21991709.7384
 -26731862.73546 -20818656.56643  24252751.9924                   24252756.6134
 -35038594.96448 -27286405.85946  20616502.2344                   20616498.5784
 11  7 31  1 54  0.0000000  0  9G09G25G10G17G12G05G04G27G02
 -14983573.46146 -11659075.66043  24116298.3444                   24116301.3134
   6848803.40447   5347699.80144  23690399.0314                   23690400.4964
 -23276915.79448 -19256600.61946  20907273.8134                   20907272.5514
 -54200157.28946 -42198302.56944  23459185.0784                   23459185.4304
 -19112907.81648 -14859949.17346  21166059.0634                   21166056.7934
 -11454525.52747  -8905012.89246  21685707.5634                   21685706.5514
 -41548574.56747 -32362955.52345  21993517.0084                   21993517.0434
 -26736202.08946 -20822038.07143  24251925.9924                   24251929.5084
 -35102668.95548 -27336333.64146  20604309.2974                   20604305.4804
 11  7 31  1 54 30.0000000  0  9G09G25G10G17G12G05G04G27G02
 -14969933.45546 -11648447.21644  24118893.5474                   24118897.3834
   6685039.87747   5220091.88944  23659235.4924                   23659237.8554
 -23335787.43048 -19302474.61846  20896071.3284                   20896069.6954
 -54210810.66647 -42206603.94244  23457157.5164                   23457157.8204
 -19229035.26848 -14950438.09346  21143960.3524                   21143958.6174
 -11607637.26947  -9024320.70046  21656571.3674                   21656570.2504
 -41538967.56647 -32355469.57345  21995346.3054                   21995345.5744
 -26740541.15445 -20825419.21542  24251099.2114                   24251105.2814
 -35166472.83148 -27386050.95147  20592167.7034                   20592164.1644
 11  7 31  1 55  0.0000000  0  9G09G25G10G17G12G05G04G27G02
 -14956213.97146 -11637756.88243  24121504.8674                   24121508.0434
   6521520.65547   5092674.39244  23628118.7424                   23628120.9614
 -23394025.33448 -19347854.79246  20884989.2734                   20884986.6334
 -54221294.58047 -42214773.24344  23455163.2664                   23455162.6914
 -19344670.80448 -15040543.70746  21121955.8984                   21121953.7544
 -11760385.23947  -9143345.01146  21627504.3754                   21627503.3714
 -41529253.35647 -32347900.09245  21997193.7424                   21997192.9224
 -26744880.28345 -20828800.52342  24250275.0164                   24250280.5474
 -35230005.42148 -27435556.88046  20580077.9144                   20580074.2934
 11  7 31  1 55 30.0000000  0  9G09G25G10G17G12G05G04G27G02
 -14942417.49946 -11627006.57543  24124129.5474                   24124133.0354
   6358249.47947   4965450.16144  23597050.0004                   23597051.6484
 -23451628.51248 -19392740.37646  20874027.2274                   20874026.0274
 -54231608.33247 -42222810.00644  23453200.0704                   23453199.6094
 -19459810.97548 -15130263.30446  21100044.9144                   21100043.4224
 -11912765.70247  -9262082.98646  21598507.2504                   21598507.4694
 -41519432.82447 -32340247.74645  21999062.7344                   21999062.4574
 -26749221.17845 -20832183.19542  24249447.9774                   24249452.8754
 -35293266.80048 -27484851.46546  20568039.5164                   20568035.9614
 11  7 31  1 56  0.0000000  0  9G09G25G10G17G12G05G04G27G02
 -14928546.93946 -11616198.52043  24126768.7504                   24126772.8364
   6195229.44447   4838421.63444  23566027.7034                   23566029.6214
 -23508597.21548 -19437131.56446  20863186.5164                   20863185.7854
 -54241750.60346 -42230713.11844  23451269.3364                   23451268.7344
 -19574453.64448 -15219595.25046  21078229.1954                   21078227.7424
 -12064775.39447  -9380532.03846  21569580.6564                   21569580.6844
 -41509507.38347 -32332513.66245  22000951.6564                   22000950.9494
 -26753566.03945 -20835569.00042  24248621.6414                   24248626.4454
 -35356257.53348 -27533935.16146  20556052.8054                   20556049.3444
 11  7 31  1 56 30.0000000  0  9G09G25G10G17G12G05G04G27G02
 -14914606.61847 -11605336.10144  24129422.8054                   24129426.7504
   6032462.15747   4711590.03144  23535053.9384                   23535056.6764
 -23564932.47948 -19481029.17146  20852466.5864                   20852464.8594
 -54251722.02346 -42238483.15244  23449372.3364                   23449372.7194
 -19688598.05548 -15308538.94046  21056508.4144                   21056507.0314
 -12216412.87447  -9498691.05546  21540725.2034                   21540724.4414
 -41499479.54647 -32324699.78745  22002860.5394                   22002860.3054
 -26757918.79646 -20838960.92243  24247794.6024                   24247799.0904
 -35418979.98348 -27582809.79346  20544117.4064                   20544113.4264
 11  7 31  1 57  0.0000000  0  9G09G25G10G17G12G05G04G27G02
 -14900600.89346 -11594422.67744  24132087.4844                   24132091.3244
   5869949.55047   4584956.89844  23504129.2424                   23504130.4384
 -23620635.84648 -19524434.37546  20841866.6334                   20841865.4414
 -54261522.74347 -42246120.14044  23447508.2274                   23447506.9264
 -19802243.17048 -15397093.56646  21034882.9064                   21034881.3834
 -12367676.21947  -9616558.53746  21511940.5164                   21511939.7934
 -41489351.96548 -32316808.18445  22004787.9614                   22004786.7974
 -26762282.74146 -20842361.63043  24246963.9064                   24246969.9574
 -35481436.13848 -27631476.94146  20532232.2424                   20532228.7194
 11  7 31  1 57 30.0000000  0  9G09G25G10G17G12G05G04G27G02
 -14886533.88947 -11583461.54143  24134764.6414                   24134768.6454
   5707692.88147   4458523.19544  23473252.6564                   23473254.4344
 -23675708.79348 -19567348.35046  20831386.3204                   20831385.0904
 -54271154.25046 -42253625.30544  23445674.8984                   23445675.3094
 -19915388.03948 -15485258.38046  21013351.8674                   21013350.0554
 -12518564.00048  -9734133.38346  21483227.5554                   21483226.7664
 -41479128.00747 -32308841.48145  22006733.2114                   22006732.6724
 -26766661.90346 -20845774.10843  24246130.0084                   24246135.4144
 -35543628.42648 -27679938.46746  20520397.6724                   20520393.7114
 11  7 31  1 58  0.0000000  0  9G09G25G10G17G12G05G04G27G02
 -14872407.50347 -11572454.08944  24137452.6174                   24137457.2854
   5545696.48347   4332292.30344  23442424.8914                   23442427.4884
 -23730150.11148 -19609770.14446  20821026.6484                   20821025.4884
 -54280614.28847 -42260996.82244  23443875.0634                   23443875.5554
 -20028029.55648 -15573030.98146  20991916.6334                   20991915.5164
 -12669072.06847  -9851412.31046  21454586.8594                   21454586.2114
 -41468807.51547 -32300799.53245  22008697.0944                   22008695.8014
 -26771057.28346 -20849199.29643  24245294.2194                   24245299.7194
 -35605556.37748 -27728194.01846  20508612.7584                   20508608.7034
 11  7 31  1 58 30.0000000  0  9G09G25G10G17G12G05G04G27G02
 -14858223.71946 -11561401.96843  24140151.9064                   24140156.7704
   5383964.31347   4206267.28044  23411648.7424                   23411650.2304
 -23783959.19248 -19651699.30446  20810787.2814                   20810785.6644
 -54289901.28946 -42268233.48143  23442107.7814                   23442107.1374
 -20140164.23948 -15660408.64046  20970578.1334                   20970576.6804
 -12819196.65247  -9968392.47246  21426019.0164                   21426017.7464
 -41458391.06447 -32292682.84345  22010678.9144                   22010678.6294
 -26775470.35246 -20852638.22443  24244454.7814                   24244459.5984
 -35667219.95748 -27776243.56446  20496878.7894                   20496875.1564
 11  7 31  1 59  0.0000000  0  9G09G25G10G17G12G05G04G27G02
 -14843984.70846 -11550306.77743  24142861.9614                   24142864.7274
   5222499.94447   4080450.95544  23380923.4064                   23380925.5314
 -23837135.52147 -19693135.39346  20800667.4064                   20800666.1684
 -54299013.73947 -42275334.24644  23440374.0004                   23440372.1454
 -20251789.98147 -15747389.71846  20949336.5474                   20949334.3404
 -12968934.05548 -10085070.89846  21397525.1724                   21397524.0944
 -41447879.48647 -32284492.04645  22012679.8054                   22012679.5004
 -26779902.67946 -20856092.18443  24243611.7734                   24243616.6604
 -35728619.27348 -27824087.18947  20485194.9304                   20485191.4384
 11  7 31  1 59 30.0000000  0  9G09G25G10G17G12G05G04G27G02
 -14829697.64346 -11539174.16543  24145580.6724                   24145585.6414
   5061302.28347   3954842.45644  23350248.3594                   23350250.4224
 -23889684.01747 -19734082.25746  20790668.3834                   20790667.0664
 -54307955.28246 -42282301.77043  23438672.8674                   23438672.5394
 -20362908.30648 -15833975.40846  20928191.6174                   20928189.8984
 -13118285.40147 -10201448.52546  21369104.4924                   21369102.8164
 -41437278.38747 -32276231.46945  22014696.6024                   22014695.9844
 -26784360.74246 -20859566.19744  24242763.0864                   24242768.8634
 -35789759.21848 -27871728.71246  20473560.2344                   20473556.5434
 11  7 31  2  0  0.0000000  0  9G09G25G10G17G12G05G04G27G02
 -14815366.54546 -11528007.20043  24148306.6024                   24148312.4614
   4900373.05347   3829443.15644  23319624.4694                   23319626.6374
 -23941605.72248 -19774540.72446  20780787.6884                   20780786.1914
 -54316726.53446 -42289136.60743  23437003.6884                   23437001.6374
 -20473518.09448 -15920164.83346  20907143.0084                   20907141.3834
 -13267248.84848 -10317523.88846  21340756.9224                   21340755.6724
 -41426590.20347 -32267903.04645  22016731.4454                   22016729.8324
 -26788848.15346 -20863063.17644  24241909.6724                   24241915.6054
 -35850642.20848 -27919170.00246  20461974.4454                   20461971.3054
 11  7 31  2  0 30.0000000  0  9G09G25G10G17G12G05G04G27G02
 -13225572.51446 -10289206.82543  24450835.6254                   24450840.2504
   6315143.04047   4931861.37244  23588846.7894                   23588848.3674
 -22417476.89647 -18586907.86146  21070819.9384                   21070818.2734
 -52749904.08846 -41068236.11643  23735160.6724                   23735160.7114
 -19008191.56847 -14778351.93246  21185985.1564                   21185983.5514
 -11840394.36048  -9205689.16746  21612278.9774                   21612277.9614
 -39840394.28247 -31031906.24045  22318573.9614                   22318572.5904
 -25217944.78146 -19638982.84543  24540842.8284                   24540848.3674
 -34335844.47048 -26738808.13046  20750231.2344                   20750227.1174
 11  7 31  2  1  0.0000000  0  9G09G25G10G17G12G05G04G27G02
 -13211160.97046 -10277977.16443  24453578.7424                   24453582.8594
   6154761.36747   4806888.72644  23558326.6414                   23558328.6484
 -22468144.58947 -18626389.16946  21061178.1954                   21061176.5354
 -52758330.91446 -41074802.52643  23733555.7274                   23733555.2304
 -19117777.28448 -14863743.38146  21165132.1954                   21165129.9454
 -11988572.15148  -9321152.32346  21584081.4384                   21584080.4924
 -39829534.63747 -31023444.19945  22320640.4694                   22320640.4654
 -25222496.42746 -19642529.79143  24539976.4064                   24539981.1294
 -34396213.96248 -26785849.29747  20738743.3594                   20738739.3444
 11  7 31  2  1 30.0000000  0  9G09G25G10G17G12G05G04G27G02
 -13196717.35546 -10266722.58643  24456326.9924                   24456331.5124
   5994654.20547   4682130.00144  23527858.7974                   23527861.2154
 -22518189.17347 -18665384.95346  21051655.1564                   21051653.4104
 -52766588.19746 -41081236.83743  23731986.0474                   23731984.7074
 -19226851.06447 -14948735.91146  21144375.7504                   21144374.2194
 -12136356.46348  -9436308.87546  21555958.9844                   21555958.0474
 -39818594.80747 -31014919.68645  22322722.2664                   22322721.7344
 -25227087.25746 -19646107.23043  24539103.4224                   24539109.1024
 -34456331.86348 -26832694.41847  20727302.9144                   20727299.4144
 11  7 31  2  2  0.0000000  0  9G09G25G10G17G12G05G04G27G02
 -13182243.91746 -10255444.72543  24459081.3834                   24459084.7814
   5834825.02247   4557587.86744  23497444.6884                   23497446.6414
 -22567610.68347 -18703895.19946  21042250.4224                   21042248.7424
 -52774675.18046 -41087538.43244  23730446.5314                   23730445.6134
 -19335410.93047 -15033328.00046  21123717.4534                   21123716.1564
 -12283743.75248  -9551156.07046  21527911.9454                   21527910.6334
 -39807576.04047 -31006333.65845  22324818.9144                   22324818.4344
 -25231719.18146 -19649716.78243  24538222.2274                   24538227.3984
 -34516198.44848 -26879343.70346  20715910.5084                   20715907.4384
 11  7 31  2  2 30.0000000  0  9G09G25G10G17G12G05G04G27G02
 -13167740.76546 -10244143.72343  24461841.6884                   24461845.2544
   5675279.64147   4433266.87644  23467083.7344                   23467085.7734
 -22616406.77547 -18741918.12146  21032964.6174                   21032963.5004
 -52782588.10546 -41093704.40544  23728941.2814                   23728940.3284
 -19443451.80848 -15117515.67446  21103158.2504                   21103156.2704
 -12430728.38548  -9665689.51546  21499941.8674                   21499941.2154
 -39796476.60247 -30997684.75045  22326931.6334                   22326929.4344
 -25236391.58046 -19653357.87043  24537333.7034                   24537340.7304
 -34575811.61148 -26925795.52446  20704566.9844                   20704562.7234
 11  7 31  2  3  0.0000000  0  9G09G25G10G17G12G05G04G27G02
 -13153210.33046 -10232821.50144  24464605.9614                   24464611.3554
   5516021.41147   4309169.61844  23436777.8914                   23436779.9804
 -22664577.60347 -18779453.83646  21023798.1954                   21023796.9774
 -52790326.08246 -41099734.05543  23727468.0634                   23727467.7544
 -19550971.31348 -15201297.09346  21082697.5004                   21082695.5474
 -12577307.27548  -9779906.76146  21472048.7584                   21472048.2704
 -39785297.43947 -30988973.71845  22329058.1334                   22329057.6804
 -25241106.31446 -19657031.79243  24536436.2664                   24536441.7814
 -34635171.92348 -26972050.31446  20693270.7894                   20693267.2704
 11  7 31  2  3 30.0000000  0  9G09G25G10G17G12G05G04G27G02
 -13138659.63246 -10221483.38243  24467375.3594                   24467381.1094
   5357049.53247   4185295.52645  23406527.0164                   23406529.6564
 -22712127.43347 -18816505.63846  21014750.0634                   21014748.2624
 -52797892.18346 -41105629.73743  23726027.9924                   23726028.0274
 -19657971.45447 -15284673.80346  21062336.1174                   21062334.2664
 -12723481.19248  -9893808.46246  21444232.3834                   21444231.3714
 -39774043.79447 -30980204.68045  22331200.0784                   22331199.9024
 -25245869.60146 -19660743.71542  24535530.5634                   24535535.1994
 -34694284.13848 -27018111.78346  20682022.1884                   20682018.6174
 11  7 31  2  4  0.0000000  0  9G09G25G10G17G12G05G04G27G02
 -13124092.45346 -10210132.52243  24470147.6174                   24470151.6334
   5198365.77447   4061645.95044  23376330.2894                   23376331.2234
 -22759057.78748 -18853074.72046  21005819.1174                   21005817.7854
 -52805287.01447 -41111391.99443  23724622.0944                   23724620.6644
 -19764451.17647 -15367645.01046  21042073.5394                   21042072.1764
 -12869248.70748 -10007393.48746  21416494.2504                   21416493.6334
 -39762718.35347 -30971379.67045  22333355.0164                   22333353.9304
 -25250684.84846 -19664496.16643  24534614.5084                   24534618.6914
 -34753150.37748 -27063981.57246  20670820.3984                   20670815.9964
 11  7 31  2  4 30.0000000  0  8G09G25G10G17G12G05G04G02
 -13109511.91346 -10198771.20643  24472922.5864                   24472926.1454
   5039973.23247   3938223.26945  23346189.0864                   23346190.3794
 -22805369.13047 -18889161.47646  20997006.4924                   20997004.5784
 -52812509.85146 -41117020.26143  23723247.5084                   23723246.8444
 -19870408.47448 -15450209.12246  21021910.9454                   21021908.9024
 -13014606.68548 -10120659.39246  21388833.2974                   21388832.7854
 -39751321.83447 -30962499.26945  22335523.6884                   22335523.6994
 -34811771.20848 -27109660.15446  20659665.2114                   20659661.7704
 11  7 31  2  5  0.0000000  0  8G09G25G10G17G12G05G04G02
 -13094918.33546 -10187399.67143  24475698.6724                   24475703.2114
   4881877.21447   3815031.64044  23316104.2034                   23316105.9224
 -22851059.84148 -18924764.61646  20988311.8134                   20988310.4264
 -52819557.73546 -41122512.09443  23721905.2664                   23721905.5004
 -19975838.85048 -15532362.64846  21001848.1174                   21001846.1024
 -13159550.09748 -10233602.24846  21361251.0554                   21361249.5784
 -39739853.58347 -30953562.98145  22337706.1884                   22337705.2154
 -34870145.02548 -27155146.24547  20648556.7734                   20648553.4734
 11  7 31  2  5 30.0000000  0  8G09G25G10G17G12G05G04G02
 -13080308.50646 -10176015.58443  24478479.2504                   24478485.1414
   4724086.59047   3692078.01844  23286077.8834                   23286079.1914
 -22896124.42848 -18959879.86846  20979736.2424                   20979735.5944
 -52826424.01246 -41127862.52243  23720599.0704                   23720598.7034
 -20080734.91048 -15614099.85146  20981887.0634                   20981884.9964
 -13304070.22448 -10346215.28346  21333749.8834                   21333749.2544
 -39728308.83447 -30944567.05945  22339902.5004                   22339902.2664
 -34928266.92548 -27200436.03846  20637496.9304                   20637492.7304
 11  7 31  2  6  0.0000000  0  8G09G25G10G17G12G05G04G02
 -13065682.56546 -10164618.88643  24481263.8754                   24481266.8444
   4566606.98547   3569366.68244  23256109.8914                   23256111.6454
 -22940560.95448 -18994505.73746  20971280.2814                   20971278.8554
 -52833105.77846 -41133069.06644  23719327.7734                   23719327.0354
 -20185091.96048 -15695417.01046  20962028.7504                   20962027.2074
 -13448161.72448 -10458494.30546  21306330.1724                   21306328.8714
 -39716686.33447 -30935510.58245  22342114.9694                   22342114.6054
 -34986135.16748 -27245528.16546  20626484.6334                   20626481.2424
 11  7 31  2  6 30.0000000  0  8G09G25G10G17G12G05G04G02
 -13051050.88946 -10153217.73543  24484047.2344                   24484053.5084
   4409434.03447   3446894.37344  23226200.5234                   23226202.4614
 -22984377.24548 -19028648.26746  20962942.4144                   20962940.2504
 -52839609.61246 -41138137.06343  23718089.9694                   23718088.6994
 -20288915.50848 -15776318.46646  20942271.8204                   20942269.7734
 -13591829.01648 -10570442.79846  21278991.2974                   21278990.2424
 -39704994.39247 -30926400.01444  22344339.4534                   22344339.4614
 -35043758.30348 -27290429.30846  20615519.4774                   20615515.9224
 11  7 31  2  7  0.0000000  0  8G09G25G10G17G12G05G04G02
 -13036419.87646 -10141816.99943  24486832.2584                   24486836.7424
   4252567.07747   3324660.44945  23196350.1414                   23196351.1684
 -23027577.75248 -19062310.98146  20954721.6644                   20954720.1564
 -52845938.72746 -41143068.87443  23716885.6644                   23716886.1054
 -20392207.22148 -15856805.51046  20922615.8364                   20922613.9344
 -13735072.95748 -10682061.40046  21251732.6484                   21251731.8674
 -39693238.09647 -30917239.27445  22346577.1484                   22346576.1334
 -35101140.35248 -27335142.58846  20604600.2504                   20604596.2544
 11  7 31  2  7 30.0000000  0  8G09G25G10G17G12G05G04G02
 -13021795.31746 -10130421.49343  24489615.1024                   24489618.7234
   4096006.23547   3202665.03344  23166557.1414                   23166559.2274
 -23070165.69848 -19095496.39346  20946617.3364                   20946615.5514
 -52852095.37746 -41147866.29543  23715713.7584                   23715714.8134
 -20494968.21648 -15936879.01346  20903061.1954                   20903058.9694
 -13877893.71648 -10793350.23946  21224554.5394                   21224553.5634
 -39681421.55847 -30908031.60545  22348825.1484                   22348825.2154
 -35158285.02048 -27379670.90946  20593726.2974                   20593721.9264
 11  7 31  2  8  0.0000000  0  8G09G25G10G17G12G05G04G02
 -13007179.92246 -10119033.03542  24492396.7274                   24492401.4344
   3939754.56847   3080910.57344  23136823.6564                   23136825.3054
 -23112141.88748 -19128205.10146  20938629.1564                   20938628.2504
 -52858078.66346 -41152528.68043  23714575.2424                   23714574.2664
 -20597196.63848 -16016537.52146  20883607.6564                   20883605.5984
 -14020288.36348 -10904307.04746  21197458.0864                   21197457.7544
 -39669545.88847 -30898777.85145  22351085.5784                   22351084.6454
 -35215193.05348 -27424014.82046  20582896.6024                   20582893.1414
 11  7 31  2  8 30.0000000  0  8G09G25G10G17G12G05G04G02
 -12992577.27346 -10107654.59743  24495175.3914                   24495178.7704
   3783814.43447   2959398.81945  23107148.9774                   23107151.3204
 -23153507.92647 -19160438.35946  20930758.1094                   20930756.3954
 -52863888.50446 -41157055.92243  23713469.9454                   23713469.6684
 -20698891.18648 -16095780.02246  20864255.6484                   20864253.8594
 -14162254.99748 -11014930.34246  21170442.7034                   21170441.4224
 -39657612.87747 -30889479.42345  22353356.3984                   22353355.5354
 -35271866.16448 -27468175.68146  20572111.9534                   20572108.7974
 11  7 31  2  9  0.0000000  0  8G09G25G10G17G12G05G04G02
 -12977991.64945 -10096289.28143  24497950.3444                   24497955.4614
   3628187.10547   2838130.81844  23077534.6094                   23077535.6884
 -23194266.10247 -19192197.95746  20923001.4384                   20923000.3014
 -52869526.11546 -41161448.92344  23712397.0234                   23712397.6134
 -20800051.59748 -16174606.31446  20845005.4454                   20845004.1374
 -14303792.57848 -11125219.31646  21143508.9614                   21143507.7304
 -39645625.67247 -30880138.76645  22355636.8914                   22355637.0904
 -35328306.57948 -27512155.22246  20561371.8054                   20561368.2464
 11  7 31  2  9 30.0000000  0  8G09G25G10G17G12G05G04G02
 -12963424.56346 -10084938.51943  24500723.0084                   24500728.4454
   3472876.85647   2717109.91145  23047979.0944                   23047981.6454
 -23234415.81047 -19223483.43246  20915361.5084                   20915360.0474
 -52874990.36046 -41165706.81543  23711358.0944                   23711356.9734
 -20900674.87947 -16253014.06046  20825857.4534                   20825856.0944
 -14444896.94448 -11235170.71146  21116657.2344                   21116657.0824
 -39633583.77947 -30870755.50044  22357928.6024                   22357927.8794
 -35384513.94848 -27555953.15346  20550675.5704                   20550671.8204
 11  7 31  2 10  0.0000000  0  8G09G25G10G17G12G05G04G02
 -12948882.45546 -10073607.23144  24503490.4064                   24503496.4494
   3317883.23947   2596335.71145  23018485.7034                   23018487.1804
 -23273961.27148 -19254298.06746  20907835.6724                   20907834.5204
 -52880283.11546 -41169831.09343  23710350.2114                   23710350.9024
 -21000762.93048 -16331004.73546  20806811.4454                   20806809.8634
 -14585568.99948 -11344785.24046  21089889.0164                   21089887.3364
 -39621492.03747 -30861333.35744  22360229.8364                   22360228.9384
 -35440492.65348 -27599572.91446  20540023.6884                   20540019.6684
 11  7 31  2 10 30.0000000  0  8G09G25G10G17G12G05G04G02
 -12934365.36046 -10062295.41843  24506253.0474                   24506258.8014
   3163211.72547   2475812.47945  22989052.5704                   22989053.6254
 -23312900.99947 -19284640.71446  20900426.0634                   20900424.6294
 -52885401.78846 -41173819.66143  23709376.7424                   23709375.9964
 -21100311.23447 -16408574.82746  20787868.1414                   20787866.2774
 -14725803.56748 -11454058.87746  21063202.1804                   21063202.1914
 -39609349.07847 -30851871.34744  22362540.2814                   22362539.5704
 -35496240.99648 -27643013.18046  20529414.6644                   20529410.9264
 11  7 31  2 11  0.0000000  0  8G09G25G10G17G12G05G04G02
 -12919880.82346 -10051008.94944  24509009.9924                   24509014.5204
   3008860.27547   2355538.65445  22959680.3364                   22959681.8524
 -23351240.60647 -19314515.73746  20893130.3054                   20893128.8444
 -52890350.64046 -41177675.98943  23708434.6644                   23708434.0124
 -21199323.24648 -16485727.03746  20769026.7814                   20769024.4144
 -14865603.03348 -11562993.46746  21036599.3834                   21036598.6054
 -39597161.01747 -30842374.13645  22364859.9224                   22364859.0124
 -35551764.84048 -27686278.50346  20518848.8444                   20518845.2154
 11  7 31  2 11 30.0000000  0  8G09G25G10G17G12G05G04G02
 -12905432.42046 -10039750.68144  24511759.4924                   24511764.9804
   2854831.40747   2235516.19545  22930369.2584                   22930370.9734
 -23388981.63747 -19343924.33146  20885948.4924                   20885947.2304
 -52895129.69846 -41181399.94243  23707524.5394                   23707525.5704
 -21297797.82747 -16562460.46746  20750287.6024                   20750286.5634
 -15004964.98248 -11671587.13846  21010079.8914                   21010078.4264
 -39584929.47447 -30832843.09145  22367187.8524                   22367187.1644
 -35607065.23848 -27729369.71446  20508325.7274                   20508322.0164
 11  7 31  2 12  0.0000000  0  8G09G25G10G17G12G05G04G02
 -11315602.64846  -8800922.56544  24814293.6804                   24814299.8524
   4276553.81747   3343351.89945  23200913.7734                   23200915.1374
 -21850702.99147 -18145265.63446  21178673.1414                   21178671.6214
 -51324317.77046 -39957390.70343  24006440.9614                   24006441.2154
 -19820309.12147 -15411170.54646  21031444.3594                   21031442.3524
 -13568461.61648 -10552233.80146  21283437.4224                   21283436.7274
 -37997235.38747 -29595678.90844  22669315.3524                   22669315.2734
 -34086720.75748 -26544685.70046  20797637.7814                   20797634.2584
 11  7 31  2 12 30.0000000  0  8G09G25G10G17G12G05G04G02
 -11301231.46147  -8789724.43744  24817029.1174                   24817033.7114
   4123181.83347   3223841.28145  23171728.4694                   23171730.5904
 -21887246.52047 -18173741.11646  21171719.1414                   21171717.7854
 -51328752.66546 -39960846.59043  24005597.6804                   24005597.2974
 -19917700.60748 -15487059.99846  21012911.6334                   21012909.1524
 -13706938.04048 -10660137.45746  21257086.2194                   21257084.6844
 -37984917.42347 -29586080.52845  22671659.4924                   22671659.1684
 -34141574.50448 -26587428.86346  20787199.6564                   20787196.0044
 11  7 31  2 13  0.0000000  0  8G09G25G10G17G12G05G04G02
 -11286902.30747  -8778559.05044  24819756.3674                   24819761.8834
   3970143.55647   3104590.73745  23142606.2194                   23142607.6724
 -21923192.02947 -18201750.57746  21164879.1334                   21164877.4964
 -51333014.07446 -39964167.19343  24004786.0784                   24004785.7704
 -20014547.21447 -15562524.87346  20994481.8754                   20994479.9534
 -13844966.95848 -10767692.41046  21230819.9304                   21230819.0004
 -37972557.05047 -29576449.09445  22674011.6884                   22674011.3204
 -34196205.07448 -26629998.13046  20776803.1254                   20776799.9064
 11  7 31  2 13 30.0000000  0  8G09G25G10G17G12G05G04G02
 -11272620.22446  -8767430.39043  24822473.2814                   24822478.8794
   3817439.50147   2985600.61445  23113547.1024                   23113549.1334
 -21958542.88947 -18229296.69846  21158152.0084                   21158150.5864
 -51337103.40446 -39967353.71243  24004007.1094                   24004008.1054
 -20110849.94648 -15637565.94946  20976156.3284                   20976154.5904
 -13982548.12848 -10874898.45946  21204639.1724                   21204637.8484
 -37960157.80147 -29566787.38145  22676371.1334                   22676370.6094
 -34250615.74948 -26672396.04946  20766449.5864                   20766445.4344
 11  7 31  2 14  0.0000000  0  8G09G25G10G17G12G05G04G02
 -11258386.77846  -8756339.62644  24825182.8134                   24825188.1134
   3665073.82347   2866874.18045  23084553.3364                   23084554.8054
 -21993298.69447 -18256379.15846  21151538.1564                   21151537.2424
 -51341019.60946 -39970405.32643  24003263.0084                   24003263.0514
 -20206606.10248 -15712181.10746  20957934.6954                   20957932.8984
 -14119677.89648 -10981752.77046  21178544.5864                   21178543.3714
 -37947719.74147 -29557095.40844  22678737.6024                   22678737.9184
 -34304806.43448 -26714622.53846  20756137.3754                   20756133.4534
 11  7 31  2 14 30.0000000  0  8G09G25G10G17G12G05G04G02
 -11244205.57246  -8745289.63743  24827880.6024                   24827886.4344
   3513048.46547   2748412.94145  23055624.0784                   23055625.0594
 -22027461.91047 -18282999.83146  21145037.2584                   21145034.9264
 -51344762.63446 -39973322.05243  24002550.1334                   24002549.6054
 -20301814.74647 -15786369.64746  20939817.0784                   20939815.2154
 -14256354.72948 -11088254.15046  21152535.6174                   21152534.6684
 -37935244.71247 -29547374.66245  22681112.5314                   22681111.2814
 -34358778.88948 -26756678.98646  20745866.3984                   20745863.2074
 11  7 31  2 15  0.0000000  0  8G09G25G10G17G12G05G04G02
 -11230080.73846  -8734283.47143  24830569.0164                   24830575.5664
   3361364.58047   2630217.80045  23026758.7274                   23026761.0164
 -22061035.08547 -18309160.74546  21138648.2034                   21138647.0314
 -51348333.98046 -39976104.95943  24001871.1254                   24001870.6054
 -20396476.23848 -15860131.81446  20921803.3984                   20921801.3874
 -14392577.72648 -11194401.87446  21126612.8524                   21126612.2814
 -37922735.69847 -29537627.40544  22683492.1564                   22683491.8634
 -34412535.39148 -26798567.17446  20735637.0704                   20735633.8014
 11  7 31  2 15 30.0000000  0  8G09G25G10G17G12G05G04G02
 -11216016.91746  -8723324.89643  24833245.0704                   24833250.1134
   3210023.54747   2512289.81545  22997960.2894                   22997961.7544
 -22094020.94947 -18334864.00446  21132371.5944                   21132369.2114
 -51351734.54846 -39978754.78943  24001223.1334                   24001224.4844
 -20490590.82148 -15933467.83446  20903893.8524                   20903892.4964
 -14528345.98248 -11300195.27746  21100777.2584                   21100776.3794
 -37910195.28747 -29527855.70445  22685879.0394                   22685878.8874
 -34466078.65848 -26840289.17546  20725447.9774                   20725444.3134
 11  7 31  2 16  0.0000000  0  8G09G25G10G17G12G05G04G02
 -11202012.75646  -8712412.77943  24835909.9144                   24835916.4924
   3059031.99847   2394634.16445  22969226.5554                   22969228.7734
 -22126416.60447 -18360107.38746  21126206.5164                   21126205.5354
 -51354960.00646 -39981268.17543  24000610.8054                   24000610.2154
 -20584153.08048 -16006373.46346  20886089.7274                   20886087.8634
 -14663653.33948 -11405629.52546  21075029.4064                   21075028.2894
 -37897620.72547 -29518057.37145  22688271.9694                   22688271.1214
 -34519405.59048 -26881842.62546  20715300.3204                   20715296.8284
 11  7 31  2 16 30.0000000  0  8G09G25G10G17G12G05G04G02
 -11188073.15346  -8701550.94943  24838563.8364                   24838569.1374
   2908390.60547   2277251.34645  22940561.1174                   22940561.9024
 -22158225.42347 -18384893.47846  21120153.6564                   21120152.3554
 -51358012.61945 -39983646.86743  24000029.8204                   24000030.6644
 -20677163.65747 -16078849.20646  20868390.0944                   20868388.3634
 -14798499.36848 -11510704.30846  21049368.7034                   21049367.5004
 -37885015.37147 -29508235.04444  22690670.6254                   22690670.4494
 -34572519.28748 -26923229.89846  20705192.9144                   20705189.4494
 11  7 31  2 17  0.0000000  0  8G09G25G10G17G12G05G04G02
 -11174201.50346  -8690742.10443  24841203.7664                   24841209.1374
   2758101.88047   2160143.33045  22911961.5944                   22911963.0514
 -22189449.16947 -18409223.66346  21114211.7584                   21114209.9804
 -51360892.05445 -39985890.59443  23999479.5394                   23999479.9064
 -20769621.50948 -16150894.24446  20850796.0004                   20850793.8484
 -14932882.01148 -11615417.99446  21023796.1334                   21023794.8954
 -37872380.76047 -29498389.92244  22693074.2274                   22693074.4104
 -34625421.28448 -26964452.21146  20695126.1954                   20695122.6414
 11  7 31  2 17 30.0000000  0  8G09G25G10G17G12G05G04G02
 -11160401.47146  -8679989.14943  24843829.0634                   24843835.2034
   2608167.76247   2043311.63045  22883430.6484                   22883431.5394
 -22220090.02047 -18433099.64846  21108380.7194                   21108379.4104
 -51363598.57246 -39987999.66143  23998966.2424                   23998966.4144
 -20861526.34048 -16222508.37346  20833307.2894                   20833305.1684
 -15066800.10148 -11719769.71046  20998312.5394                   20998312.2934
 -37859718.59347 -29488523.34644  22695484.4694                   22695483.7304
 -34678112.79148 -27005510.50246  20685099.4774                   20685096.3324
 11  7 31  2 18  0.0000000  0  7G25G10G17G12G05G04G02
   2458592.84147   1926759.82745  22854966.7034                   22854968.7344
 -22250147.42147 -18456521.01846  21102661.0164                   21102660.1134
 -51366130.14746 -39989972.43543  23998484.7734                   23998485.7154
 -20952875.13948 -16293689.21146  20815923.7584                   20815921.6484
 -15200249.01148 -11823755.82346  20972918.0784                   20972916.5514
 -37847028.57247 -29478635.02644  22697899.1174                   22697898.9844
 -34730593.21948 -27046404.32146  20675112.5314                   20675108.7304
 11  7 31  2 18 30.0000000  0  7G25G10G17G12G05G04G02
   2309380.56147   1810490.60245  22826572.5084                   22826574.9224
 -22279622.03147 -18479488.24146  21097052.5634                   21097051.0744
 -51368485.82046 -39991808.01443  23998037.0784                   23998037.6604
 -21043665.75648 -16364435.09646  20798647.0234                   20798645.1724
 -15333226.36148 -11927374.49146  20947613.2664                   20947612.3204
 -37834310.82947 -29468725.16444  22700319.3524                   22700319.3324
 -34782862.87948 -27087133.89346  20665166.1954                   20665162.3094
 11  7 31  2 19  0.0000000  0  7G25G10G17G12G05G04G02
   2160536.33347   1694508.15745  22798248.4694                   22798250.9494
 -22308512.48847 -18502000.29246  21091555.2584                   21091554.0594
 -51370662.60946 -39993504.27743  23997620.9384                   23997621.8524
 -21133894.41648 -16434743.11146  20781477.2034                   20781475.3244
 -15465726.91648 -12030621.61146  20922399.3674                   20922398.1644
 -37821563.84647 -29458792.48044  22702745.4924                   22702744.8594
 -34834919.99148 -27127697.85446  20655260.0944                   20655256.1054
 11  7 31  2 19 30.0000000  0  7G25G10G17G12G05G04G02
   2012065.40147   1578816.59545  22769995.3444                   22769997.3404
 -22336817.94847 -18524056.49046  21086168.4384                   21086167.7624
 -51372657.75446 -39995058.99243  23997242.8594                   23997242.2774
 -21223557.01448 -16504610.03746  20764414.6094                   20764413.3094
 -15597745.74148 -12133493.38146  20897276.7194                   20897275.6054
 -37808786.32347 -29448836.02144  22705177.1884                   22705175.9614
 -34886762.92948 -27168094.92946  20645394.4614                   20645391.0784
 11  7 31  2 20  0.0000000  0  7G25G10G17G12G05G04G02
   1863965.31947   1463413.97245  22741813.0394                   22741814.6174
 -22364545.00247 -18545661.98245  21080891.9534                   21080891.1374
 -51374476.20046 -39996476.08043  23996896.4384                   23996896.1294
 -21312658.30648 -16574039.59446  20747459.7424                   20747457.0434
 -15729285.82148 -12235992.08946  20872245.6174                   20872244.3014
 -37795984.63447 -29438860.70544  22707612.8054                   22707612.2424
 -34938397.94348 -27208329.97646  20635568.5314                   20635564.7034
 11  7 31  2 20 30.0000000  0  7G25G10G17G12G05G04G02
   1716237.90247   1348301.76545  22713700.8754                   22713702.7584
 -22391695.76647 -18566818.44145  21075725.3984                   21075724.6174
 -51376118.61446 -39997756.00043  23996584.1644                   23996586.5904
 -21401197.70048 -16643031.29046  20730610.9224                   20730608.3674
 -15860346.12248 -12338116.94246  20847305.5784                   20847304.2854
 -37783160.64947 -29428868.02844  22710052.8134                   22710052.8914
 -34989826.65148 -27248404.24746  20625781.8914                   20625778.5164
 11  7 31  2 21  0.0000000  0  7G25G10G17G12G05G04G02
   1568887.56847   1233483.38245  22685661.6024                   22685663.6844
 -22418270.17247 -18587525.76346  21070668.3524                   21070667.4344
 -51377582.86646 -39998896.94843  23996305.3674                   23996307.1334
 -21489172.22548 -16711582.84746  20713870.1414                   20713867.9344
 -15990922.59348 -12439864.78946  20822457.8754                   20822456.3444
 -37770313.93547 -29418857.62144  22712497.9614                   22712497.2734
 -35041048.46848 -27288317.32546  20616034.8204                   20616030.7894
 11  7 31  2 21 30.0000000  0  7G25G10G17G12G05G04G02
   1421908.66947   1118954.39745  22657692.5314                   22657693.0084
 -22444278.08747 -18607791.67546  21065719.1414                   21065718.1454
 -51378877.21146 -39999905.58043  23996059.5004                   23996058.4844
 -21576589.22048 -16779699.95846  20697234.9224                   20697233.0274
 -16121021.36048 -12541240.41146  20797700.9614                   20797700.0904
 -37757453.89547 -29408836.83544  22714945.0164                   22714944.3984
 -35092072.57248 -27328076.34346  20606324.9614                   20606321.3134
 11  7 31  2 22  0.0000000  0  7G25G10G17G12G05G04G02
   1275301.27747   1004714.90045  22629793.6334                   22629795.5554
 -22469723.54647 -18627619.31646  21060877.2584                   21060875.6724
 -51380003.66946 -40000783.50442  23995845.2504                   23995844.5434
 -21663450.32148 -16847383.91146  20680705.5864                   20680703.8794
 -16250643.09948 -12642244.31446  20773034.6644                   20773033.2774
 -37744584.08247 -29398808.42644  22717394.7584                   22717394.6334
 -35142902.83448 -27367684.31446  20596652.5394                   20596648.3554
 11  7 31  2 22 30.0000000  0  7G25G10G17G12G05G04G02
   1129069.86247    890768.39445  22601966.9924                   22601968.6684
 -22494606.35247 -18647008.51545  21056142.2504                   21056140.9104
 -51380960.50846 -40001529.13143  23995663.4304                   23995663.4454
 -21749752.44148 -16914632.29746  20664283.4064                   20664280.8914
 -16379783.70348 -12742873.29846  20748459.8134                   20748458.0164
 -37731703.78147 -29388771.85344  22719845.0394                   22719845.3834
 -35193538.30748 -27407140.49946  20587016.8594                   20587012.7974
 11  7 31  2 23  0.0000000  0  7G25G10G17G12G05G04G02
   2558642.21047   2004720.90145  22874005.4384                   22874007.5634
 -20943507.34147 -17438359.94845  21351306.8914                   21351305.3094
 -49806327.05546 -38774542.12243  24295305.8984                   24295307.3244
 -20260071.83348 -15753842.20446  20947759.4774                   20947757.4734
 -14933016.70848 -11615522.34946  21023770.6024                   21023768.9694
 -36143394.15347 -28151128.04744  23022089.7424                   23022090.2274
 -33668557.88748 -26218844.04246  20877210.7814                   20877207.6914
 11  7 31  2 23 30.0000000  0  7G25G10G17G12G05G04G02
   2413173.22947   1891368.49745  22846323.6884                   22846324.5124
 -20967267.61347 -17456874.46446  21346785.2274                   21346784.3834
 -49806941.16846 -38775020.64543  24295189.4534                   24295189.2304
 -20345250.89248 -15820215.49046  20931550.8444                   20931549.0514
 -15061186.55348 -11715394.89646  20999380.4534                   20999379.0594
 -36130493.68347 -28141075.71944  23024545.5394                   23024544.8484
 -33718803.98248 -26257996.82246  20867649.4454                   20867645.7424
 11  7 31  2 24  0.0000000  0  7G25G10G17G12G05G04G02
   2268084.56347   1778312.42045  22818714.1414                   22818715.9964
 -20990473.82747 -17474957.25246  21342369.1564                   21342368.7074
 -49807388.49746 -38775369.26243  24295102.3914                   24295104.5824
 -20429871.69648 -15886153.77646  20915447.9224                   20915446.5274
 -15188872.87848 -11814890.67746  20975082.3754                   20975081.0004
 -36117589.63047 -28131020.62344  23027001.6414                   23027000.3094
 -33768861.73648 -26297002.84946  20858123.8364                   20858120.1094
 11  7 31  2 24 30.0000000  0  7G25G10G17G12G05G04G02
   2123380.96147   1665556.40245  22791177.5634                   22791178.5634
 -21013125.70947 -17492608.08946  21338058.6334                   21338057.1804
 -49807666.70646 -38775586.05142  24295050.4224                   24295050.4104
 -20513931.18748 -15951654.67346  20899451.6564                   20899450.0514
 -15316071.22948 -11914006.21346  20950877.0474                   20950875.7774
 -36104680.97347 -28120961.94644  23029457.1414                   23029457.2854
 -33818729.97248 -26335861.19846  20848633.7974                   20848630.2074
 11  7 31  2 25  0.0000000  0  7G25G10G17G12G05G04G02
   1979067.80547   1553104.60845  22763715.7114                   22763717.3834
 -21035222.03447 -17509826.00545  21333853.9614                   21333852.6454
 -49807772.91546 -38775668.80243  24295031.0164                   24295030.6174
 -20597426.09548 -16016715.62646  20883563.5944                   20883561.6334
 -15442776.99548 -12012737.92146  20926766.2734                   20926765.0824
 -36091765.95147 -28110898.30844  23031914.6254                   23031914.5004
 -33868406.89048 -26374570.46746  20839181.4384                   20839177.6914
 11  7 31  2 25 30.0000000  0  7G25G10G17G12G05G04G02
   1835148.32747   1440959.60445  22736329.1254                   22736330.2114
 -21056763.87347 -17526611.89546  21329754.8284                   21329754.0084
 -49807706.39346 -38775617.09943  24295043.6254                   24295043.6884
 -20680354.33048 -16081335.03546  20867782.5474                   20867780.7734
 -15568987.70848 -12111083.88846  20902748.9534                   20902748.0274
 -36078844.80847 -28100829.90444  23034372.9694                   23034374.0554
 -33917892.70548 -26413130.83846  20829763.9144                   20829760.3404
 11  7 31  2 26  0.0000000  0  7G25G10G17G12G05G04G02
   1691620.71247   1329119.92545  22709016.6024                   22709018.1764
 -21077757.53147 -17542970.60545  21325759.9694                   21325757.9184
 -49807471.32646 -38775433.97143  24295087.9224                   24295088.5274
 -20762720.00748 -16145516.08146  20852109.2274                   20852107.0204
 -15694705.82548 -12209046.00746  20878825.2664                   20878823.7814
 -36065923.18747 -28090761.10644  23036832.8984                   23036831.9534
 -33967192.80948 -26451546.49246  20820382.5234                   20820379.0204
 11  7 31  2 26 30.0000000  0  7G25G10G17G12G05G04G02
   1548488.21047   1217588.11445  22681779.8134                   22681780.8794
 -21098204.17447 -17558903.07446  21321869.4064                   21321868.4224
 -49807066.83546 -38775118.82443  24295164.5554                   24295165.7854
 -20844521.35748 -16209257.39646  20836542.9924                   20836540.3284
 -15819928.60048 -12306622.14146  20854996.0164                   20854994.8714
 -36053001.41447 -28080692.18344  23039291.5084                   23039291.7624
 -34016307.54348 -26489817.71946  20811036.4454                   20811032.7234
 11  7 31  2 27  0.0000000  0  7G25G10G17G12G05G04G02
   1405751.87347   1106365.01045  22654617.4614                   22654618.7034
 -21118106.94747 -17574411.75346  21318081.6414                   21318080.1644
 -49806494.47145 -38774672.83843  24295273.5784                   24295274.0274
 -20925759.24348 -16272559.64146  20821083.5554                   20821081.9774
 -15944655.51548 -12403811.89046  20831261.3524                   20831260.1524
 -36040082.01847 -28070625.10744  23041749.6724                   23041749.5704
 -34065239.55748 -26527946.55046  20801724.7894                   20801721.3364
 11  7 31  2 27 30.0000000  0  8G29G25G10G17G12G05G04G02
  20234995.25656  15779268.88753  24679313.3364                   24679314.4734
   1263413.67547    995452.15245  22627531.9304                   22627533.1054
 -21137467.92247 -17589498.25546  21314398.0004                   21314395.6094
 -49805754.64946 -38774096.43943  24295414.9534                   24295415.2194
 -21006433.55247 -16335422.73546  20805732.0084                   20805729.8714
 -16068885.45448 -12500614.39846  20807621.2034                   20807620.2344
 -36027166.52346 -28060561.10944  23044207.1804                   23044207.2384
 -34113990.17948 -26565934.04146  20792448.3444                   20792444.8364
 11  7 31  2 28  0.0000000  0  8G29G25G10G17G12G05G04G02
  20085154.34147  15662509.81243  24650800.1954                   24650801.7154
   1121473.94347    884849.77945  22600521.1334                   22600522.7934
 -21156291.59847 -17604166.06445  21310815.6174                   21310814.0514
 -49804849.53546 -38773391.25843  24295586.7504                   24295588.2074
 -21086545.53947 -16397847.65846  20790486.9614                   20790485.0634
 -16192618.87548 -12597029.99746  20784075.3984                   20784073.8244
 -36014258.16146 -28050502.66344  23046664.2584                   23046663.4964
 -34162562.44347 -26603782.54646  20783205.3364                   20783201.2774
 11  7 31  2 28 30.0000000  0  8G29G25G10G17G12G05G04G02
  19935223.99846  15545681.07043  24622269.8444                   24622270.0124
    979932.53447    774557.78845  22573586.7734                   22573588.1024
 -21174582.36647 -17618418.64446  21307335.0084                   21307333.5474
 -49803781.48646 -38772558.97343  24295790.7424                   24295791.1254
 -21166096.79748 -16459835.64246  20775349.0554                   20775347.1724
 -16315856.44248 -12693059.22146  20760624.0784                   20760622.5474
 -36001360.80647 -28040452.74344  23049119.1334                   23049117.9774
 -34210960.16848 -26641495.06546  20773995.1484                   20773991.2934
 11  7 31  2 29  0.0000000  0  8G29G25G10G17G12G05G04G02
  19785208.47646  15428786.02443  24593721.6094                   24593723.2034
    838795.93347    664581.24445  22546729.4304                   22546730.7854
 -21192338.45947 -17632254.57746  21303956.1484                   21303954.7424
 -49802546.43346 -38771596.71943  24296025.7034                   24296025.2664
 -21245083.33047 -16521383.57346  20760318.6414                   20760316.0434
 -16438592.19248 -12788697.41546  20737268.3444                   20737267.0514
 -35988471.08447 -28030408.81144  23051571.5704                   23051570.8554
 -34259180.55547 -26679069.36846  20764819.1414                   20764815.4144
 11  7 31  2 29 30.0000000  0  8G29G25G10G17G12G05G04G02
  19635111.18046  15311827.17642  24565158.0704                   24565160.0274
    698069.27047    554924.10645  22519949.7114                   22519951.1804
 -21209558.71947 -17645672.97145  21300679.0784                   21300677.8284
 -49801141.65746 -38770502.07943  24296293.1804                   24296293.6644
 -21323501.68047 -16582488.76846  20745395.6564                   20745393.6994
 -16560822.06648 -12883941.42646  20714008.5004                   20714006.9144
 -35975587.71946 -28020369.82744  23054022.7584                   23054022.9264
 -34307221.74048 -26716504.04746  20755677.0944                   20755673.0634
 11  7 31  2 30  0.0000000  0  8G29G25G10G17G12G05G04G02
  19484931.72745  15194804.31342  24536580.6724                   24536580.4734
    557753.88647    445587.46045  22493248.1724                   22493250.0434
 -21226246.19047 -17658676.19946  21297503.4924                   21297502.0204
 -49799568.35546 -38769276.16843  24296592.0004                   24296593.9694
 -21401352.21747 -16643151.49646  20730581.5234                   20730579.5904
 -16682545.39248 -12978790.72146  20690845.6954                   20690843.9534
 -35962712.69646 -28010337.32044  23056473.4534                   23056472.5744
 -34355085.67848 -26753800.61346  20746569.0784                   20746565.5004
 11  7 31  2 30 30.0000000  0  8G29G25G10G17G12G05G04G02
  19334674.38245  15077720.86742  24507986.9384                   24507988.3054
    417856.09847    336576.22745  22466626.5864                   22466628.4414
 -21242399.49147 -17671263.20946  21294430.0314                   21294428.8874
 -49797822.61347 -38767915.87144  24296923.8054                   24296925.1094
 -21478630.76247 -16703368.52046  20715875.6024                   20715873.4144
 -16803756.58348 -13073240.95346  20667779.9534                   20667778.5234
 -35949843.24846 -28000309.21144  23058922.0944                   23058921.3594
 -34402769.72848 -26790957.00446  20737495.2114                   20737492.0044
 11  7 31  2 31  0.0000000  0  8G29G25G10G17G12G05G04G02
  19184338.52446  14960576.12443  24479378.8754                   24479380.3244
    278376.93147    227891.19045  22440085.2424                   22440086.1334
 -21258021.71847 -17683436.37245  21291456.5864                   21291455.5084
 -49795905.83547 -38766422.33943  24297290.1484                   24297289.6334
 -21555338.23147 -16763140.56246  20701279.3984                   20701276.5984
 -16924455.14548 -13167291.72946  20644811.2584                   20644810.1524
 -35936981.75546 -27990287.31844  23061369.9304                   23061369.0634
 -34450276.18348 -26827974.99346  20728455.1884                   20728451.0314
 11  7 31  2 31 30.0000000  0  8G29G25G10G17G12G05G04G02
  19033927.06146  14843372.56243  24450757.2344                   24450758.9264
    139321.14547    119536.07745  22413623.2424                   22413624.9224
 -21273112.38247 -17695195.35145  21288585.0314                   21288583.7274
 -49793815.48746 -38764793.58843  24297686.7974                   24297687.8834
 -21631471.62747 -16822465.25046  20686790.5164                   20686788.5124
 -17044637.34848 -13260940.15746  20621941.8984                   20621940.0474
 -35924126.81946 -27980270.51044  23063816.0314                   23063815.3094
 -34497603.58547 -26864853.46446  20719448.7974                   20719445.3014
 11  7 31  2 32  0.0000000  0  8G29G25G10G17G12G05G04G02
  18883438.36246  14726108.76243  24422119.9534                   24422121.5474
       688.89147     11510.98945  22387242.4614                   22387243.9304
 -21287676.08347 -17706543.67145  21285813.4534                   21285812.3984
 -49791553.76646 -38763031.27944  24298118.7664                   24298118.5474
 -21707032.54048 -16881343.86246  20672412.3284                   20672409.8674
 -17164303.41748 -13354186.38846  20599170.1094                   20599168.7464
 -35911281.61346 -27970261.30944  23066260.1334                   23066259.3524
 -34544755.18648 -26901594.95146  20710475.8754                   20710472.2704
 11  7 31  2 32 30.0000000  0  8G29G25G10G17G12G05G04G02
  18732874.16746  14608786.17243  24393467.4454                   24393470.8874
   -137516.40347    -96181.42645  22360943.0554                   22360944.8244
 -21301713.81647 -17717482.15745  21283142.3594                   21283141.2544
 -49789120.35246 -38761135.16643  24298581.4534                   24298581.6414
 -21782019.60248 -16939775.31846  20658142.3284                   20658140.7734
 -17283451.08848 -13447028.69546  20576497.2034                   20576495.5984
 -35898446.19646 -27960259.73244  23068702.9694                   23068702.4614
 -34591731.21548 -26938199.62246  20701536.7664                   20701532.8634
 11  7 31  2 33  0.0000000  0  8G29G25G10G17G12G05G04G02
  18582233.77646  14491404.11844  24364801.8284                   24364804.5164
   -275293.88047   -203540.44745  22334724.4774                   22334726.2034
 -21315228.90847 -17728013.39545  21280570.6804                   21280569.4264
 -49786516.07246 -38759105.94543  24299076.7584                   24299076.9774
 -21856433.43548 -16997760.10246  20643982.0394                   20643980.3204
 -17402080.01148 -13539466.76646  20553922.2114                   20553921.3094
 -35885622.88846 -27950267.59644  23071142.8914                   23071141.7034
 -34638533.94048 -26974669.26646  20692630.7504                   20692626.1374
 11  7 31  2 33 30.0000000  0  8G29G25G10G17G12G05G04G02
  18431519.04346  14373964.16144  24336122.2664                   24336124.4384
   -412639.83747   -310563.20745  22308588.7734                   22308589.6884
 -21328222.35847 -17738138.14345  21278098.3444                   21278096.6884
 -49783739.88546 -38756942.75843  24299604.3674                   24299604.8794
 -21930273.18448 -17055297.54546  20629930.5864                   20629929.2464
 -17520187.72248 -13631498.69946  20531447.3674                   20531445.8954
 -35872811.33846 -27940284.56244  23073580.0634                   23073579.7854
 -34685163.06848 -27011003.62246  20683757.6414                   20683753.4264
 11  7 31  2 34  0.0000000  0  8G29G25G10G17G12G05G04G02
  18280727.30146  14256464.21244  24307426.5704                   24307428.9614
   -549555.10347   -417250.36445  22282534.7114                   22282536.1024
 -21340699.77347 -17747860.78945  21275723.7034                   21275721.6804
 -49780794.97445 -38754648.11043  24300164.5004                   24300165.4184
 -22003541.67448 -17112389.85646  20615988.2664                   20615986.3444
 -17637775.34348 -13723125.36246  20509070.8674                   20509069.1174
 -35860015.74246 -27930314.00044  23076016.1884                   23076015.1954
 -34731622.86048 -27047206.04246  20674916.0634                   20674912.5904
 11  7 31  2 34 30.0000000  0  8G29G25G10G17G12G05G04G02
  19705285.91546  15366510.00344  24578511.4224                   24578513.7274
    889388.57047    704004.51046  22556356.6884                   22556358.2894
 -19777241.42547 -16529581.54445  21573240.6564                   21573238.9144
 -48202259.90646 -37524620.75843  24600550.9844                   24600550.8284
 -20500814.44547 -15941433.55646  20901947.4304                   20901946.1684
 -16179416.18448 -12586741.55846  20786587.9064                   20786586.4104
 -34271816.12446 -26692755.84244  23378240.2894                   23378239.2304
 -33202491.05748 -25855674.75246  20965900.7194                   20965896.6914
 11  7 31  2 35  0.0000000  0  8G29G25G10G17G12G05G04G02
  19554345.34947  15248894.11244  24549788.8674                   24549790.4804
    753344.33547    597996.08546  22530468.2584                   22530469.2304
 -19788690.00347 -16538502.50746  21571062.2114                   21571059.9144
 -48198975.06445 -37522061.23842  24601176.8444                   24601176.2934
 -20572936.01547 -15997632.16846  20888223.5234                   20888221.4614
 -16295956.75448 -12677552.34546  20764410.4534                   20764409.3834
 -34259052.31846 -26682810.06944  23380669.1724                   23380669.3284
 -33248611.84448 -25891612.99846  20957124.0164                   20957120.0204
 11  7 31  2 35 30.0000000  0  8G29G25G10G17G12G05G04G02
  19403331.22146  15131220.86944  24521051.9064                   24521053.5274
    617739.02347    492329.68445  22504663.5704                   22504665.0664
 -19799627.55647 -16547025.25946  21568980.9304                   21568979.6294
 -48195520.29555 -37519369.29352  24601833.2814                   24601834.4654
 -20644483.67547 -16053383.58746  20874608.6644                   20874606.6484
 -16411971.62748 -12767953.49246  20742333.8914                   20742332.0314
 -34246306.06346 -26672877.97344  23383094.2504                   23383094.0274
 -33294564.60248 -25927420.32346  20948379.5314                   20948375.0904
 11  7 31  2 36  0.0000000  0  8G29G25G10G17G12G05G04G02
  19252247.23047  15013493.22644  24492301.7664                   24492303.1724
    482577.61247    387009.16645  22478942.8524                   22478944.2664
 -19810053.50847 -16555149.35345  21566996.1094                   21566994.0124
 -48191893.30145 -37516543.12142  24602523.1414                   24602523.5204
 -20715454.57147 -16108685.57246  20861103.2664                   20861100.8714
 -16527456.63148 -12857941.75946  20720357.3524                   20720355.8364
 -34233575.75746 -26662958.27544  23385517.1564                   23385516.4884
 -33340347.88648 -25963095.58346  20939666.6174                   20939662.9064
 11  7 31  2 36 30.0000000  0  8G29G25G10G17G12G05G04G02
  19101088.26847  14895707.14044  24463536.9384                   24463538.1334
    347856.95547    282032.10345  22453306.1174                   22453307.0124
 -19819975.46047 -16562880.71845  21565107.7344                   21565106.3754
                                  24603244.180
 -20785853.76248 -16163542.09046  20847706.5234                   20847704.4414
 -16642415.90248 -12947520.37146  20698481.3364                   20698479.7774
 -34220867.27647 -26653055.59644  23387935.2274                   23387934.9884
 -33385968.04048 -25998643.74746  20930986.3444                   20930981.9024
 11  7 31  2 37  0.0000000  0  7G29G25G10G12G05G04G02
  18949858.30046  14777865.72244  24434758.5084                   24434760.5434
    213582.78847    177402.95146  22427754.5394                   22427756.3364
 -19829392.27847 -16570218.48045  21563315.6254                   21563314.5664
 -20855677.79748 -16217950.41946  20834419.6094                   20834417.6604
 -16756844.57848 -13036685.52647  20676706.4694                   20676704.5664
 -34208178.25146 -26643168.09644  23390349.9774                   23390350.1914
 -33431422.61748 -26034062.87746  20922336.3204                   20922332.5354
 11  7 31  2 37 30.0000000  0  7G29G25G10G12G05G04G02
  18798559.13946  14659970.36943  24405966.9844                   24405969.2814
     79758.34348     73124.23045  22402288.8054                   22402290.1374
 -19838305.44547 -16577163.78645  21561620.2584                   21561618.0944
 -20924925.41448 -16271909.60246  20821242.0004                   20821239.7934
 -16870740.25048 -13125435.36246  20655032.6644                   20655030.6374
 -34195508.54847 -26633295.59943  23392761.1334                   23392761.3284
 -33476711.52448 -26069352.92546  20913717.9224                   20913713.9964
 11  7 31  2 38  0.0000000  0  7G29G25G10G12G05G04G02
  18647195.69546  14542024.92743  24377163.0084                   24377164.5904
    -53610.75447    -30799.68546  22376909.1564                   22376910.3204
 -19846713.72147 -16583715.67845  21560020.0394                   21560018.5824
 -20993593.00848 -16325416.82346  20808175.2814                   20808173.3134
 -16984098.12848 -13213766.13647  20633461.6174                   20633459.7544
 -34182855.79646 -26623436.29743  23395169.0394                   23395168.5744
 -33521832.09048 -26104511.78146  20905131.9844                   20905127.6644
 11  7 31  2 38 30.0000000  0  7G29G25G10G12G05G04G02
  18495769.00346  14424030.17343  24348347.7424                   24348350.3914
   -186521.38947   -134366.34645  22351617.1334                   22351618.3404
 -19854618.50247 -16589875.23445  21558515.1954                   21558514.3094
 -21061679.57548 -16378471.28846  20795218.9924                   20795216.5904
 -17096915.71148 -13301675.89346  20611992.9614                   20611991.3984
 -34170219.70846 -26613590.05643  23397573.2034                   23397573.6484
 -33566784.71448 -26139539.78746  20896577.4924                   20896573.6254
 11  7 31  2 39  0.0000000  0  7G29G25G10G12G05G04G02
  18344276.02846  14305983.82443  24319519.4694                   24319520.6454
   -318975.05447   -237576.91745  22326412.5164                   22326413.4224
 -19862025.54948 -16595646.95645  21557106.6414                   21557105.5084
 -21129189.20148 -16431076.19746  20782372.4064                   20782369.8094
 -17209195.83248 -13389166.85146  20590626.3834                   20590624.3714
 -34157604.89247 -26603760.29343  23399973.6024                   23399974.0744
 -33611573.75548 -26174440.32546  20888054.3204                   20888050.7734
 11  7 31  2 39 30.0000000  0  7G29G25G10G12G05G04G02
  18192715.06946  14187884.47143  24290678.1254                   24290679.1644
   -450972.32947   -340431.84745  22301293.7034                   22301295.7234
 -19868940.27247 -16601035.01945  21555790.0474                   21555788.5904
 -21196123.84648 -16483233.07346  20769635.1334                   20769633.1994
 -17320939.94948 -13476240.15546  20569362.5944                   20569361.1174
 -34145015.31746 -26593950.22443  23402368.9384                   23402369.7934
 -33656203.16248 -26209216.48646  20879561.6484                   20879557.8054
 11  7 31  2 40  0.0000000  0  7G29G25G10G12G05G04G02
  18041086.42846  14069732.41443  24261824.0474                   24261824.8244
   -582511.28247   -442929.67245  22276262.5004                   22276263.8914
 -19875364.95848 -16606041.28845  21554567.7584                   21554566.2464
 -21262484.09648 -16534942.35446  20757006.7344                   20757004.4304
 -17432146.78048 -13562894.78846  20548200.6024                   20548198.5594
 -34132451.66546 -26584160.42643  23404761.1094                   23404760.2304
 -33700674.00648 -26243869.07846  20871099.0784                   20871095.1954
 11  7 31  2 40 30.0000000  0  7G29G25G10G12G05G04G02
  17889391.08046  13951528.39743  24232958.2114                   24232958.1604
   -713589.66147   -545068.59045  22251319.3364                   22251320.4064
 -19881302.17347 -16610667.68945  21553437.7504                   21553436.9534
 -21328269.77248 -16586203.93046  20744488.6484                   20744486.4884
 -17542815.38948 -13649130.02746  20527140.7344                   20527139.0164
 -34119914.80946 -26574391.40643  23407145.6564                   23407146.3954
 -33744987.18048 -26278398.82046  20862666.7504                   20862663.2304
 11  7 31  2 41  0.0000000  0  7G29G25G10G12G05G04G02
  17737625.21446  13833269.37543  24204077.8134                   24204076.5634
   -844209.88347   -646850.51445  22226462.7894                   22226464.2854
 -19886758.91348 -16614919.68545  21552399.1644                   21552398.1134
 -21393485.54548 -16637021.40846  20732078.0634                   20732076.3054
 -17652948.80748 -13734948.23446  20506182.8134                   20506181.2814
 -34107410.22146 -26564647.64743  23409525.7114                   23409525.1484
 -33789148.01948 -26312809.86146  20854263.3834                   20854258.9384
 11  7 31  2 41 30.0000000  0  7G29G25G10G12G05G04G02
  17585792.55747  13714958.35543  24175184.6334                   24175184.4104
   -974366.76548   -748271.37845  22201694.7894                   22201696.3094
 -19891734.30048 -16618796.59545  21551452.4614                   21551450.8914
 -21458128.46448 -16687392.51446  20719777.1174                   20719775.2664
 -17762542.49448 -13820345.87746  20485328.5004                   20485326.5514
 -34094935.56746 -26554927.13843  23411899.5864                   23411900.0164
 -33833154.45948 -26347100.58346  20845888.9384                   20845885.0204
 11  7 31  2 42  0.0000000  0  7G29G25G10G12G05G04G02
  17433894.39946  13596596.25243  24146278.1094                   24146280.4304
  -1104057.89647   -849329.34145  22177015.2034                   22177016.2304
 -19896230.35447 -16622299.99045  21550596.8984                   21550595.2074
 -21522198.12348 -16737316.91746  20707584.6884                   20707582.8954
 -17871595.35948 -13905322.09346  20464575.9304                   20464574.1374
 -34082491.41746 -26545230.37942  23414267.9384                   23414266.7074
 -33877007.25948 -26381271.59446  20837544.1724                   20837540.3014
 11  7 31  2 42 30.0000000  0  7G29G25G10G12G05G04G02
  17281929.09046  13478181.87344  24117360.9454                   24117362.7584
  -1233283.47747   -950024.52745  22152424.5864                   22152426.1334
 -19900251.89347 -16625433.64845  21549832.0634                   21549830.3714
 -21585696.72648 -16786796.34346  20695501.2974                   20695499.4184
 -17980108.72748 -13989877.91346  20443926.7034                   20443925.0984
 -34070080.66246 -26535559.55543  23416629.9774                   23416627.8134
 -33920709.49148 -26415325.28746  20829227.9534                   20829223.9184
 11  7 31  2 43  0.0000000  0  7G29G25G10G12G05G04G02
  17129896.58846  13359715.11644  24088429.7974                   24088432.2774
  -1362042.49447  -1050356.14145  22127922.5634                   22127923.6524
 -19903802.51847 -16628200.35945  21549155.9694                   21549154.6644
 -21648625.34148 -16835831.60746  20683526.3674                   20683524.7274
 -18088082.31748 -14074013.13847  20423379.9224                   20423378.2734
 -34057705.35546 -26525916.53142  23418984.3284                   23418982.5274
 -33964263.19748 -26449263.24246  20820940.2194                   20820936.0234
 11  7 31  2 43 30.0000000  0  7G29G25G10G12G05G04G02
  16977800.23646  13241198.58444  24059487.2584                   24059489.6914
  -1490330.24448  -1150320.57245  22103509.5084                   22103511.0314
 -19906881.99547 -16630599.92845  21548570.3754                   21548568.7154
 -21710982.38948 -16884421.49246  20671660.5474                   20671658.2304
 -18195512.57548 -14157724.98947  20402936.6174                   20402934.9884
 -34045363.77645 -26516299.72743  23421333.2734                   23421332.1644
 -34007666.74448 -26483084.18646  20812680.5394                   20812676.1484
 11  7 31  2 44  0.0000000  0  7G29G25G10G12G05G04G02
  16825636.31246  13122629.44144  24030530.9694                   24030532.1524
  -1618149.17748  -1249919.67145  22079186.8284                   22079187.6254
 -19909497.51247 -16632638.00045  21548072.4144                   21548071.4774
 -21772772.26947 -16932569.42546  20659902.5554                   20659900.5274
 -18302402.69748 -14241015.94646  20382595.9224                   20382594.5434
 -34033061.08245 -26506713.28142  23423673.5164                   23423673.5124
 -34050925.33348 -26516792.18646  20804448.5164                   20804444.9884
 11  7 31  2 44 30.0000000  0  7G29G25G10G12G05G04G02
  16673405.58646  13004008.29744  24001562.6484                   24001563.1214
  -1745497.30948  -1349151.93345  22054953.3364                   22054954.5004
 -19911651.35947 -16634316.31145  21547662.7274                   21547660.9574
 -21833994.33148 -16980274.89846  20648252.0634                   20648250.2114
 -18408751.83148 -14323885.36147  20362358.5314                   20362357.0044
 -34020798.06345 -26497157.73042  23426007.3134                   23426007.7814
 -34094040.07048 -26550388.10446  20796243.9614                   20796240.8714
 11  7 31  2 45  0.0000000  0  7G29G25G10G12G05G04G02
  16521114.05446  12885339.71744  23972582.6414                   23972583.5864
  -1872367.66048  -1448011.87345  22030810.4614                   22030812.6254
 -19913340.73447 -16635632.68545  21547340.8914                   21547339.8954
 -21894644.82248 -17027535.00446  20636710.6094                   20636708.8134
 -18514554.04848 -14406328.59047  20342224.5944                   20342223.0084
 -34008570.50846 -26487629.78942  23428334.0164                   23428335.3204
 -34137006.72548 -26583868.63146  20788068.0004                   20788063.8634
 11  7 31  2 45 30.0000000  0  7G29G25G10G12G05G04G02
  16368760.04046  12766622.50644  23943589.6334                   23943590.4264
  -1998760.66248  -1546499.86146  22006759.3594                   22006760.3444
 -19914570.98247 -16636591.32045  21547106.9844                   21547104.8524
 -21954726.05248 -17074351.50246  20625277.2344                   20625275.9104
 -18619810.70148 -14488346.72047  20322195.1414                   20322193.3324
 -33996381.74046 -26478132.05542  23430653.4064                   23430653.8094
 -34179828.78148 -26617236.47146  20779919.1484                   20779915.2464
 11  7 31  2 46  0.0000000  0  7G29G25G10G12G05G04G02
  17791770.34046  13875461.94844  24214380.2664                   24214381.1484
   -549249.35048   -417010.46945  22282591.3444                   22282592.8954
 -18339923.70747 -15409593.42845  21846752.3284                   21846750.7074
 -20438815.63948 -15893122.58647  20913745.7894                   20913743.6884
 -17149096.42947 -13342335.55847  20602063.1024                   20602061.2624
 -32408811.81246 -25241064.55142  23732757.1254                   23732757.6454
 -32647084.74048 -25422890.47746  21071590.2584                   21071586.5274
 11  7 31  2 46 30.0000000  0  7G29G25G10G12G05G04G02
  17639293.73646  13756649.19544  24185363.1724                   24185365.5084
   -674682.12248   -514750.23046  22258722.4224                   22258723.3244
 -18340243.35047 -15409842.49145  21846691.3674                   21846689.9384
 -20497759.80748 -15939053.08146  20902528.9774                   20902526.1914
 -17253259.48448 -13423501.53347  20582241.2194                   20582239.2544
 -32396702.81546 -25231628.95342  23735062.9064                   23735061.9384
 -32689620.34348 -25456035.10546  21063496.3674                   21063492.8554
 11  7 31  2 47  0.0000000  0  7G29G25G10G12G05G04G02
  17486757.94845  13637790.39043  24156336.6254                   24156338.8874
   -799630.96548   -612112.91546  22234945.3364                   22234946.6254
 -18340110.57547 -15409739.02045  21846716.7894                   21846714.2194
 -20556134.94948 -15984540.18146  20891420.5164                   20891419.0824
 -17356873.48947 -13504239.67647  20562523.8134                   20562522.2114
 -32384633.83946 -25222224.48842  23737358.9224                   23737358.0784
 -32732013.27847 -25489068.57246  21055429.1954                   21055425.3094
 11  7 31  2 47 30.0000000  0  7G29G25G10G12G05G04G02
  17334162.93346  13518885.37343  24127298.7974                   24127300.2234
   -924094.89248   -709097.73546  22211260.8204                   22211261.9024
 -18339528.99847 -15409285.85445  21846827.1804                   21846825.8714
 -20613942.42448 -16029584.94546  20880420.2194                   20880418.0164
 -17459938.50248 -13584550.03447  20542911.5634                   20542909.5314
 -32372606.59446 -25212852.66042  23739647.3754                   23739647.4024
 -32774265.43848 -25521992.33546  21047388.9064                   21047384.9454
 11  7 31  2 48  0.0000000  0  7G29G25G10G12G05G04G02
  17181511.80546  13399936.63244  24098250.1254                   24098250.8794
  -1048069.89548   -805701.57946  22187668.7344                   22187669.7424
 -18338499.40847 -15408483.58445  21847022.8674                   21847021.1844
 -20671180.19448 -16074185.77946  20869527.9224                   20869526.4884
 -17562451.62748 -13664430.34447  20523403.5944                   20523402.1994
 -32360619.85645 -25203512.37942  23741928.8444                   23741928.1094
 -32816375.34348 -25554805.24946  21039375.5704                   21039371.9804
 11  7 31  2 48 30.0000000  0  7G29G25G10G12G05G04G02
  17028802.90946  13280942.88843  24069191.0554                   24069190.7974
  -1171556.63448   -901924.95946  22164170.1884                   22164171.4774
 -18337026.53747 -15407335.90845  21847303.3284                   21847302.5204
 -20727851.61348 -16118345.30546  20858744.3054                   20858741.8594
 -17664414.34148 -13743881.76347  20504000.9304                   20503999.1334
 -32348676.88346 -25194206.18442  23744200.5394                   23744201.8674
 -32858346.60448 -25587510.13446  21031388.7664                   21031385.4144
 11  7 31  2 49  0.0000000  0  7G29G25G10G12G05G04G02
  16876037.33946  13161904.96544  24040120.2344                   24040121.2584
  -1294553.08048   -997766.26746  22140765.0554                   22140766.2154
 -18335112.66947 -15405844.59445  21847667.7894                   21847666.2034
 -20783957.25948 -16162063.97446  20848067.4694                   20848065.5434
 -17765826.02948 -13822903.82747  20484702.7734                   20484700.9224
 -32336777.93346 -25184934.29742  23746466.0474                   23746465.7624
 -32900179.67747 -25620107.33046  21023428.3984                   21023424.1994
 11  7 31  2 49 30.0000000  0  7G29G25G10G12G05G04G02
  16723220.27946  13042826.91044  24011040.7344                   24011039.9694
  -1417052.79948  -1093220.53246  22117454.0634                   22117454.5314
 -18332755.93147 -15404008.17545  21848116.5944                   21848114.3364
 -20839492.89148 -16205338.47746  20837499.1564                   20837497.1134
 -17866681.14048 -13901492.18547  20465510.8284                   20465509.4844
 -32324919.36046 -25175693.92642  23748723.0394                   23748722.3754
 -32941871.01047 -25652594.07846  21015494.7274                   21015491.2664
 11  7 31  2 50  0.0000000  0  7G29G25G10G12G05G04G02
  16570350.49246  12923707.76144  23981950.0634                   23981951.0594
  -1539056.60048  -1188288.37546  22094236.9534                   22094237.4184
 -18329961.67947 -15401830.85645  21848648.1254                   21848646.3874
 -20894461.32148 -16248171.00346  20827038.6484                   20827036.6684
 -17966981.50748 -13979648.27947  20446424.1564                   20446422.5314
 -32313104.38746 -25166487.42242  23750971.4614                   23750969.3484
 -32983424.06947 -25684973.07546  21007587.2974                   21007583.7704
 11  7 31  2 50 30.0000000  0  7G29G25G10G12G05G04G02
  16417427.01347  12804546.74144  23952849.0164                   23952850.5864
  -1660564.02948  -1282969.45146  22071115.1094                   22071115.4494
 -18326733.92647 -15399315.75245  21849262.5784                   21849260.6764
 -20948864.53248 -16290563.11046  20816686.4384                   20816684.5904
 -18066727.85747 -14057372.66447  20427442.8674                   20427440.9924
 -32301335.01546 -25157316.54342  23753211.0394                   23753210.1644
 -33024841.11947 -25717246.09446  20999705.6954                   20999701.8014
 11  7 31  2 51  0.0000000  0  7G29G25G10G12G05G04G02
  16264452.02447  12685345.61743  23923739.3594                   23923738.9264
  -1781572.50248  -1377261.73246  22048087.8834                   22048088.9344
 -18323074.50848 -15396464.24545  21849958.7584                   21849957.0204
 -21002702.19448 -16332514.52646  20806441.3284                   20806438.9614
 -18165918.75848 -14134664.23047  20408567.6174                   20408565.9844
 -32289611.19146 -25148181.07743  23755441.1334                   23755440.1994
 -33066122.23348 -25749413.18146  20991850.3364                   20991846.3714
 11  7 31  2 51 30.0000000  0  7G29G25G10G12G05G04G02
  16111427.41747  12566105.81843  23894619.8914                   23894620.1094
  -1902079.38748  -1471163.14346  22025156.0634                   22025156.7194
 -18318985.11747 -15393277.71245  21850737.1724                   21850735.3554
 -21055974.46548 -16374025.37446  20796304.3754                   20796302.3244
 -18264552.41348 -14211521.59247  20389798.2344                   20389796.1374
 -32277932.58146 -25139080.87942  23757663.7664                   23757662.9414
 -33107267.33748 -25781474.29946  20984020.4384                   20984016.9964
 11  7 31  2 52  0.0000000  0  7G29G25G10G12G05G04G02
  15958351.61247  12446826.08544  23865490.0004                   23865489.3914
  -2022085.42948  -1564674.29946  22002319.4774                   22002320.8594
 -18314470.91047 -15389760.14845  21851595.6884                   21851594.3594
 -21108684.19048 -16415097.88746  20786273.6954                   20786271.3674
 -18362630.79748 -14287946.27047  20371134.6094                   20371133.1054
 -32266302.34845 -25130018.44942  23759877.0554                   23759876.7624
 -33148279.81148 -25813432.06446  20976216.0004                   20976212.0354
 11  7 31  2 52 30.0000000  0  7G29G25G10G12G05G04G02
  15805226.93446  12327508.26543  23836350.7504                   23836350.5554
  -2141587.52647  -1657792.77346  21979578.9614                   21979580.2854
 -18309533.32347 -15385912.70645  21852535.0474                   21852533.8524
 -21160830.20648 -16455731.14546  20776350.9064                   20776349.2074
 -18460151.88248 -14363936.67547  20352576.6414                   20352574.8204
 -32254719.82246 -25120993.13342  23762081.1954                   23762081.3364
 -33189159.37948 -25845286.25646  20968437.0554                   20968433.0234
 11  7 31  2 53  0.0000000  0  7G29G25G10G12G05G04G02
  15652054.87947  12208153.59844  23807203.3754                   23807202.3954
  -2260583.54248  -1750516.91746  21956935.4614                   21956936.0084
 -18304174.54547 -15381737.02345  21853555.4224                   21853553.8834
 -21212413.51748 -16495925.92846  20766534.7584                   20766532.9884
 -18557114.77248 -14439492.13747  20334125.2504                   20334123.3984
 -32243185.21246 -25112005.17242  23764276.1954                   23764276.5044
 -33229905.90848 -25877036.80546  20960683.6254                   20960680.3054
 11  7 31  2 53 30.0000000  0  7G29G25G10G12G05G04G02
  15498834.40647  12088761.14644  23778046.9304                   23778045.9774
  -2379073.67348  -1842846.85246  21934386.9694                   21934388.0274
 -18298399.23647 -15377236.78345  21854653.9534                   21854653.4534
 -21263436.61548 -16535684.18746  20756825.7274                   20756823.3444
 -18653520.91548 -14514613.75447  20315780.0554                   20315777.8714
 -32231701.15346 -25103056.59442  23766461.3754                   23766461.1684
 -33270522.51048 -25908686.09146  20952954.5234                   20952949.9774
 11  7 31  2 54  0.0000000  0  7G29G25G10G12G05G04G02
  15345567.54347  11969332.55744  23748880.8524                   23748881.2504
  -2497055.02548  -1934780.33346  21911935.6174                   21911937.2664
 -18292208.82148 -15372413.07845  21855831.8284                   21855830.2384
 -21313898.41848 -16575005.06446  20747222.8284                   20747220.9414
 -18749368.36148 -14589300.03647  20297540.5944                   20297538.4304
 -32220266.79146 -25094146.71542  23768637.8284                   23768636.8484
 -33311008.28948 -25940233.44346  20945249.9534                   20945245.6454
 11  7 31  2 54 30.0000000  0  7G29G25G10G12G05G04G02
  15192256.35047  11849869.39044  23719706.5314                   23719707.9064
  -2614524.89548  -2026315.28546  21889582.0944                   21889583.1414
 -18285604.72647 -15367267.06745  21857088.5004                   21857087.7934
 -21363798.76048 -16613888.43946  20737727.3674                   20737725.2704
 -18844655.33648 -14663549.58547  20279408.2424                   20279406.2664
 -32208881.83846 -25085275.33642  23770803.8754                   23770803.3674
 -33351363.32148 -25971678.91846  20937570.6884                   20937566.5594
 11  7 31  2 55  0.0000000  0  7G29G25G10G12G05G04G02
  15038901.85046  11730372.53344  23690523.6174                   23690524.5704
  -2731482.20248  -2117450.80846  21867325.7274                   21867327.2424
 -18278590.60347 -15361801.51945  21858422.9614                   21858422.5474
 -21413139.66248 -16652335.89546  20728337.9694                   20728335.9264
 -18939382.13348 -14737362.63847  20261382.1724                   20261380.3554
 -32197547.47246 -25076443.38342  23772960.5704                   23772960.5664
 -33391588.92348 -26003023.54646  20929915.8524                   20929912.1844
 11  7 31  2 55 30.0000000  0  7G29G25G10G12G05G04G02
  14885504.70746  11610842.39244  23661334.0704                   23661332.5824
  -2847925.47148  -2208185.80046  21845167.1414                   21845168.6134
 -18271169.54547 -15356018.91545  21859836.1644                   21859835.1914
 -21461921.46448 -16690347.68046  20719055.0704                   20719052.6134
 -19033548.37748 -14810738.88447  20243463.0864                   20243461.1604
 -32186264.24946 -25067651.32042  23775108.0474                   23775106.7274
 -33431686.01148 -26034268.01546  20922285.8674                   20922281.8364
 11  7 31  2 56  0.0000000  0  7G29G25G10G12G05G04G02
  14732066.68346  11491280.43144  23632134.7584                   23632135.3914
  -2963851.72848  -2298517.91546  21823107.0474                   21823108.5664
 -18263342.42347 -15349919.85245  21861325.9454                   21861323.3444
 -21510143.94148 -16727923.62146  20709878.7814                   20709876.1994
 -19127152.17448 -14883676.86147  20225650.3754                   20225648.2544
 -32175031.40346 -25058898.53142  23777246.1094                   23777243.7774
 -33471653.88448 -26065411.81646  20914680.3204                   20914676.0904
 11  7 31  2 56 30.0000000  0  7G29G25G10G12G05G04G02
  14578588.04346  11371686.82044  23602928.4384                   23602929.5784
  -3079260.95247  -2388447.15846  21801145.7274                   21801146.3874
 -18255113.45147 -15343507.69944  21862891.1484                   21862889.3094
 -21557809.26348 -16765065.43546  20700808.2344                   20700806.1214
 -19220194.94848 -14956177.69147  20207945.2274                   20207942.6844
 -32163851.17346 -25050186.58642  23779373.3674                   23779372.3484
 -33511495.34048 -26096457.09046  20907098.7734                   20907095.0944
 11  7 31  2 57  0.0000000  0  7G29G25G10G12G05G04G02
  16000494.54947  12479666.04744  23873508.6094                   23873508.7774
  -1618728.05748  -1250369.54246  22079075.7424                   22079076.8164
 -16671065.96147 -14109184.98945  22164325.5554                   22164324.0904
 -20029496.91148 -15574172.68446  20991636.4614                   20991633.6374
 -17737253.66048 -13800638.97947  20490139.5084                   20490137.6294
 -30577304.73646 -23813916.57842  24081282.9694                   24081282.7304
 -31975789.79548 -24899803.39746  21199333.5474                   21199330.3874
 11  7 31  2 57 30.0000000  0  7G29G25G10G12G05G04G02
  15846936.52447  12360010.57744  23844287.3834                   23844286.8524
  -1733099.65948  -1339490.24046  22057311.6484                   22057312.0784
 -16662042.95347 -14102154.08745  22166042.7194                   22166040.9454
 -20076051.69648 -15610449.12846  20982777.2814                   20982775.2584
 -17829173.99048 -13872265.18447  20472647.8364                   20472645.8484
 -30566232.48046 -23805288.93042  24083390.6414                   24083388.5594
 -32015381.26148 -24930653.89146  21191799.6174                   21191795.8914
 11  7 31  2 58  0.0000000  0  7G29G25G10G12G05G04G02
  15693340.15847  12240325.24744  23815058.3524                   23815058.6524
  -1846950.37248  -1428205.02146  22035646.3834                   22035646.9924
 -16652627.49647 -14094817.39045  22167834.0704                   22167833.3014
 -20122052.40148 -15646293.82546  20974023.8204                   20974021.7384
 -17920532.53048 -13943453.61247  20455262.3914                   20455259.9534
 -30555215.141 5                  24085484.484
 -32054848.98848 -24961407.92946  21184289.2114                   21184284.9774
 11  7 31  2 58 30.0000000  0  7G29G25G10G12G05G04G02
  15539709.20847  12120612.96444  23785823.4614                   23785823.7664
  -1960276.00648  -1516510.67346  22014081.6724                   22014082.4494
 -16642819.28247 -14087174.66045  22169701.1644                   22169699.8914
 -20167498.16448 -15681706.09546  20965375.6024                   20965373.2544
 -18011326.41748 -14014202.05547  20437985.2664                   20437983.1374
 -30544250.505 5                  24087573.086
 -32094191.08147 -24992064.07446  21176802.3674                   21176798.5824
 11  7 31  2 59  0.0000000  0  7G29G25G10G12G05G04G02
  15386042.30347  12000872.69844  23756581.8754                   23756581.5904
  -2073077.68848  -1604408.01946  21992615.7424                   21992616.7074
 -16632623.70147 -14079230.07345  22171640.7034                   22171639.8244
 -20212392.25148 -15716688.48746  20956832.4534                   20956829.5824
 -18101558.17248 -14084512.48247  20420814.2664                   20420812.3984
                                  24089647.188
 -32133411.17648 -25022625.17646  21169339.6884                   21169335.9694
 11  7 31  2 59 30.0000000  0  7G29G25G10G12G05G04G02
  15232341.11047  11881105.64044  23727333.1644                   23727333.6214
  -2185353.30648  -1691895.44246  21971250.7194                   21971251.9024
 -16622042.87747 -14070985.30945  22173654.4384                   22173652.8754
 -20256734.97848 -15751241.26046  20948394.1884                   20948391.9534
 -18191226.85948 -14154384.14147  20403750.9534                   20403749.3524
 -30522488.95645 -23771203.18452  24091714.3284                   24091715.7544
 -32172509.17848 -25053091.13146  21161899.1334                   21161895.1564
 11  7 31  3  0  0.0000000  0  7G29G25G10G12G05G04G02
  15078605.73447  11761311.97044  23698078.4064                   23698078.9344
  -2297102.62748  -1778972.78146  21949985.4454                   21949986.2734
 -16611080.95547 -14062443.57645  22175740.5704                   22175738.1414
 -20300528.36148 -15785365.95546  20940060.6804                   20940058.7934
 -18280333.19348 -14223817.62247  20386795.0704                   20386792.5824
 -30511693.53545 -23762791.24343  24093768.8674                   24093768.8714
 -32211486.96847 -25083463.42246  21154481.6884                   21154477.7854
 11  7 31  3  0 30.0000000  0  7G29G25G10G12G05G04G02
  14924837.54847  11641492.74644  23668817.3594                   23668817.5004
  -2408323.56948  -1865638.38446  21928820.6254                   21928820.9924
 -16599740.30347 -14053606.69845  22177898.5394                   22177896.7894
 -20343772.74048 -15819062.87146  20931831.3834                   20931829.1214
 -18368876.38048 -14292812.27347  20369945.0784                   20369943.8324
 -30500955.39845 -23754423.94142  24095811.6334                   24095812.8954
 -32250344.66848 -25113742.14146  21147087.3204                   21147083.7974
 11  7 31  3  1  0.0000000  0  7G29G25G10G12G05G04G02
  14771036.88347  11521648.20344  23639549.6954                   23639549.1914
  -2519015.93448  -1951892.11446  21907756.6174                   21907757.0704
 -16588024.56747 -14044477.57245  22180128.4384                   22180126.4694
 -20386470.39148 -15852333.76346  20923706.4454                   20923704.1644
 -18456857.33748 -14361368.82947  20353203.3834                   20353201.2114
 -30490276.34645 -23746102.67543  24097843.3594                   24097844.4184
 -32289083.78148 -25143928.44846  21139715.5474                   21139711.8204
 11  7 31  3  1 30.0000000  0  7G29G25G10G12G05G04G02
  14617205.11347  11401779.43244  23610275.6804                   23610275.0474
  -2629177.99448  -2037732.61846  21886793.2664                   21886794.1094
 -16575936.62647 -14035058.41845  22182428.4694                   22182426.6914
 -20428622.15948 -15885179.28346  20915685.3204                   20915683.2504
 -18544275.77048 -14429487.05647  20336568.0234                   20336565.8404
 -30479656.34846 -23737827.35243  24099865.0394                   24099865.1174
 -32327705.04748 -25174022.92746  21132366.3284                   21132362.5044
 11  7 31  3  2  0.0000000  0  7G29G25G10G12G05G04G02
  14463344.85147  11281888.41444  23580997.7814                   23580997.3524
  -2738807.00748  -2123157.76946  21865931.1174                   21865932.2544
 -16563477.62747 -14025350.09445  22184799.1174                   22184797.4774
 -20470228.02648 -15917599.43246  20907767.8754                   20907765.4884
 -18631130.02048 -14497165.65847  20320039.8524                   20320037.9884
 -30469094.47146 -23729597.31843  24101875.9924                   24101875.3094
 -32366207.89648 -25204025.12746  21125039.4224                   21125035.7734
 11  7 31  3  2 30.0000000  0  7G29G25G10G12G05G04G02
  14309455.84047  11161975.02344  23551712.9144                   23551712.8094
  -2847903.28548  -2208167.78146  21845171.1484                   21845171.4454
 -16550651.70747 -14015355.91545  22187240.0234                   22187238.8954
 -20511290.49048 -15949596.15646  20899953.7894                   20899951.6564
 -18717421.47248 -14564405.72747  20303619.2504                   20303617.4494
 -30458592.77046 -23721414.09843  24103873.5314                   24103873.4184
 -32404594.52548 -25233936.77946  21117734.9774                   21117730.9144
 11  7 31  3  3  0.0000000  0  7G29G25G10G12G05G04G02
  14155540.28847  11042040.93144  23522424.5634                   23522424.4104
  -2956464.00248  -2292760.50446  21824512.9064                   21824512.9844
 -16537460.71447 -14005077.21945  22189749.6334                   22189748.2854
 -20551809.51348 -15981169.40346  20892243.5164                   20892241.4694
 -18803148.66248 -14631206.09847  20287306.0394                   20287303.6644
 -30448150.27146 -23713277.18442  24105859.9454                   24105860.3754
 -32442864.18648 -25263757.28546  21110452.2664                   21110448.0084
 11  7 31  3  3 30.0000000  0  7G29G25G10G12G05G04G02
  14001602.98747  10922089.89244  23493130.7114                   23493129.5744
  -3064484.90148  -2376932.57846  21803957.0864                   21803957.4184
 -16523904.19047 -13994513.66645  22192329.2974                   22192328.4494
 -20591782.77648 -16012317.38446  20884636.7114                   20884634.6174
 -18888308.41248 -14697564.31247  20271100.9384                   20271098.7704
 -30437764.31046 -23705184.27042  24107837.3054                   24107835.9924
 -32481014.38648 -25293484.70646  21103192.3364                   21103188.6954
 11  7 31  3  4  0.0000000  0  7G29G25G10G12G05G04G02
  13847642.30347  10802120.60144  23463832.6724                   23463832.6684
  -3171967.13848  -2460684.92746  21783503.7034                   21783504.4344
 -16509987.25747 -13983669.33545  22194977.9454                   22194976.5234
 -20631214.10748 -16043043.10446  20877133.2814                   20877130.5704
 -18972903.23148 -14763482.32347  20255003.1094                   20255001.0514
 -30427438.079 5                  24109802.414
 -32519048.26448 -25323121.47246  21095954.7664                   21095950.9614
 11  7 31  3  4 30.0000000  0  7G29G25G10G12G05G04G02
  13693656.79047  10682131.96344  23434530.4614                   23434530.0084
  -3278912.40148  -2544018.86646  21763152.9844                   21763153.7194
 -16495715.68947 -13972548.63845  22197693.2734                   22197692.5004
 -20670107.96948 -16073350.00546  20869732.0164                   20869730.0554
 -19056935.93948 -14828962.33647  20239011.8284                   20239009.9614
 -30417174.746 5                  24111755.461
 -32556969.62748 -25352670.58246  21088738.7584                   21088734.5634
 11  7 31  3  5  0.0000000  0  7G29G25G10G12G05G04G02
  13539648.52347  10562125.59744  23405223.7894                   23405223.2584
  -3385318.50948  -2626932.66046  21742904.2584                   21742905.0514
 -16481091.47747 -13961153.19144  22200476.5394                   22200475.2544
 -20708464.50748 -16103238.19746  20862432.9694                   20862430.8284
 -19140405.63748 -14894003.62547  20223128.0164                   20223126.1604
 -30406973.635 5                  24113695.398
 -32594778.01748 -25382131.63346  21081544.0234                   21081540.5514
 11  7 31  3  5 30.0000000  0  7G29G25G10G12G05G04G02
  13385620.02047  10442103.49144  23375912.4534                   23375912.8754
  -3491182.99948  -2709424.44446  21722759.0234                   21722759.4414
 -16466115.99147 -13949484.00944  22203326.3524                   22203325.1414
 -20746283.65248 -16132707.65746  20855236.0864                   20855234.1724
 -19223310.79148 -14958605.02047  20207351.9694                   20207349.9064
 -30396833.975 5                  24115627.484
 -32632473.03148 -25411504.35746  21074370.7274                   21074367.1334
 11  7 31  3  6  0.0000000  0  7G29G25G10G12G05G04G02
  13231573.91447  10322067.65944  23346598.9774                   23346598.6294
  -3596503.31848  -2791492.18546  21702717.2974                   21702717.5234
 -16450791.20647 -13937542.61845  22206242.6484                   22206241.2034
 -20783565.17148 -16161758.19746  20848141.4694                   20848139.7664
 -19305650.47148 -15022765.77847  20191683.3364                   20191680.8984
 -30386754.809 5                  24117544.953
 -32670053.71948 -25440787.99446  21067219.6254                   21067215.5004
 11  7 31  3  6 30.0000000  0  7G29G25G10G12G05G04G02
  13077509.99047  10202017.95144  23317281.9774                   23317280.9224
  -3701279.74948  -2873136.10746  21682778.7114                   21682779.2194
 -16435120.98447 -13925332.04944  22209224.5554                   22209223.0554
 -20820311.85048 -16190391.95946  20841149.4454                   20841146.9614
 -19387426.09848 -15086487.01547  20176121.6334                   20176119.3754
 -30376737.823 5                  24119450.664
 -32707522.19648 -25469984.18746  21060089.8364                   21060085.3984
 11  7 31  3  7  0.0000000  0  7G29G25G10G12G05G04G02
  12923429.42447  10081955.26044  23287960.6414                   23287959.9384
  -3805511.41348  -2954355.55046  21662943.8834                   21662944.8834
 -16419108.69447 -13912854.97545  22212271.4064                   22212270.6804
 -20856525.88548 -16218610.67646  20834257.8834                   20834255.4734
 -19468637.92748 -15149768.93447  20160667.2424                   20160665.6254
 -30366783.774 5                  24121348.117
 -32744879.43748 -25499093.70246  21052980.5004                   21052976.8484
 11  7 31  3  7 30.0000000  0  6G29G25G10G12G05G02
  12769333.74847   9961880.80044  23258637.5554                   23258636.8554
  -3909196.74948  -3035149.26446  21643213.4304                   21643214.2504
 -16402756.74447 -13900113.24844  22215383.9454                   22215381.5234
 -20892207.90448 -16246414.85346  20827468.0394                   20827465.7464
 -19549285.87548 -15212611.45747  20145320.7894                   20145318.7664
 -32782125.44348 -25528116.54246  21045893.2034                   21045888.8984
 11  7 31  3  8  0.0000000  0  6G29G25G10G12G05G02
  14190652.27747  11069401.80444  23529104.7194                   23529105.2504
  -2436908.64348  -1887911.74546  21923380.5084                   21923381.2234
 -14810645.84547 -12659507.37445  22518351.9534                   22518350.6764
 -19351935.27948 -15046202.41246  21120571.4694                   21120569.3954
 -18053944.52848 -14047410.37747  20429874.5634                   20429872.7814
 -31243837.06948 -24329450.23446  21338619.5554                   21338614.8404
 11  7 31  3  8 30.0000000  0  6G29G25G10G12G05G02
  14036533.29647  10949309.18845  23499777.0004                   23499776.5474
  -2539495.47848  -1967849.48946  21903858.6024                   21903859.8984
 -14793620.11947 -12646240.59044  22521592.1094                   22521589.9694
 -19386554.48648 -15073178.42546  21113984.3444                   21113981.6954
 -18133462.06448 -14109372.06147  20414742.9694                   20414740.8204
 -31280860.01148 -24358299.25846  21331573.9844                   21331570.0474
 11  7 31  3  9  0.0000000  0  6G29G25G10G12G05G02
  13882404.29847  10829208.77444  23470447.3204                   23470446.4654
  -2641531.73647  -2047358.21946  21884441.7814                   21884442.4184
 -14776262.07447 -12632714.88744  22524894.9384                   22524893.2234
 -19420644.84448 -15099742.33346  21107497.2894                   21107494.6094
 -18212415.10948 -14170893.88747  20399718.7194                   20399716.9694
 -31317772.75848 -24387062.43146  21324550.0314                   21324546.2894
 11  7 31  3  9 30.0000000  0  6G29G25G10G12G05G02
  13728265.89946  10709101.02844  23441115.4224                   23441114.8954
  -2743017.04648  -2126437.63946  21865129.7424                   21865130.4064
 -14758575.11347 -12618932.83845  22528260.6804                   22528259.5824
 -19454208.29348 -15125895.66746  21101109.9534                   21101107.9694
 -18290804.40548 -14231976.42447  20384801.6174                   20384799.7154
 -31354576.30248 -24415740.49546  21317546.0784                   21317541.8634
 11  7 31  3 10  0.0000000  0  6G29G25G10G12G05G02
  13574113.20947  10588982.15444  23411781.6484                   23411780.5744
  -2843956.74848  -2205091.91246  21845921.3984                   21845922.3954
 -14740568.58847 -12604901.79144  22531687.0234                   22531686.1994
 -19487252.64748 -15151644.51446  21094821.7664                   21094819.7034
 -18368636.60648 -14292624.85747  20369990.5944                   20369988.4304
 -31391277.72548 -24444338.98546  21310562.1724                   21310558.0944
 11  7 31  3 10 30.0000000  0  7G29G25G10G12G05G04G02
  13419945.78547  10468851.78044  23382444.7114                   23382443.3134
  -2944351.86148  -2283321.82846  21826816.9694                   21826817.5514
 -14722246.95947 -12590625.22745  22535174.0474                   22535172.6604
 -19519781.62748 -15176991.77646  21088631.6884                   21088629.9964
 -18445913.87748 -14352840.87847  20355285.0704                   20355282.6254
                                  24434058.758
 -31427879.77548 -24472860.04846  21303596.7504                   21303593.2424
 11  7 31  3 11  0.0000000  0  7G29G25G10G12G05G04G02
  13265766.71447  10348712.37644  23353104.7504                   23353103.8794
  -3044199.46948  -2361125.11846  21807816.3984                   21807817.0984
 -14703611.61247 -12576104.20145  22538720.0394                   22538718.6844
 -19551794.74948 -15201937.04946  21082539.6804                   21082537.5434
 -18522634.55948 -14412623.20147  20340685.9774                   20340683.4804
  26792962.137 5                  24435851.828
 -31464380.70848 -24501302.32646  21296651.2424                   21296647.2424
 11  7 31  3 11 30.0000000  0  7G29G25G10G12G05G04G02
  13111581.92447  10228568.49444  23323763.4534                   23323763.1214
  -3143494.11948  -2438497.55246  21788921.8834                   21788921.6484
 -14684660.62247 -12561337.18945  22542326.6484                   22542324.9924
 -19583289.28448 -15226478.25246  21076546.8594                   21076544.3054
 -18598794.43248 -14471968.52547  20326192.8914                   20326190.9384
  26802321.159 6                  24437632.234
 -31500776.61848 -24529662.75846  21289725.3444                   21289721.2664
 11  7 31  3 12  0.0000000  0  7G29G25G10G12G05G04G02
  12957395.39047  10108423.22444  23294423.8204                   23294422.8324
  -3242232.26748  -2515436.35746  21770132.0164                   21770132.7704
 -14665394.32147 -12546324.50445  22545992.4384                   22545991.2704
 -19614263.71148 -15250614.17346  21070651.9844                   21070649.8674
 -18674391.39148 -14530875.22547  20311807.4224                   20311805.1684
  26811615.638 5                  24439401.375
 -31537065.50048 -24557939.80246  21282819.6334                   21282815.4344
 11  7 31  3 12 30.0000000  0  7G29G25G10G12G05G04G02
  12803209.61747   9988278.58144  23265083.3914                   23265081.8484
  -3340411.87648  -2591939.91746  21751449.3914                   21751449.9534
 -14645814.29247 -12531067.34045  22549718.0394                   22549717.6844
 -19644718.71748 -15274345.33346  21064856.8674                   21064854.4964
 -18749424.38748 -14589342.46547  20297529.0704                   20297526.7734
  26820846.404 5                  24441156.258
 -31573246.56548 -24586132.82846  21275934.9304                   21275931.2384
 11  7 31  3 13  0.0000000  0  7G29G25G10G12G05G04G02
  12649025.82747   9868135.49944  23235742.5474                   23235741.8524
  -3438032.50748  -2668007.91446  21732872.8204                   21732873.2384
 -14625923.71447 -12515568.24144  22553503.3834                   22553502.9384
 -19674656.03348 -15297673.11346  21059159.9064                   21059158.0864
 -18823894.34348 -14647370.97747  20283357.7664                   20283355.6294
  26830012.747 5                  24442902.250
 -31609321.04247 -24614242.80646  21269069.9614                   21269065.5984
 11  7 31  3 13 30.0000000  0  7G29G25G10G12G05G04G02
  12494847.18446   9747996.41544  23206403.3674                   23206402.8324
  -3535091.50748  -2743638.27946  21714402.8914                   21714403.3404
 -14605723.90647 -12499828.13944  22557347.0944                   22557346.2464
 -19704075.62648 -15320597.48546  21053562.0704                   21053560.1684
 -18897799.71548 -14704959.54847  20269294.0944                   20269291.7544
  26839116.301 6                  24444634.781
 -31645287.64348 -24642268.71746  21262225.8754                   21262221.7894
 11  7 31  3 14  0.0000000  0  7G29G25G10G12G05G04G02
  12340673.64646   9627861.27344  23177064.7034                   23177064.2074
  -3631589.64348  -2818831.61646  21696039.9144                   21696039.7734
 -14585219.51447 -12483850.67345  22561249.4224                   22561248.7384
 -19732980.91648 -15343121.08146  21048061.2194                   21048059.4414
 -18971142.77548 -14762109.97347  20255337.2814                   20255335.3244
  26848155.353 6                  24446354.078
 -31681148.30848 -24670212.09246  21255401.7894                   21255397.5354
 11  7 31  3 14 30.0000000  0  7G29G25G10G12G05G04G02
  12186507.84047   9507732.21044  23147728.2194                   23147727.7664
  -3727524.91348  -2893586.34446  21677783.9384                   21677784.5084
 -14564411.83747 -12467636.93945  22565208.8914                   22565207.7464
 -19761372.28248 -15365244.23846  21042658.6804                   21042657.0274
 -19043922.48448 -14818821.41147  20241487.7974                   20241485.7934
  26857130.76846 -22357515.03952  24448062.9454                   24448062.3164
 -31716902.36748 -24698072.40846  21248598.2034                   21248593.8874
 11  7 31  3 15  0.0000000  0  7G29G25G10G12G05G04G02
  12032351.18846   9387610.21544  23118392.4924                   23118392.4924
  -3822896.40048  -2967901.77846  21659635.2734                   21659635.8874
 -14543303.52047 -12451188.89844  22569225.8524                   22569224.2344
 -19789251.20548 -15386968.07246  21037353.3914                   21037350.6684
 -19116139.33448 -14875094.25747  20227744.9454                   20227743.1294
  26866042.25646 -22350571.07042  24449758.0084                   24449757.3324
 -31752550.27148 -24725849.97346  21241814.7114                   21241809.8714
 11  7 31  3 15 30.0000000  0  7G29G25G10G12G05G04G02
  11878205.14246   9267496.49244  23089059.4534                   23089059.4964
  -3917703.54348  -3041777.44146  21641594.1954                   21641594.5984
 -14521897.50447 -12434508.91744  22573299.0944                   22573298.4494
 -19816619.49948 -15408294.02746  21032145.5164                   21032143.3674
 -19187794.12748 -14930929.13347  20214109.8364                   20214107.9344
  26874889.79745 -22343676.92242  24451442.7974                   24451440.0434
 -31788092.39847 -24753545.12246  21235051.3984                   21235046.8364
 11  7 31  3 16  0.0000000  0  7G29G25G10G12G05G04G02
  11724071.46946   9147392.42845  23059729.3054                   23059728.3754
  -4011945.11448  -3115212.41046  21623660.4534                   21623661.0554
 -14500196.22247 -12417598.84544  22577428.0164                   22577427.8954
 -19843478.49648 -15429223.12846  21027034.2974                   21027032.0044
 -19258886.68348 -14986325.89447  20200581.4224                   20200579.0634
  26883673.32645 -22336832.53142  24453114.1804                   24453111.2894
 -31823529.18947 -24781158.18246  21228307.2114                   21228303.1954
 11  7 31  3 16 30.0000000  0  7G29G25G10G12G05G04G02
  11569950.67447   9027298.37244  23030400.8674                   23030400.9454
  -4105621.50948  -3188206.98946  21605834.5474                   21605835.0864
 -14478203.66947 -12400461.81144  22581613.9144                   22581612.8484
 -19869831.28948 -15449757.77946  21022019.4614                   21022017.2734
 -19329418.71048 -15041285.90047  20187159.3524                   20187157.3444
                                  24454770.977
 -31858862.00048 -24808690.23246  21221584.2424                   21221579.7624
 11  7 31  3 17  0.0000000  0  7G29G25G10G12G05G04G02
  11415846.74546   8907217.47444  23001075.9064                   23001075.0784
  -4198729.74148  -3260758.82946  21588116.4774                   21588117.4494
 -14455920.66547 -12383098.42344  22585853.9774                   22585852.7154
 -19895677.21548 -15469897.46946  21017101.2194                   21017099.2544
 -19399388.40248 -15095807.70747  20173844.8284                   20173842.5124
  26901047.13115                  24456421.531
 -31894089.15748 -24836139.95846  21214880.2974                   21214876.3954
 11  7 31  3 17 30.0000000  0  7G29G25G10G12G05G04G02
  11261758.89147   8787149.06844  22971753.8054                   22971753.0704
  -4291271.40148  -3332869.19246  21570506.2734                   21570506.4454
 -14433352.17047 -12365512.57644  22590149.1094                   22590147.8204
 -19921019.77948 -15489644.91546  21012278.5944                   21012276.1724
 -19468799.04748 -15149893.88547  20160636.6644                   20160634.6524
  26909637.13214                  24458052.547
 -31929212.88348 -24863509.07846  21208196.3054                   21208192.0944
 11  7 31  3 18  0.0000000  0  6G29G25G10G12G05G02
  11107689.11146   8667094.77445  22942435.0234                   22942434.4064
  -4383245.38448  -3404537.19146  21553004.5084                   21553004.3984
 -14410500.18147 -12347705.82844  22594497.3754                   22594496.7234
 -19945860.89348 -15509001.63046  21007551.5164                   21007549.1374
 -19537650.03648 -15203543.97747  20147534.2194                   20147532.4654
 -31964233.29948 -24890797.67646  21201532.5704                   21201527.9344
 11  7 31  3 18 30.0000000  0  7G29G25G10G12G05G04G02
  10953639.69947   8547056.36045  22913120.8284                   22913119.1844
  -4474650.26648  -3475761.75346  21535610.6564                   21535610.8094
 -14387366.70747 -12329679.71944  22598899.4694                   22598897.6914
 -19970201.44848 -15527968.30246  21002919.8054                   21002917.7814
 -19605941.55848 -15256758.11547  20134538.8524                   20134536.5554
                                  26926619.07714                  24461286.172
 -31999150.28248 -24918005.68546  21194887.9454                   21194883.9344
 11  7 31  3 19  0.0000000  0  7G29G25G10G12G05G04G02
  12375035.90547   9654637.86745  23183603.1954                   23183602.5944
  -2990063.95948  -2318941.24046  21818117.9774                   21818118.2464
 -12788537.09746 -11083838.45144  22903146.8914                   22903145.2344
 -18418624.04848 -14318946.95246  21298175.2814                   21298172.9414
 -18098253.43548 -14081936.17047  20421442.3284                   20421440.5354
                                  28510432.782 4                  24762675.234
 -30458544.55747 -23717533.68446  21488055.1564                   21488051.5434
 11  7 31  3 19 30.0000000  0  7G29G25G10G12G05G04G02
  12221029.93247   9534633.29545  23154296.9534                   23154296.1294
  -3080330.88848  -2389279.08546  21800940.6644                   21800941.0824
 -12764851.62846 -11065382.24144  22907653.8204                   22907652.9574
 -18441970.57848 -14337139.05246  21293732.0234                   21293730.2504
 -18165429.99848 -14134281.52047  20408659.0864                   20408657.0824
                                  28518761.591 5                  24764262.328
 -30493258.00547 -23744583.10546  21481449.4534                   21481445.5824
 11  7 31  3 20  0.0000000  0  7G29G25G10G12G05G04G02
  12067049.10847   9414648.30745  23124995.2504                   23124994.0474
  -3170027.00148  -2459172.14546  21783871.9694                   21783872.2544
 -12740893.40247 -11046713.50344  22912214.0084                   22912211.9344
 -18464821.93448 -14354945.29046  21289383.6254                   21289381.4144
 -18232048.83048 -14186192.27147  20395981.9694                   20395979.9414
                                  28527025.520 5                  24765835.195
 -30527869.02347 -23771552.70846  21474863.2734                   21474858.9064
 11  7 31  3 20 30.0000000  0  7G29G25G10G12G05G04G02
  11913093.19447   9294682.74545  23095698.7734                   23095697.4734
  -3259153.98248  -2528621.71646  21766911.5394                   21766912.0164
 -12716667.40746 -11027836.09344  22916823.2424                   22916821.8554
 -18487182.71648 -14372369.28746  21285128.7274                   21285126.7504
 -18298112.88248 -14237670.72147  20383410.1334                   20383408.3094
                                  28535222.226 5                  24767393.711
 -30562380.11347 -23798444.44646  21468296.1094                   21468291.4144
 11  7 31  3 21  0.0000000  0  7G29G25G10G12G05G04G02
  11759163.71747   9174737.81045  23066406.7664                   23066405.8134
  -3347710.95348  -2597627.13446  21750059.8524                   21750060.7854
 -12692176.04546 -11008751.86444  22921483.1254                   22921482.4454
 -18509054.08848 -14389411.90346  21280966.7274                   21280964.4224
 -18363622.91648 -14288717.47847  20370944.1724                   20370941.9804
                                  28543351.975 5                  24768941.461
 -30596791.48447 -23825258.48746  21461747.6254                   21461743.3794
 11  7 31  3 21 30.0000000  0  6G29G25G10G12G05G02
  11605260.23147   9054813.10845  23037119.9534                   23037118.5004
  -3435699.56148  -2666189.66846  21733316.0084                   21733316.4224
 -12667424.33146 -10989464.85344  22926193.2344                   22926192.7234
 -18530439.85348 -14406076.13746  21276897.3594                   21276895.0204
 -18428581.49948 -14339334.52747  20358583.0634                   20358580.2344
 -30631105.51248 -23851996.68046  21455218.0234                   21455213.8714
 11  7 31  3 22  0.0000000  0  6G29G25G10G12G05G02
  11451387.09647   8934912.05845  23007838.9064                   23007836.8714
  -3523116.86148  -2734307.01646  21716681.4694                   21716682.0984
 -12642412.55346 -10969975.11544  22930953.7194                   22930951.5824
 -18551339.34748 -14422361.44146  21272920.0704                   21272917.7934
 -18492986.90748 -14389520.53247  20346327.5704                   20346325.0514
 -30665320.33847 -23878657.57246  21448706.3204                   21448702.7154
 11  7 31  3 22 30.0000000  0  6G29G25G10G12G05G02
  11297550.39946   8815039.40145  22978563.7424                   22978563.1604
  -3609957.75748  -2801975.22546  21700155.7814                   21700156.5944
 -12617138.83746 -10950281.36644  22935762.5864                   22935761.2194
 -18571750.54848 -14438266.27146  21269035.9924                   21269033.6884
 -18556835.30648 -14439272.50747  20334177.3754                   20334174.5664
 -30699431.60647 -23905237.77646  21442216.0394                   21442211.2464
 11  7 31  3 23  0.0000000  0  6G29G25G10G12G05G02
  11143755.62047   8695199.40945  22949298.0864                   22949296.7894
  -3696217.97348  -2869190.96146  21683740.8914                   21683741.3874
 -12591601.97346 -10930382.47844  22940622.2814                   22940620.0474
 -18591671.22748 -14453788.87946  21265245.1884                   21265242.8754
 -18620123.50948 -14488587.97147  20322133.4774                   20322131.1994
 -30733435.75848 -23931734.50346  21435745.6174                   21435741.0904
 11  7 31  3 23 30.0000000  0  6G29G25G10G12G05G02
  10989998.58047   8575388.82845  22920038.9614                   22920038.1024
  -3781902.98648  -2935958.48446  21667435.9694                   21667436.6174
 -12565810.67646 -10910285.37144  22945530.3914                   22945528.9304
 -18611109.14548 -14468935.30746  21261546.4534                   21261544.4654
 -18682858.35548 -14537472.24347  20310195.5314                   20310193.3914
 -30767338.72247 -23958152.39846  21429293.1724                   21429290.0664
 11  7 31  3 24  0.0000000  0  6G29G25G10G12G05G02
  10836276.84947   8455605.75045  22890786.0234                   22890784.9344
  -3867016.81648  -3002280.92446  21651239.3834                   21651239.5704
 -12539772.19847 -10889995.69344  22950485.7344                   22950483.0084
 -18630070.82248 -14483710.64146  21257938.1024                   21257935.7704
 -18745045.14948 -14585929.46347  20298361.9144                   20298359.3914
 -30801145.29448 -23984495.19346  21422861.1094                   21422857.0354
 11  7 31  3 24 30.0000000  0  6G29G25G10G12G05G02
  10682591.36047   8335850.92245  22861541.0084                   22861540.4964
  -3951559.77248  -3068158.52346  21635150.9534                   21635151.3554
 -12513490.08047 -10869516.15244  22955486.4534                   22955485.0664
 -18648558.26948 -14498116.43946  21254419.4454                   21254417.5864
 -18806685.47848 -14633960.87047  20286632.1484                   20286630.1764
 -30834856.57148 -24010763.72446  21416445.4454                   21416441.1844
 11  7 31  3 25  0.0000000  0  6G29G25G10G12G05G02
  10528941.96747   8216124.22645  22832302.7974                   22832301.6334
  -4035533.45248  -3133592.54846  21619171.4774                   21619171.7344
 -12486968.72347 -10848850.20044  22960533.2814                   22960532.0204
 -18666576.09648 -14512156.31546  21250991.3054                   21250989.4614
 -18867782.01148 -14681568.53147  20275005.7114                   20275003.5004
 -30868474.69048 -24036959.66246  21410048.1804                   21410044.0984
 11  7 31  3 25 30.0000000  0  6G29G25G10G12G05G02
  10375329.41647   8096426.20245  22803071.2974                   22803069.8554
  -4118938.62048  -3198583.57446  21603300.2814                   21603300.0004
 -12460212.06547 -10828000.91044  22965625.4454                   22965623.8954
 -18684127.51248 -14525832.74446  21247651.3054                   21247649.1724
 -18928336.52948 -14728753.86247  20263482.9454                   20263480.4734
 -30902001.17448 -24063084.22046  21403668.2734                   21403664.2384
 11  7 31  3 26  0.0000000  0  7G29G25G10G26G12G05G02
  10221754.70947   7976757.72645  22773846.2504                   22773844.9614
  -4201775.58948  -3263131.83446  21587536.6094                   21587537.2114
 -12433223.57247 -10806970.94044  22970760.7584                   22970759.4104
  27812146.51516                  24160572.680
 -18701215.02848 -14539147.70446  21244399.4454                   21244398.0824
 -18988350.47348 -14775517.94847  20252062.6094                   20252060.0554
 -30935436.82548 -24089137.99346  21397305.4384                   21397301.3714
 11  7 31  3 26 30.0000000  0  7G29G25G10G26G12G05G02
  10068219.73747   7857120.19045  22744629.7034                   22744628.3754
  -4284044.06248  -3327237.11846  21571881.4064                   21571881.8484
 -12406005.67846 -10785762.22944  22975940.3914                   22975939.1954
  27644072.555 6                  24128588.289
 -18717840.47248 -14552102.59946  21241235.8754                   21241233.5744
 -19047824.96048 -14821861.69047  20240744.9534                   20240742.9064
 -30968781.72348 -24115121.03846  21390960.4614                   21390956.3484
 11  7 31  3 27  0.0000000  0  7G29G25G10G26G12G05G02
   9914728.31747   7737516.56845  22715421.4144                   22715419.2384
  -4365741.68348  -3390897.58546  21556334.9144                   21556335.1644
 -12378558.87247 -10764375.10744  22981162.9774                   22981161.7464
  27475965.954 6                  24096598.977
 -18734003.77148 -14564697.39646  21238160.3984                   21238157.9414
 -19106758.69248 -14867784.07247  20229530.3594                   20229527.6484
 -31002034.16748 -24141032.06646  21384632.7114                   21384629.0164
 11  7 31  3 27 30.0000000  0  7G29G25G10G26G12G05G02
   9761278.41047   7617945.32345  22686220.7114                   22686218.3594
  -4446871.98348  -3454115.99346  21540896.6094                   21540896.6454
 -12350890.03146 -10742814.98944  22986428.0394                   22986426.8874
  27307826.317 6                  24064602.820
 -18749710.74348 -14576936.59846  21235171.6174                   21235168.9184
 -19165156.35848 -14913288.72547  20218417.3674                   20218415.0514
 -31035197.98648 -24166874.02846  21378322.3754                   21378317.9924
 11  7 31  3 28  0.0000000  0  7G29G25G10G26G12G05G02
   9607872.70547   7498408.49445  22657027.9924                   22657027.1094
  -4527434.10948  -3516891.65246  21525565.9924                   21525566.1094
 -12323001.16146 -10721083.43043  22991735.3054                   22991734.0084
  27139657.662 5                  24032600.648
 -18764962.78548 -14588821.31746  21232269.2814                   21232266.9454
 -19223018.52948 -14958376.11247  20207406.3754                   20207404.1764
 -31068272.64748 -24192646.50346  21372028.1564                   21372023.9574
 11  7 31  3 28 30.0000000  0  7G29G25G10G26G12G05G02
   9454513.48747   7378907.92445  22627845.2424                   22627843.6254
  -4607427.43948  -3579224.10646  21510343.6564                   21510344.3134
 -12294894.18146 -10699181.85943  22997083.5784                   22997081.3524
  26971463.857 5                  24000593.711
 -18779761.98848 -14600353.19546  21229452.9064                   21229451.1174
 -19280345.69848 -15003046.62247  20196497.2894                   20196495.1604
 -31101257.77248 -24218349.21846  21365751.0084                   21365746.4454
 11  7 31  3 29  0.0000000  0  7G29G25G10G26G12G05G02
   9301202.29047   7259444.71745  22598670.7344                   22598669.4104
  -4686852.05248  -3641113.40346  21495229.8524                   21495229.8674
 -12266572.19946 -10677112.83043  23002474.0084                   23002472.5274
  26803248.02645  20843600.98452  23968584.2974                   23968583.6604
 -18794110.61748 -14611533.95646  21226722.1804                   21226719.7544
 -19337139.02248 -15047301.14047  20185689.9774                   20185687.9494
 -31134154.19748 -24243982.83146  21359490.8364                   21359486.8244
 11  7 31  3 29 30.0000000  0  7G29G25G10G26G12G05G02
   9147941.23647   7140020.63345  22569506.0634                   22569504.3524
  -4765707.46248  -3702559.17146  21480223.9144                   21480224.3714
 -12238037.54846 -10654878.02843  23007903.0634                   23007902.1294
  26635014.09545  20712509.75442  23936569.4844                   23936568.9964
 -18808010.10548 -14622364.74446  21224077.6804                   21224076.1844
 -19393399.14348 -15091140.17947  20174983.8284                   20174981.6524
 -31166961.77048 -24269547.18246  21353248.2504                   21353244.3054
 11  7 31  3 30  0.0000000  0  7G29G25G10G26G12G05G02
   8994733.96847   7020638.44045  22540351.8054                   22540350.6254
  -4843992.00648  -3763560.09446  21465326.6644                   21465327.3094
 -12209291.38746 -10632478.44143  23013373.4454                   23013371.9614
  26466766.84655  20581408.17252  23904553.6484                   23904553.2384
 -18821461.24148 -14632846.17646  21221517.7814                   21221516.0704
 -19449125.63148 -15134563.40347  20164379.9064                   20164377.3364
 -31199678.82448 -24295041.00746  21347021.9844                   21347018.4494
 11  7 31  3 30 30.0000000  0  7G29G25G10G26G12G05G02
  10417005.33447   8128901.90745  22811000.7584                   22810998.7974
  -3346284.86048  -2596515.54046  21750331.1804                   21750331.5394
 -10604919.31846  -9382318.41743  23318675.7194                   23318674.1804
  27873933.81546  21677902.08443  24172328.7504                   24172328.3834
 -17259047.30647 -13415380.77646  21518835.4774                   21518833.0704
 -17928899.42448 -13949971.55047  20453669.2664                   20453667.0084
 -29656886.49148 -23092865.16446  21640605.8444                   21640601.0474
 11  7 31  3 31  0.0000000  0  7G29G25G10G26G12G05G02
  10263905.75647   8009603.62245  22781866.7274                   22781865.6094
  -3423432.69448  -2656630.71946  21735650.2034                   21735650.4224
 -10575763.40346  -9359599.56043  23324224.0944                   23324221.9304
  27705665.41246  21546783.95443  24140307.6564                   24140306.9494
 -17271613.52548 -13425172.65446  21516443.8524                   21516441.9694
 -17983567.01848 -13992569.65347  20443266.5704                   20443263.6254
 -29689428.32648 -23118222.44146  21634413.5864                   21634409.4304
 11  7 31  3 31 30.0000000  0  7G29G25G10G26G12G05G02
  10110864.22147   7890350.55145  22752743.7974                   22752742.7074
  -3500010.79348  -2716301.94346  21721077.9144                   21721077.8054
 -10546405.14646  -9336722.94643  23329810.3674                   23329808.3594
  27537393.05646  21415662.69643  24108286.7734                   24108286.3874
 -17283739.15448 -13434621.21446  21514136.4534                   21514134.1214
 -18037705.27948 -14034755.28347  20432964.1414                   20432962.0474
 -29721881.51448 -23143510.65446  21628237.7664                   21628233.7304
 11  7 31  3 32  0.0000000  0  7G29G25G10G26G12G05G02
   9957883.97747   7771145.23145  22723632.8524                   22723631.4574
  -3576017.73148  -2775528.10846  21706614.2894                   21706614.5394
 -10516846.02546  -9313689.91443  23335436.0234                   23335434.3054
  27369121.55946  21284542.13843  24076265.2814                   24076264.6644
 -17295424.96948 -13443727.05146  21511912.8834                   21511911.1764
 -18091313.96048 -14076528.26947  20422762.6644                   20422760.0314
 -29754244.93048 -23168728.90546  21622079.6024                   21622074.8364
 11  7 31  3 32 30.0000000  0  7G29G25G10G26G12G05G02
   9804967.49347   7651989.60645  22694533.3674                   22694532.0984
  -3651452.98248  -2834308.80946  21692259.6414                   21692259.9104
 -10487088.11947  -9290501.86443  23341097.9844                   23341096.7934
  27200854.97746  21153425.35743  24044245.5784                   24044244.4494
 -17306672.74048 -13452491.56346  21509772.5554                   21509770.0594
 -18144393.87548 -14117889.22247  20412661.5864                   20412658.9384
 -29786517.93148 -23193876.69246  21615937.7194                   21615934.9804
 11  7 31  3 33  0.0000000  0  7G29G25G10G26G12G05G02
   9652113.83647   7532882.91245  22665446.4924                   22665444.6844
  -3726319.01247  -2892645.95146  21678012.8284                   21678013.5634
 -10457136.27046  -9267162.85743  23346797.5864                   23346796.9774
  27032594.49346  21022313.44343  24012225.7504                   24012226.0354
 -17317486.89548 -13460918.19146  21507714.8984                   21507712.1374
 -18196948.39748 -14158840.78047  20402660.8204                   20402658.5634
 -29818703.05248 -23218956.02246  21609813.2034                   21609810.0864
 11  7 31  3 33 30.0000000  0  7G29G25G10G26G12G05G02
   9499324.14347   7413826.04745  22636371.2194                   22636370.3014
  -3800617.47448  -2950540.83746  21663874.1954                   21663874.6884
 -10426994.44446  -9243675.71243  23352533.1954                   23352531.7274
  26864341.78946  20891207.55243  23980209.2034                   23980209.5824
 -17327871.44348 -13469010.05246  21505738.5394                   21505736.4614
 -18248980.52448 -14199385.27747  20392759.7504                   20392756.9534
 -29850802.17348 -23243968.32246  21603704.8834                   21603701.0274
 11  7 31  3 34  0.0000000  0  7G29G25G10G26G12G05G02
   9346601.50847   7294821.47945  22607309.4064                   22607307.6994
  -3874347.25048  -3007992.59146  21649843.8834                   21649844.2814
 -10396664.44246  -9220042.00043  23358305.7114                   23358303.8054
  26696101.90746  20760111.62544  23948193.4454                   23948194.7974
 -17337827.60648 -13476768.10346  21503843.8914                   21503841.6884
 -18300490.25048 -14239522.71147  20382957.6954                   20382955.3054
 -29882814.13148 -23268912.67846  21597613.3524                   21597609.1214
 11  7 31  3 34 30.0000000  0  7G29G25G10G26G12G05G02
   9193945.96447   7175869.16745  22578259.8754                   22578257.9924
  -3947510.12347  -3065002.61146  21635921.2114                   21635921.8984
 -10366150.54646  -9196264.90443  23364112.0704                   23364110.0664
  26527876.59846  20629027.10044  23916181.6484                   23916182.4064
 -17347359.14048 -13484195.29246  21502029.9384                   21502028.2274
 -18351480.18848 -14279255.12447  20373254.3914                   20373251.7624
 -29914740.61848 -23293790.44046  21591537.7194                   21591533.8404
 11  7 31  3 35  0.0000000  0  7G29G25G10G26G12G05G02
   9041361.92547   7056972.58345  22549223.8054                   22549222.5944
  -4020104.04147  -3121569.27446  21622107.1024                   21622107.5594
 -10335453.30246  -9172345.03743  23369952.7814                   23369951.5354
  26359671.64047  20497958.34844  23884173.9224                   23884173.6764
 -17356466.06848 -13491291.59946  21500297.3134                   21500294.7384
 -18401949.49048 -14318581.83847  20363650.4844                   20363648.2074
 -29946579.37448 -23318599.85346  21585479.2034                   21585475.0394
 11  7 31  3 35 30.0000000  0  7G29G25G10G26G12G05G02
   8888850.68147   6938132.71645  22520202.2734                   22520201.0394
  -4092129.69148  -3177693.14046  21608401.5634                   21608401.8984
 -10304575.76546  -9148284.58642  23375829.9774                   23375827.3984
  26191490.06147  20366907.83444  23852169.2734                   23852167.7424
 -17365151.26648 -13498059.29146  21498644.4844                   21498642.6564
 -18451900.00148 -14357504.30247  20354145.4384                   20354142.6484
 -29978331.26748 -23343341.57046  21579437.1804                   21579433.6134
